<?xml version="1.0" encoding="UTF-8" standalone="no" ?>
<gpx xmlns="http://www.topografix.com/GPX/1/1" creator="www.cicloide.com" version="1.1" xmlns:xsi="http://www.w3.org/2001/XMLSchema-instance" xsi:schemaLocation="http://www.topografix.com/GPX/1/1 http://www.topografix.com/GPX/1/1/gpx.xsd">
  <trk>
    <name>www.cicloide.com 14931</name>
    <desc>www.cicloide.com 14931</desc>
    <trkseg>
      <trkpt lat="41.605750325" lon="2.540280901">
        <ele>122.22</ele>
        <time>2013-08-11T07:35:02Z</time>
      </trkpt>
      <trkpt lat="41.605763652" lon="2.540280063">
        <ele>122.22</ele>
        <time>2013-08-11T07:35:21Z</time>
      </trkpt>
      <trkpt lat="41.605751582" lon="2.540263886">
        <ele>122.22</ele>
        <time>2013-08-11T07:35:51Z</time>
      </trkpt>
      <trkpt lat="41.605731969" lon="2.540241171">
        <ele>122.22</ele>
        <time>2013-08-11T07:36:14Z</time>
      </trkpt>
      <trkpt lat="41.605720821" lon="2.540238740">
        <ele>122.22</ele>
        <time>2013-08-11T07:36:35Z</time>
      </trkpt>
      <trkpt lat="41.605690143" lon="2.540212756">
        <ele>122.22</ele>
        <time>2013-08-11T07:37:00Z</time>
      </trkpt>
      <trkpt lat="41.605693328" lon="2.540249888">
        <ele>122.71</ele>
        <time>2013-08-11T07:37:11Z</time>
      </trkpt>
      <trkpt lat="41.605704728" lon="2.540267825">
        <ele>122.71</ele>
        <time>2013-08-11T07:37:20Z</time>
      </trkpt>
      <trkpt lat="41.605720318" lon="2.540282326">
        <ele>122.71</ele>
        <time>2013-08-11T07:37:30Z</time>
      </trkpt>
      <trkpt lat="41.605720318" lon="2.540311243">
        <ele>122.71</ele>
        <time>2013-08-11T07:37:36Z</time>
      </trkpt>
      <trkpt lat="41.605719983" lon="2.540313004">
        <ele>122.71</ele>
        <time>2013-08-11T07:37:40Z</time>
      </trkpt>
      <trkpt lat="41.605830456" lon="2.540364888">
        <ele>123.67</ele>
        <time>2013-08-11T07:37:48Z</time>
      </trkpt>
      <trkpt lat="41.605988706" lon="2.540365642">
        <ele>123.67</ele>
        <time>2013-08-11T07:37:54Z</time>
      </trkpt>
      <trkpt lat="41.606194063" lon="2.540411240">
        <ele>123.67</ele>
        <time>2013-08-11T07:38:00Z</time>
      </trkpt>
      <trkpt lat="41.606424482" lon="2.540540991">
        <ele>123.67</ele>
        <time>2013-08-11T07:38:09Z</time>
      </trkpt>
      <trkpt lat="41.606617601" lon="2.540645262">
        <ele>124.63</ele>
        <time>2013-08-11T07:38:17Z</time>
      </trkpt>
      <trkpt lat="41.606833016" lon="2.540745594">
        <ele>125.11</ele>
        <time>2013-08-11T07:38:25Z</time>
      </trkpt>
      <trkpt lat="41.607070223" lon="2.540817427">
        <ele>126.07</ele>
        <time>2013-08-11T07:38:34Z</time>
      </trkpt>
      <trkpt lat="41.607300642" lon="2.540874675">
        <ele>127.03</ele>
        <time>2013-08-11T07:38:43Z</time>
      </trkpt>
      <trkpt lat="41.607438608" lon="2.540891858">
        <ele>127.51</ele>
        <time>2013-08-11T07:38:49Z</time>
      </trkpt>
      <trkpt lat="41.607587303" lon="2.540899653">
        <ele>127.51</ele>
        <time>2013-08-11T07:38:56Z</time>
      </trkpt>
      <trkpt lat="41.607719989" lon="2.540872831">
        <ele>128.47</ele>
        <time>2013-08-11T07:39:02Z</time>
      </trkpt>
      <trkpt lat="41.607889471" lon="2.540850368">
        <ele>128.95</ele>
        <time>2013-08-11T07:39:09Z</time>
      </trkpt>
      <trkpt lat="41.608100695" lon="2.540828994">
        <ele>128.95</ele>
        <time>2013-08-11T07:39:17Z</time>
      </trkpt>
      <trkpt lat="41.608262381" lon="2.540807871">
        <ele>129.43</ele>
        <time>2013-08-11T07:39:24Z</time>
      </trkpt>
      <trkpt lat="41.608434127" lon="2.540755149">
        <ele>130.40</ele>
        <time>2013-08-11T07:39:31Z</time>
      </trkpt>
      <trkpt lat="41.608643339" lon="2.540696057">
        <ele>130.88</ele>
        <time>2013-08-11T07:39:38Z</time>
      </trkpt>
      <trkpt lat="41.608932431" lon="2.540645011">
        <ele>131.84</ele>
        <time>2013-08-11T07:39:48Z</time>
      </trkpt>
      <trkpt lat="41.609138709" lon="2.540616177">
        <ele>132.32</ele>
        <time>2013-08-11T07:39:56Z</time>
      </trkpt>
      <trkpt lat="41.609303665" lon="2.540596480">
        <ele>132.80</ele>
        <time>2013-08-11T07:40:03Z</time>
      </trkpt>
      <trkpt lat="41.609480943" lon="2.540577285">
        <ele>133.28</ele>
        <time>2013-08-11T07:40:10Z</time>
      </trkpt>
      <trkpt lat="41.609695687" lon="2.540530598">
        <ele>134.24</ele>
        <time>2013-08-11T07:40:18Z</time>
      </trkpt>
      <trkpt lat="41.609846561" lon="2.540498831">
        <ele>134.72</ele>
        <time>2013-08-11T07:40:24Z</time>
      </trkpt>
      <trkpt lat="41.609972038" lon="2.540408725">
        <ele>135.20</ele>
        <time>2013-08-11T07:40:30Z</time>
      </trkpt>
      <trkpt lat="41.610123835" lon="2.540322475">
        <ele>135.68</ele>
        <time>2013-08-11T07:40:36Z</time>
      </trkpt>
      <trkpt lat="41.610308991" lon="2.540231532">
        <ele>136.16</ele>
        <time>2013-08-11T07:40:43Z</time>
      </trkpt>
      <trkpt lat="41.610491297" lon="2.540121645">
        <ele>136.64</ele>
        <time>2013-08-11T07:40:50Z</time>
      </trkpt>
      <trkpt lat="41.610674526" lon="2.540018464">
        <ele>138.09</ele>
        <time>2013-08-11T07:40:58Z</time>
      </trkpt>
      <trkpt lat="41.610867309" lon="2.539909667">
        <ele>138.09</ele>
        <time>2013-08-11T07:41:06Z</time>
      </trkpt>
      <trkpt lat="41.611009466" lon="2.539841941">
        <ele>139.05</ele>
        <time>2013-08-11T07:41:12Z</time>
      </trkpt>
      <trkpt lat="41.611205771" lon="2.539756864">
        <ele>140.01</ele>
        <time>2013-08-11T07:41:19Z</time>
      </trkpt>
      <trkpt lat="41.611240891" lon="2.539761642">
        <ele>140.01</ele>
        <time>2013-08-11T07:41:21Z</time>
      </trkpt>
      <trkpt lat="41.611431998" lon="2.539616468">
        <ele>140.49</ele>
        <time>2013-08-11T07:41:29Z</time>
      </trkpt>
      <trkpt lat="41.611613718" lon="2.539437011">
        <ele>140.97</ele>
        <time>2013-08-11T07:41:36Z</time>
      </trkpt>
      <trkpt lat="41.611771465" lon="2.539250514">
        <ele>141.93</ele>
        <time>2013-08-11T07:41:43Z</time>
      </trkpt>
      <trkpt lat="41.611873389" lon="2.539104333">
        <ele>142.89</ele>
        <time>2013-08-11T07:41:49Z</time>
      </trkpt>
      <trkpt lat="41.612038429" lon="2.538926805">
        <ele>143.37</ele>
        <time>2013-08-11T07:41:56Z</time>
      </trkpt>
      <trkpt lat="41.612071789" lon="2.538885649">
        <ele>142.89</ele>
        <time>2013-08-11T07:41:58Z</time>
      </trkpt>
      <trkpt lat="41.612108753" lon="2.538845919">
        <ele>143.37</ele>
        <time>2013-08-11T07:42:06Z</time>
      </trkpt>
      <trkpt lat="41.612101461" lon="2.538830832">
        <ele>143.37</ele>
        <time>2013-08-11T07:42:08Z</time>
      </trkpt>
      <trkpt lat="41.612122835" lon="2.538754976">
        <ele>143.37</ele>
        <time>2013-08-11T07:42:14Z</time>
      </trkpt>
      <trkpt lat="41.612138676" lon="2.538753634">
        <ele>143.37</ele>
        <time>2013-08-11T07:42:24Z</time>
      </trkpt>
      <trkpt lat="41.612158961" lon="2.538755730">
        <ele>143.85</ele>
        <time>2013-08-11T07:42:38Z</time>
      </trkpt>
      <trkpt lat="41.612160050" lon="2.538750701">
        <ele>143.85</ele>
        <time>2013-08-11T07:42:53Z</time>
      </trkpt>
      <trkpt lat="41.612149824" lon="2.538748521">
        <ele>143.85</ele>
        <time>2013-08-11T07:43:02Z</time>
      </trkpt>
      <trkpt lat="41.612167091" lon="2.538724465">
        <ele>143.85</ele>
        <time>2013-08-11T07:43:20Z</time>
      </trkpt>
      <trkpt lat="41.612189890" lon="2.538722621">
        <ele>143.85</ele>
        <time>2013-08-11T07:43:41Z</time>
      </trkpt>
      <trkpt lat="41.612163487" lon="2.538743241">
        <ele>143.85</ele>
        <time>2013-08-11T07:43:56Z</time>
      </trkpt>
      <trkpt lat="41.612151333" lon="2.538774841">
        <ele>143.85</ele>
        <time>2013-08-11T07:44:20Z</time>
      </trkpt>
      <trkpt lat="41.612144460" lon="2.538786492">
        <ele>143.85</ele>
        <time>2013-08-11T07:44:44Z</time>
      </trkpt>
      <trkpt lat="41.612143370" lon="2.538785989">
        <ele>143.85</ele>
        <time>2013-08-11T07:44:56Z</time>
      </trkpt>
      <trkpt lat="41.612132055" lon="2.538808787">
        <ele>143.85</ele>
        <time>2013-08-11T07:45:11Z</time>
      </trkpt>
      <trkpt lat="41.612148316" lon="2.538767465">
        <ele>143.85</ele>
        <time>2013-08-11T07:45:16Z</time>
      </trkpt>
      <trkpt lat="41.612174383" lon="2.538669648">
        <ele>143.85</ele>
        <time>2013-08-11T07:45:23Z</time>
      </trkpt>
      <trkpt lat="41.612308494" lon="2.538430764">
        <ele>144.82</ele>
        <time>2013-08-11T07:45:33Z</time>
      </trkpt>
      <trkpt lat="41.612405808" lon="2.538288690">
        <ele>145.30</ele>
        <time>2013-08-11T07:45:40Z</time>
      </trkpt>
      <trkpt lat="41.612514186" lon="2.538157513">
        <ele>145.78</ele>
        <time>2013-08-11T07:45:47Z</time>
      </trkpt>
      <trkpt lat="41.612675370" lon="2.537976716">
        <ele>146.74</ele>
        <time>2013-08-11T07:45:56Z</time>
      </trkpt>
      <trkpt lat="41.612813420" lon="2.537799858">
        <ele>147.22</ele>
        <time>2013-08-11T07:46:03Z</time>
      </trkpt>
      <trkpt lat="41.612963456" lon="2.537636411">
        <ele>147.70</ele>
        <time>2013-08-11T07:46:10Z</time>
      </trkpt>
      <trkpt lat="41.613151965" lon="2.537448488">
        <ele>148.66</ele>
        <time>2013-08-11T07:46:19Z</time>
      </trkpt>
      <trkpt lat="41.613349945" lon="2.537218154">
        <ele>149.14</ele>
        <time>2013-08-11T07:46:29Z</time>
      </trkpt>
      <trkpt lat="41.613496545" lon="2.537012210">
        <ele>150.10</ele>
        <time>2013-08-11T07:46:38Z</time>
      </trkpt>
      <trkpt lat="41.613559241" lon="2.536932917">
        <ele>150.58</ele>
        <time>2013-08-11T07:46:42Z</time>
      </trkpt>
      <trkpt lat="41.613628979" lon="2.536724292">
        <ele>151.06</ele>
        <time>2013-08-11T07:46:49Z</time>
      </trkpt>
      <trkpt lat="41.613641384" lon="2.536617926">
        <ele>151.06</ele>
        <time>2013-08-11T07:46:52Z</time>
      </trkpt>
      <trkpt lat="41.613731406" lon="2.536317770">
        <ele>152.03</ele>
        <time>2013-08-11T07:47:01Z</time>
      </trkpt>
      <trkpt lat="41.613816147" lon="2.536101433">
        <ele>152.51</ele>
        <time>2013-08-11T07:47:09Z</time>
      </trkpt>
      <trkpt lat="41.613896278" lon="2.535849892">
        <ele>153.47</ele>
        <time>2013-08-11T07:47:17Z</time>
      </trkpt>
      <trkpt lat="41.613972050" lon="2.535581838">
        <ele>154.43</ele>
        <time>2013-08-11T07:47:25Z</time>
      </trkpt>
      <trkpt lat="41.614042710" lon="2.535347564">
        <ele>154.91</ele>
        <time>2013-08-11T07:47:32Z</time>
      </trkpt>
      <trkpt lat="41.614136335" lon="2.535005583">
        <ele>156.35</ele>
        <time>2013-08-11T07:47:42Z</time>
      </trkpt>
      <trkpt lat="41.614228117" lon="2.534722190">
        <ele>157.31</ele>
        <time>2013-08-11T07:47:51Z</time>
      </trkpt>
      <trkpt lat="41.614332472" lon="2.534449527">
        <ele>158.27</ele>
        <time>2013-08-11T07:48:00Z</time>
      </trkpt>
      <trkpt lat="41.614426014" lon="2.534126908">
        <ele>159.72</ele>
        <time>2013-08-11T07:48:10Z</time>
      </trkpt>
      <trkpt lat="41.614511174" lon="2.533821639">
        <ele>160.68</ele>
        <time>2013-08-11T07:48:19Z</time>
      </trkpt>
      <trkpt lat="41.614605973" lon="2.533468006">
        <ele>161.64</ele>
        <time>2013-08-11T07:48:29Z</time>
      </trkpt>
      <trkpt lat="41.614690966" lon="2.533236414">
        <ele>162.12</ele>
        <time>2013-08-11T07:48:36Z</time>
      </trkpt>
      <trkpt lat="41.614818622" lon="2.532865850">
        <ele>162.60</ele>
        <time>2013-08-11T07:48:47Z</time>
      </trkpt>
      <trkpt lat="41.614921468" lon="2.532532586">
        <ele>163.56</ele>
        <time>2013-08-11T07:48:57Z</time>
      </trkpt>
      <trkpt lat="41.615017273" lon="2.532096140">
        <ele>165.00</ele>
        <time>2013-08-11T07:49:09Z</time>
      </trkpt>
      <trkpt lat="41.615050466" lon="2.531808473">
        <ele>165.96</ele>
        <time>2013-08-11T07:49:17Z</time>
      </trkpt>
      <trkpt lat="41.615074187" lon="2.531468503">
        <ele>166.93</ele>
        <time>2013-08-11T07:49:26Z</time>
      </trkpt>
      <trkpt lat="41.615085083" lon="2.531175807">
        <ele>167.41</ele>
        <time>2013-08-11T07:49:34Z</time>
      </trkpt>
      <trkpt lat="41.615130764" lon="2.530703822">
        <ele>168.37</ele>
        <time>2013-08-11T07:49:46Z</time>
      </trkpt>
      <trkpt lat="41.615152222" lon="2.530333007">
        <ele>169.81</ele>
        <time>2013-08-11T07:49:56Z</time>
      </trkpt>
      <trkpt lat="41.615148366" lon="2.530089345">
        <ele>170.77</ele>
        <time>2013-08-11T07:50:03Z</time>
      </trkpt>
      <trkpt lat="41.615154234" lon="2.529710483">
        <ele>171.73</ele>
        <time>2013-08-11T07:50:13Z</time>
      </trkpt>
      <trkpt lat="41.615162113" lon="2.529430946">
        <ele>172.21</ele>
        <time>2013-08-11T07:50:21Z</time>
      </trkpt>
      <trkpt lat="41.615176194" lon="2.529111847">
        <ele>173.66</ele>
        <time>2013-08-11T07:50:30Z</time>
      </trkpt>
      <trkpt lat="41.615217852" lon="2.528815799">
        <ele>173.66</ele>
        <time>2013-08-11T07:50:38Z</time>
      </trkpt>
      <trkpt lat="41.615271748" lon="2.528515475">
        <ele>174.62</ele>
        <time>2013-08-11T07:50:46Z</time>
      </trkpt>
      <trkpt lat="41.615334109" lon="2.528193191">
        <ele>175.10</ele>
        <time>2013-08-11T07:50:55Z</time>
      </trkpt>
      <trkpt lat="41.615408960" lon="2.527833188">
        <ele>176.06</ele>
        <time>2013-08-11T07:51:05Z</time>
      </trkpt>
      <trkpt lat="41.615480709" lon="2.527460277">
        <ele>177.50</ele>
        <time>2013-08-11T07:51:16Z</time>
      </trkpt>
      <trkpt lat="41.615526977" lon="2.527252574">
        <ele>177.98</ele>
        <time>2013-08-11T07:51:23Z</time>
      </trkpt>
      <trkpt lat="41.615573916" lon="2.526964571">
        <ele>178.94</ele>
        <time>2013-08-11T07:51:32Z</time>
      </trkpt>
      <trkpt lat="41.615585399" lon="2.526719317">
        <ele>180.87</ele>
        <time>2013-08-11T07:51:40Z</time>
      </trkpt>
      <trkpt lat="41.615555475" lon="2.526442463">
        <ele>181.35</ele>
        <time>2013-08-11T07:51:48Z</time>
      </trkpt>
      <trkpt lat="41.615481379" lon="2.526115149">
        <ele>181.83</ele>
        <time>2013-08-11T07:51:57Z</time>
      </trkpt>
      <trkpt lat="41.615487917" lon="2.525759002">
        <ele>182.79</ele>
        <time>2013-08-11T07:52:05Z</time>
      </trkpt>
      <trkpt lat="41.615488085" lon="2.525447782">
        <ele>183.75</ele>
        <time>2013-08-11T07:52:14Z</time>
      </trkpt>
      <trkpt lat="41.615511470" lon="2.525180902">
        <ele>184.23</ele>
        <time>2013-08-11T07:52:21Z</time>
      </trkpt>
      <trkpt lat="41.615528234" lon="2.524941767">
        <ele>185.19</ele>
        <time>2013-08-11T07:52:28Z</time>
      </trkpt>
      <trkpt lat="41.615540807" lon="2.524702296">
        <ele>186.15</ele>
        <time>2013-08-11T07:52:35Z</time>
      </trkpt>
      <trkpt lat="41.615554721" lon="2.524411947">
        <ele>187.11</ele>
        <time>2013-08-11T07:52:43Z</time>
      </trkpt>
      <trkpt lat="41.615577017" lon="2.524072480">
        <ele>188.08</ele>
        <time>2013-08-11T07:52:53Z</time>
      </trkpt>
      <trkpt lat="41.615604845" lon="2.523768217">
        <ele>190.00</ele>
        <time>2013-08-11T07:53:02Z</time>
      </trkpt>
      <trkpt lat="41.615644240" lon="2.523484657">
        <ele>190.48</ele>
        <time>2013-08-11T07:53:09Z</time>
      </trkpt>
      <trkpt lat="41.615704673" lon="2.523112416">
        <ele>191.44</ele>
        <time>2013-08-11T07:53:18Z</time>
      </trkpt>
      <trkpt lat="41.615739626" lon="2.522797089">
        <ele>192.40</ele>
        <time>2013-08-11T07:53:26Z</time>
      </trkpt>
      <trkpt lat="41.615787067" lon="2.522467094">
        <ele>193.36</ele>
        <time>2013-08-11T07:53:35Z</time>
      </trkpt>
      <trkpt lat="41.615848926" lon="2.522059817">
        <ele>195.28</ele>
        <time>2013-08-11T07:53:46Z</time>
      </trkpt>
      <trkpt lat="41.615883375" lon="2.521775084">
        <ele>196.25</ele>
        <time>2013-08-11T07:53:54Z</time>
      </trkpt>
      <trkpt lat="41.615922016" lon="2.521441568">
        <ele>196.25</ele>
        <time>2013-08-11T07:54:02Z</time>
      </trkpt>
      <trkpt lat="41.615952694" lon="2.521208299">
        <ele>196.73</ele>
        <time>2013-08-11T07:54:08Z</time>
      </trkpt>
      <trkpt lat="41.616010110" lon="2.520937732">
        <ele>197.21</ele>
        <time>2013-08-11T07:54:15Z</time>
      </trkpt>
      <trkpt lat="41.616068867" lon="2.520685353">
        <ele>197.69</ele>
        <time>2013-08-11T07:54:23Z</time>
      </trkpt>
      <trkpt lat="41.616147405" lon="2.520420652">
        <ele>198.65</ele>
        <time>2013-08-11T07:54:30Z</time>
      </trkpt>
      <trkpt lat="41.616252934" lon="2.520105492">
        <ele>199.61</ele>
        <time>2013-08-11T07:54:39Z</time>
      </trkpt>
      <trkpt lat="41.616343877" lon="2.519809779">
        <ele>200.57</ele>
        <time>2013-08-11T07:54:47Z</time>
      </trkpt>
      <trkpt lat="41.616412441" lon="2.519553544">
        <ele>201.05</ele>
        <time>2013-08-11T07:54:54Z</time>
      </trkpt>
      <trkpt lat="41.616477652" lon="2.519239809">
        <ele>202.01</ele>
        <time>2013-08-11T07:55:02Z</time>
      </trkpt>
      <trkpt lat="41.616541271" lon="2.518930517">
        <ele>202.98</ele>
        <time>2013-08-11T07:55:10Z</time>
      </trkpt>
      <trkpt lat="41.616563986" lon="2.518618878">
        <ele>203.94</ele>
        <time>2013-08-11T07:55:18Z</time>
      </trkpt>
      <trkpt lat="41.616581504" lon="2.518309670">
        <ele>204.42</ele>
        <time>2013-08-11T07:55:26Z</time>
      </trkpt>
      <trkpt lat="41.616578487" lon="2.517988475">
        <ele>205.86</ele>
        <time>2013-08-11T07:55:34Z</time>
      </trkpt>
      <trkpt lat="41.616527944" lon="2.517737605">
        <ele>207.30</ele>
        <time>2013-08-11T07:55:42Z</time>
      </trkpt>
      <trkpt lat="41.616421577" lon="2.517484890">
        <ele>208.26</ele>
        <time>2013-08-11T07:55:50Z</time>
      </trkpt>
      <trkpt lat="41.616410094" lon="2.517178783">
        <ele>207.78</ele>
        <time>2013-08-11T07:55:58Z</time>
      </trkpt>
      <trkpt lat="41.616444125" lon="2.516940151">
        <ele>207.78</ele>
        <time>2013-08-11T07:56:04Z</time>
      </trkpt>
      <trkpt lat="41.616524004" lon="2.516692801">
        <ele>208.74</ele>
        <time>2013-08-11T07:56:11Z</time>
      </trkpt>
      <trkpt lat="41.616466840" lon="2.516398847">
        <ele>208.74</ele>
        <time>2013-08-11T07:56:18Z</time>
      </trkpt>
      <trkpt lat="41.616379249" lon="2.516121574">
        <ele>209.22</ele>
        <time>2013-08-11T07:56:26Z</time>
      </trkpt>
      <trkpt lat="41.616368352" lon="2.515789148">
        <ele>210.19</ele>
        <time>2013-08-11T07:56:35Z</time>
      </trkpt>
      <trkpt lat="41.616425601" lon="2.515506258">
        <ele>210.67</ele>
        <time>2013-08-11T07:56:43Z</time>
      </trkpt>
      <trkpt lat="41.616477988" lon="2.515315067">
        <ele>211.15</ele>
        <time>2013-08-11T07:56:49Z</time>
      </trkpt>
      <trkpt lat="41.616544289" lon="2.515081380">
        <ele>212.11</ele>
        <time>2013-08-11T07:56:56Z</time>
      </trkpt>
      <trkpt lat="41.616595753" lon="2.514948527">
        <ele>213.07</ele>
        <time>2013-08-11T07:57:01Z</time>
      </trkpt>
      <trkpt lat="41.616605560" lon="2.514918519">
        <ele>213.07</ele>
        <time>2013-08-11T07:57:02Z</time>
      </trkpt>
      <trkpt lat="41.616628946" lon="2.514789606">
        <ele>213.55</ele>
        <time>2013-08-11T07:57:07Z</time>
      </trkpt>
      <trkpt lat="41.616698599" lon="2.514728837">
        <ele>214.51</ele>
        <time>2013-08-11T07:57:12Z</time>
      </trkpt>
      <trkpt lat="41.616765319" lon="2.514665386">
        <ele>214.51</ele>
        <time>2013-08-11T07:57:20Z</time>
      </trkpt>
      <trkpt lat="41.616810414" lon="2.514657926">
        <ele>214.51</ele>
        <time>2013-08-11T07:57:28Z</time>
      </trkpt>
      <trkpt lat="41.616843020" lon="2.514673265">
        <ele>213.55</ele>
        <time>2013-08-11T07:57:32Z</time>
      </trkpt>
      <trkpt lat="41.616860705" lon="2.514665386">
        <ele>213.55</ele>
        <time>2013-08-11T07:57:40Z</time>
      </trkpt>
      <trkpt lat="41.616867495" lon="2.514640156">
        <ele>213.55</ele>
        <time>2013-08-11T07:57:45Z</time>
      </trkpt>
      <trkpt lat="41.616855006" lon="2.514435638">
        <ele>213.55</ele>
        <time>2013-08-11T07:57:53Z</time>
      </trkpt>
      <trkpt lat="41.616853162" lon="2.514391130">
        <ele>214.99</ele>
        <time>2013-08-11T07:57:55Z</time>
      </trkpt>
      <trkpt lat="41.616856095" lon="2.514232712">
        <ele>214.99</ele>
        <time>2013-08-11T07:58:03Z</time>
      </trkpt>
      <trkpt lat="41.616865902" lon="2.514056021">
        <ele>215.47</ele>
        <time>2013-08-11T07:58:10Z</time>
      </trkpt>
      <trkpt lat="41.616859783" lon="2.513819400">
        <ele>216.43</ele>
        <time>2013-08-11T07:58:18Z</time>
      </trkpt>
      <trkpt lat="41.616862214" lon="2.513619743">
        <ele>216.91</ele>
        <time>2013-08-11T07:58:25Z</time>
      </trkpt>
      <trkpt lat="41.616856934" lon="2.513346829">
        <ele>217.88</ele>
        <time>2013-08-11T07:58:34Z</time>
      </trkpt>
      <trkpt lat="41.616861627" lon="2.513017085">
        <ele>218.84</ele>
        <time>2013-08-11T07:58:44Z</time>
      </trkpt>
      <trkpt lat="41.616823154" lon="2.512755150">
        <ele>219.32</ele>
        <time>2013-08-11T07:58:52Z</time>
      </trkpt>
      <trkpt lat="41.616772695" lon="2.512501011">
        <ele>220.28</ele>
        <time>2013-08-11T07:59:00Z</time>
      </trkpt>
      <trkpt lat="41.616700695" lon="2.512295151">
        <ele>220.76</ele>
        <time>2013-08-11T07:59:07Z</time>
      </trkpt>
      <trkpt lat="41.616625928" lon="2.512118545">
        <ele>221.72</ele>
        <time>2013-08-11T07:59:14Z</time>
      </trkpt>
      <trkpt lat="41.616546384" lon="2.511966916">
        <ele>222.20</ele>
        <time>2013-08-11T07:59:20Z</time>
      </trkpt>
      <trkpt lat="41.616444712" lon="2.511763739">
        <ele>223.16</ele>
        <time>2013-08-11T07:59:28Z</time>
      </trkpt>
      <trkpt lat="41.616427529" lon="2.511735911">
        <ele>223.16</ele>
        <time>2013-08-11T07:59:29Z</time>
      </trkpt>
      <trkpt lat="41.616359048" lon="2.511536924">
        <ele>223.64</ele>
        <time>2013-08-11T07:59:35Z</time>
      </trkpt>
      <trkpt lat="41.616348068" lon="2.511362329">
        <ele>223.64</ele>
        <time>2013-08-11T07:59:41Z</time>
      </trkpt>
      <trkpt lat="41.616401209" lon="2.511101652">
        <ele>225.09</ele>
        <time>2013-08-11T07:59:49Z</time>
      </trkpt>
      <trkpt lat="41.616449405" lon="2.510872658">
        <ele>226.53</ele>
        <time>2013-08-11T07:59:56Z</time>
      </trkpt>
      <trkpt lat="41.616546719" lon="2.510698315">
        <ele>227.49</ele>
        <time>2013-08-11T08:00:03Z</time>
      </trkpt>
      <trkpt lat="41.616628610" lon="2.510591865">
        <ele>229.89</ele>
        <time>2013-08-11T08:00:09Z</time>
      </trkpt>
      <trkpt lat="41.616730283" lon="2.510393297">
        <ele>232.30</ele>
        <time>2013-08-11T08:00:16Z</time>
      </trkpt>
      <trkpt lat="41.616768924" lon="2.510202861">
        <ele>233.74</ele>
        <time>2013-08-11T08:00:23Z</time>
      </trkpt>
      <trkpt lat="41.616770348" lon="2.509979399">
        <ele>235.66</ele>
        <time>2013-08-11T08:00:32Z</time>
      </trkpt>
      <trkpt lat="41.616843522" lon="2.509742024">
        <ele>237.10</ele>
        <time>2013-08-11T08:00:41Z</time>
      </trkpt>
      <trkpt lat="41.616911248" lon="2.509576816">
        <ele>237.58</ele>
        <time>2013-08-11T08:00:47Z</time>
      </trkpt>
      <trkpt lat="41.616852072" lon="2.509535493">
        <ele>238.06</ele>
        <time>2013-08-11T08:00:52Z</time>
      </trkpt>
      <trkpt lat="41.616729696" lon="2.509720314">
        <ele>239.99</ele>
        <time>2013-08-11T08:01:02Z</time>
      </trkpt>
      <trkpt lat="41.616628024" lon="2.509843109">
        <ele>240.95</ele>
        <time>2013-08-11T08:01:08Z</time>
      </trkpt>
      <trkpt lat="41.616448986" lon="2.509806229">
        <ele>242.39</ele>
        <time>2013-08-11T08:01:16Z</time>
      </trkpt>
      <trkpt lat="41.616382602" lon="2.509718722">
        <ele>243.35</ele>
        <time>2013-08-11T08:01:21Z</time>
      </trkpt>
      <trkpt lat="41.616337507" lon="2.509500206">
        <ele>246.72</ele>
        <time>2013-08-11T08:01:31Z</time>
      </trkpt>
      <trkpt lat="41.616336753" lon="2.509478161">
        <ele>246.72</ele>
        <time>2013-08-11T08:01:32Z</time>
      </trkpt>
      <trkpt lat="41.616328874" lon="2.509439688">
        <ele>247.20</ele>
        <time>2013-08-11T08:01:34Z</time>
      </trkpt>
      <trkpt lat="41.616317893" lon="2.509236930">
        <ele>249.12</ele>
        <time>2013-08-11T08:01:44Z</time>
      </trkpt>
      <trkpt lat="41.616298280" lon="2.509161661">
        <ele>250.08</ele>
        <time>2013-08-11T08:01:48Z</time>
      </trkpt>
      <trkpt lat="41.616288892" lon="2.509085804">
        <ele>251.04</ele>
        <time>2013-08-11T08:01:52Z</time>
      </trkpt>
      <trkpt lat="41.616265339" lon="2.508933505">
        <ele>252.96</ele>
        <time>2013-08-11T08:02:00Z</time>
      </trkpt>
      <trkpt lat="41.616223178" lon="2.508757234">
        <ele>254.89</ele>
        <time>2013-08-11T08:02:11Z</time>
      </trkpt>
      <trkpt lat="41.616199206" lon="2.508692945">
        <ele>256.33</ele>
        <time>2013-08-11T08:02:15Z</time>
      </trkpt>
      <trkpt lat="41.616160146" lon="2.508485325">
        <ele>258.25</ele>
        <time>2013-08-11T08:02:27Z</time>
      </trkpt>
      <trkpt lat="41.616111196" lon="2.508302851">
        <ele>259.69</ele>
        <time>2013-08-11T08:02:37Z</time>
      </trkpt>
      <trkpt lat="41.616106334" lon="2.508284746">
        <ele>259.69</ele>
        <time>2013-08-11T08:02:38Z</time>
      </trkpt>
      <trkpt lat="41.616091582" lon="2.508192629">
        <ele>260.65</ele>
        <time>2013-08-11T08:02:43Z</time>
      </trkpt>
      <trkpt lat="41.616056462" lon="2.508086346">
        <ele>262.58</ele>
        <time>2013-08-11T08:02:49Z</time>
      </trkpt>
      <trkpt lat="41.616004913" lon="2.507911835">
        <ele>263.54</ele>
        <time>2013-08-11T08:02:58Z</time>
      </trkpt>
      <trkpt lat="41.615932410" lon="2.507743694">
        <ele>264.98</ele>
        <time>2013-08-11T08:03:06Z</time>
      </trkpt>
      <trkpt lat="41.615861750" lon="2.507562645">
        <ele>268.35</ele>
        <time>2013-08-11T08:03:16Z</time>
      </trkpt>
      <trkpt lat="41.615803161" lon="2.507370867">
        <ele>268.83</ele>
        <time>2013-08-11T08:03:25Z</time>
      </trkpt>
      <trkpt lat="41.615764185" lon="2.507214796">
        <ele>269.79</ele>
        <time>2013-08-11T08:03:33Z</time>
      </trkpt>
      <trkpt lat="41.615730406" lon="2.507107927">
        <ele>271.23</ele>
        <time>2013-08-11T08:03:39Z</time>
      </trkpt>
      <trkpt lat="41.615708697" lon="2.507041207">
        <ele>272.19</ele>
        <time>2013-08-11T08:03:43Z</time>
      </trkpt>
      <trkpt lat="41.615708529" lon="2.506835766">
        <ele>274.11</ele>
        <time>2013-08-11T08:03:53Z</time>
      </trkpt>
      <trkpt lat="41.615737027" lon="2.506644743">
        <ele>276.52</ele>
        <time>2013-08-11T08:04:03Z</time>
      </trkpt>
      <trkpt lat="41.615767035" lon="2.506456569">
        <ele>279.40</ele>
        <time>2013-08-11T08:04:13Z</time>
      </trkpt>
      <trkpt lat="41.615821601" lon="2.506267557">
        <ele>281.80</ele>
        <time>2013-08-11T08:04:24Z</time>
      </trkpt>
      <trkpt lat="41.615887902" lon="2.506077036">
        <ele>284.21</ele>
        <time>2013-08-11T08:04:35Z</time>
      </trkpt>
      <trkpt lat="41.615945569" lon="2.505899424">
        <ele>286.13</ele>
        <time>2013-08-11T08:04:45Z</time>
      </trkpt>
      <trkpt lat="41.615993681" lon="2.505755087">
        <ele>288.05</ele>
        <time>2013-08-11T08:04:54Z</time>
      </trkpt>
      <trkpt lat="41.616044308" lon="2.505581247">
        <ele>289.97</ele>
        <time>2013-08-11T08:05:04Z</time>
      </trkpt>
      <trkpt lat="41.616081943" lon="2.505438838">
        <ele>291.42</ele>
        <time>2013-08-11T08:05:12Z</time>
      </trkpt>
      <trkpt lat="41.616130725" lon="2.505243205">
        <ele>293.82</ele>
        <time>2013-08-11T08:05:23Z</time>
      </trkpt>
      <trkpt lat="41.616141370" lon="2.505074225">
        <ele>296.22</ele>
        <time>2013-08-11T08:05:32Z</time>
      </trkpt>
      <trkpt lat="41.616094935" lon="2.504910778">
        <ele>297.18</ele>
        <time>2013-08-11T08:05:40Z</time>
      </trkpt>
      <trkpt lat="41.615977001" lon="2.504866187">
        <ele>298.15</ele>
        <time>2013-08-11T08:05:48Z</time>
      </trkpt>
      <trkpt lat="41.615831827" lon="2.504852692">
        <ele>299.11</ele>
        <time>2013-08-11T08:05:57Z</time>
      </trkpt>
      <trkpt lat="41.615698555" lon="2.504852776">
        <ele>300.07</ele>
        <time>2013-08-11T08:06:05Z</time>
      </trkpt>
      <trkpt lat="41.615525049" lon="2.504861241">
        <ele>301.99</ele>
        <time>2013-08-11T08:06:16Z</time>
      </trkpt>
      <trkpt lat="41.615411307" lon="2.504816733">
        <ele>303.43</ele>
        <time>2013-08-11T08:06:25Z</time>
      </trkpt>
      <trkpt lat="41.615360093" lon="2.504633589">
        <ele>305.84</ele>
        <time>2013-08-11T08:06:34Z</time>
      </trkpt>
      <trkpt lat="41.615349364" lon="2.504418677">
        <ele>308.24</ele>
        <time>2013-08-11T08:06:45Z</time>
      </trkpt>
      <trkpt lat="41.615358836" lon="2.504244501">
        <ele>310.16</ele>
        <time>2013-08-11T08:06:55Z</time>
      </trkpt>
      <trkpt lat="41.615396387" lon="2.504093627">
        <ele>312.09</ele>
        <time>2013-08-11T08:07:04Z</time>
      </trkpt>
      <trkpt lat="41.615416252" lon="2.503938645">
        <ele>314.49</ele>
        <time>2013-08-11T08:07:13Z</time>
      </trkpt>
      <trkpt lat="41.615428406" lon="2.503772181">
        <ele>316.89</ele>
        <time>2013-08-11T08:07:23Z</time>
      </trkpt>
      <trkpt lat="41.615416084" lon="2.503570512">
        <ele>318.33</ele>
        <time>2013-08-11T08:07:33Z</time>
      </trkpt>
      <trkpt lat="41.615403344" lon="2.503405891">
        <ele>319.78</ele>
        <time>2013-08-11T08:07:41Z</time>
      </trkpt>
      <trkpt lat="41.615355735" lon="2.503176060">
        <ele>319.78</ele>
        <time>2013-08-11T08:07:50Z</time>
      </trkpt>
      <trkpt lat="41.615275520" lon="2.503008254">
        <ele>319.78</ele>
        <time>2013-08-11T08:07:57Z</time>
      </trkpt>
      <trkpt lat="41.615186756" lon="2.502832402">
        <ele>319.78</ele>
        <time>2013-08-11T08:08:04Z</time>
      </trkpt>
      <trkpt lat="41.615105619" lon="2.502530066">
        <ele>319.78</ele>
        <time>2013-08-11T08:08:13Z</time>
      </trkpt>
      <trkpt lat="41.615028757" lon="2.502244998">
        <ele>321.22</ele>
        <time>2013-08-11T08:08:23Z</time>
      </trkpt>
      <trkpt lat="41.614977376" lon="2.502073253">
        <ele>322.66</ele>
        <time>2013-08-11T08:08:30Z</time>
      </trkpt>
      <trkpt lat="41.614932532" lon="2.501789861">
        <ele>324.10</ele>
        <time>2013-08-11T08:08:41Z</time>
      </trkpt>
      <trkpt lat="41.614940998" lon="2.501589198">
        <ele>324.10</ele>
        <time>2013-08-11T08:08:47Z</time>
      </trkpt>
      <trkpt lat="41.614942507" lon="2.501525244">
        <ele>324.10</ele>
        <time>2013-08-11T08:08:49Z</time>
      </trkpt>
      <trkpt lat="41.614815521" lon="2.501449639">
        <ele>324.10</ele>
        <time>2013-08-11T08:08:55Z</time>
      </trkpt>
      <trkpt lat="41.614651571" lon="2.501388284">
        <ele>324.58</ele>
        <time>2013-08-11T08:09:03Z</time>
      </trkpt>
      <trkpt lat="41.614535230" lon="2.501297927">
        <ele>325.54</ele>
        <time>2013-08-11T08:09:10Z</time>
      </trkpt>
      <trkpt lat="41.614419308" lon="2.501218969">
        <ele>326.99</ele>
        <time>2013-08-11T08:09:17Z</time>
      </trkpt>
      <trkpt lat="41.614386368" lon="2.501201954">
        <ele>327.47</ele>
        <time>2013-08-11T08:09:19Z</time>
      </trkpt>
      <trkpt lat="41.614326186" lon="2.501119811">
        <ele>327.95</ele>
        <time>2013-08-11T08:09:24Z</time>
      </trkpt>
      <trkpt lat="41.614258460" lon="2.500902888">
        <ele>329.39</ele>
        <time>2013-08-11T08:09:33Z</time>
      </trkpt>
      <trkpt lat="41.614197607" lon="2.500721168">
        <ele>331.79</ele>
        <time>2013-08-11T08:09:42Z</time>
      </trkpt>
      <trkpt lat="41.614143879" lon="2.500608515">
        <ele>333.71</ele>
        <time>2013-08-11T08:09:49Z</time>
      </trkpt>
      <trkpt lat="41.614072884" lon="2.500509692">
        <ele>336.12</ele>
        <time>2013-08-11T08:09:56Z</time>
      </trkpt>
      <trkpt lat="41.614033406" lon="2.500435932">
        <ele>337.56</ele>
        <time>2013-08-11T08:10:01Z</time>
      </trkpt>
      <trkpt lat="41.613933493" lon="2.500290757">
        <ele>340.44</ele>
        <time>2013-08-11T08:10:11Z</time>
      </trkpt>
      <trkpt lat="41.613849590" lon="2.500148432">
        <ele>342.37</ele>
        <time>2013-08-11T08:10:21Z</time>
      </trkpt>
      <trkpt lat="41.613832911" lon="2.500060842">
        <ele>343.81</ele>
        <time>2013-08-11T08:10:26Z</time>
      </trkpt>
      <trkpt lat="41.613895691" lon="2.500033265">
        <ele>345.25</ele>
        <time>2013-08-11T08:10:33Z</time>
      </trkpt>
      <trkpt lat="41.613903905" lon="2.500043240">
        <ele>345.25</ele>
        <time>2013-08-11T08:10:34Z</time>
      </trkpt>
      <trkpt lat="41.613981689" lon="2.500147510">
        <ele>347.65</ele>
        <time>2013-08-11T08:10:44Z</time>
      </trkpt>
      <trkpt lat="41.614082943" lon="2.500233257">
        <ele>349.10</ele>
        <time>2013-08-11T08:10:53Z</time>
      </trkpt>
      <trkpt lat="41.614167181" lon="2.500269886">
        <ele>350.54</ele>
        <time>2013-08-11T08:11:00Z</time>
      </trkpt>
      <trkpt lat="41.614281929" lon="2.500315484">
        <ele>352.46</ele>
        <time>2013-08-11T08:11:09Z</time>
      </trkpt>
      <trkpt lat="41.614417381" lon="2.500399722">
        <ele>354.38</ele>
        <time>2013-08-11T08:11:19Z</time>
      </trkpt>
      <trkpt lat="41.614497093" lon="2.500458898">
        <ele>355.83</ele>
        <time>2013-08-11T08:11:26Z</time>
      </trkpt>
      <trkpt lat="41.614579906" lon="2.500551351">
        <ele>357.75</ele>
        <time>2013-08-11T08:11:35Z</time>
      </trkpt>
      <trkpt lat="41.614638160" lon="2.500585213">
        <ele>358.71</ele>
        <time>2013-08-11T08:11:40Z</time>
      </trkpt>
      <trkpt lat="41.614755423" lon="2.500538275">
        <ele>359.67</ele>
        <time>2013-08-11T08:11:49Z</time>
      </trkpt>
      <trkpt lat="41.614879978" lon="2.500489995">
        <ele>360.15</ele>
        <time>2013-08-11T08:11:56Z</time>
      </trkpt>
      <trkpt lat="41.615075276" lon="2.500592757">
        <ele>360.63</ele>
        <time>2013-08-11T08:12:05Z</time>
      </trkpt>
      <trkpt lat="41.615191198" lon="2.500591500">
        <ele>361.11</ele>
        <time>2013-08-11T08:12:12Z</time>
      </trkpt>
      <trkpt lat="41.615335199" lon="2.500481278">
        <ele>362.55</ele>
        <time>2013-08-11T08:12:22Z</time>
      </trkpt>
      <trkpt lat="41.615378198" lon="2.500446828">
        <ele>363.04</ele>
        <time>2013-08-11T08:12:25Z</time>
      </trkpt>
      <trkpt lat="41.615515326" lon="2.500409948">
        <ele>364.48</ele>
        <time>2013-08-11T08:12:33Z</time>
      </trkpt>
      <trkpt lat="41.615601492" lon="2.500429478">
        <ele>364.96</ele>
        <time>2013-08-11T08:12:39Z</time>
      </trkpt>
      <trkpt lat="41.615722862" lon="2.500421766">
        <ele>366.40</ele>
        <time>2013-08-11T08:12:47Z</time>
      </trkpt>
      <trkpt lat="41.615754294" lon="2.500315065">
        <ele>368.32</ele>
        <time>2013-08-11T08:12:53Z</time>
      </trkpt>
      <trkpt lat="41.615676342" lon="2.500257481">
        <ele>370.24</ele>
        <time>2013-08-11T08:13:01Z</time>
      </trkpt>
      <trkpt lat="41.615663853" lon="2.500256559">
        <ele>370.24</ele>
        <time>2013-08-11T08:13:02Z</time>
      </trkpt>
      <trkpt lat="41.615553548" lon="2.500265444">
        <ele>372.17</ele>
        <time>2013-08-11T08:13:11Z</time>
      </trkpt>
      <trkpt lat="41.615394711" lon="2.500242729">
        <ele>374.09</ele>
        <time>2013-08-11T08:13:22Z</time>
      </trkpt>
      <trkpt lat="41.615260600" lon="2.500240130">
        <ele>376.49</ele>
        <time>2013-08-11T08:13:32Z</time>
      </trkpt>
      <trkpt lat="41.615180888" lon="2.500153545">
        <ele>377.94</ele>
        <time>2013-08-11T08:13:40Z</time>
      </trkpt>
      <trkpt lat="41.615104697" lon="2.500005772">
        <ele>378.90</ele>
        <time>2013-08-11T08:13:50Z</time>
      </trkpt>
      <trkpt lat="41.614978884" lon="2.499982806">
        <ele>380.82</ele>
        <time>2013-08-11T08:14:00Z</time>
      </trkpt>
      <trkpt lat="41.614859861" lon="2.500010383">
        <ele>382.74</ele>
        <time>2013-08-11T08:14:09Z</time>
      </trkpt>
      <trkpt lat="41.614819209" lon="2.500007533">
        <ele>383.22</ele>
        <time>2013-08-11T08:14:12Z</time>
      </trkpt>
      <trkpt lat="41.614732456" lon="2.499923043">
        <ele>385.63</ele>
        <time>2013-08-11T08:14:21Z</time>
      </trkpt>
      <trkpt lat="41.614663306" lon="2.499792118">
        <ele>388.03</ele>
        <time>2013-08-11T08:14:31Z</time>
      </trkpt>
      <trkpt lat="41.614610332" lon="2.499654235">
        <ele>389.95</ele>
        <time>2013-08-11T08:14:40Z</time>
      </trkpt>
      <trkpt lat="41.614576888" lon="2.499579972">
        <ele>391.39</ele>
        <time>2013-08-11T08:14:45Z</time>
      </trkpt>
      <trkpt lat="41.614556520" lon="2.499365730">
        <ele>393.80</ele>
        <time>2013-08-11T08:14:57Z</time>
      </trkpt>
      <trkpt lat="41.614566076" lon="2.499282666">
        <ele>395.24</ele>
        <time>2013-08-11T08:15:02Z</time>
      </trkpt>
      <trkpt lat="41.614624749" lon="2.499077393">
        <ele>396.20</ele>
        <time>2013-08-11T08:15:13Z</time>
      </trkpt>
      <trkpt lat="41.614649811" lon="2.498889638">
        <ele>397.64</ele>
        <time>2013-08-11T08:15:22Z</time>
      </trkpt>
      <trkpt lat="41.614654924" lon="2.498697693">
        <ele>399.57</ele>
        <time>2013-08-11T08:15:32Z</time>
      </trkpt>
      <trkpt lat="41.614673951" lon="2.498526786">
        <ele>400.53</ele>
        <time>2013-08-11T08:15:41Z</time>
      </trkpt>
      <trkpt lat="41.614698174" lon="2.498344731">
        <ele>401.97</ele>
        <time>2013-08-11T08:15:50Z</time>
      </trkpt>
      <trkpt lat="41.614709406" lon="2.498150438">
        <ele>403.41</ele>
        <time>2013-08-11T08:16:00Z</time>
      </trkpt>
      <trkpt lat="41.614710412" lon="2.498055471">
        <ele>404.85</ele>
        <time>2013-08-11T08:16:05Z</time>
      </trkpt>
      <trkpt lat="41.614663557" lon="2.497866124">
        <ele>405.33</ele>
        <time>2013-08-11T08:16:14Z</time>
      </trkpt>
      <trkpt lat="41.614598011" lon="2.497659594">
        <ele>403.41</ele>
        <time>2013-08-11T08:16:19Z</time>
      </trkpt>
      <trkpt lat="41.614585522" lon="2.497611230">
        <ele>403.41</ele>
        <time>2013-08-11T08:16:20Z</time>
      </trkpt>
      <trkpt lat="41.614567500" lon="2.497563873">
        <ele>402.45</ele>
        <time>2013-08-11T08:16:21Z</time>
      </trkpt>
      <trkpt lat="41.614498853" lon="2.497490280">
        <ele>401.97</ele>
        <time>2013-08-11T08:16:23Z</time>
      </trkpt>
      <trkpt lat="41.614324928" lon="2.497521879">
        <ele>401.01</ele>
        <time>2013-08-11T08:16:26Z</time>
      </trkpt>
      <trkpt lat="41.614221160" lon="2.497628749">
        <ele>401.01</ele>
        <time>2013-08-11T08:16:30Z</time>
      </trkpt>
      <trkpt lat="41.614189812" lon="2.497659091">
        <ele>401.97</ele>
        <time>2013-08-11T08:16:32Z</time>
      </trkpt>
      <trkpt lat="41.614042458" lon="2.497769648">
        <ele>404.85</ele>
        <time>2013-08-11T08:16:42Z</time>
      </trkpt>
      <trkpt lat="41.613895020" lon="2.497824047">
        <ele>406.29</ele>
        <time>2013-08-11T08:16:51Z</time>
      </trkpt>
      <trkpt lat="41.613828133" lon="2.497818431">
        <ele>407.26</ele>
        <time>2013-08-11T08:16:55Z</time>
      </trkpt>
      <trkpt lat="41.613732328" lon="2.497746011">
        <ele>407.74</ele>
        <time>2013-08-11T08:17:02Z</time>
      </trkpt>
      <trkpt lat="41.613647587" lon="2.497589102">
        <ele>409.18</ele>
        <time>2013-08-11T08:17:10Z</time>
      </trkpt>
      <trkpt lat="41.613565360" lon="2.497442084">
        <ele>410.14</ele>
        <time>2013-08-11T08:17:18Z</time>
      </trkpt>
      <trkpt lat="41.613441057" lon="2.497364216">
        <ele>411.10</ele>
        <time>2013-08-11T08:17:26Z</time>
      </trkpt>
      <trkpt lat="41.613314574" lon="2.497384248">
        <ele>411.58</ele>
        <time>2013-08-11T08:17:33Z</time>
      </trkpt>
      <trkpt lat="41.613168728" lon="2.497416267">
        <ele>413.02</ele>
        <time>2013-08-11T08:17:42Z</time>
      </trkpt>
      <trkpt lat="41.613055908" lon="2.497339405">
        <ele>413.98</ele>
        <time>2013-08-11T08:17:50Z</time>
      </trkpt>
      <trkpt lat="41.612972843" lon="2.497163385">
        <ele>415.43</ele>
        <time>2013-08-11T08:17:59Z</time>
      </trkpt>
      <trkpt lat="41.612920373" lon="2.497022988">
        <ele>416.87</ele>
        <time>2013-08-11T08:18:06Z</time>
      </trkpt>
      <trkpt lat="41.612853569" lon="2.496873455">
        <ele>417.83</ele>
        <time>2013-08-11T08:18:13Z</time>
      </trkpt>
      <trkpt lat="41.612804283" lon="2.496717468">
        <ele>419.27</ele>
        <time>2013-08-11T08:18:21Z</time>
      </trkpt>
      <trkpt lat="41.612759524" lon="2.496534910">
        <ele>420.71</ele>
        <time>2013-08-11T08:18:29Z</time>
      </trkpt>
      <trkpt lat="41.612693642" lon="2.496389903">
        <ele>421.68</ele>
        <time>2013-08-11T08:18:37Z</time>
      </trkpt>
      <trkpt lat="41.612626000" lon="2.496219248">
        <ele>423.12</ele>
        <time>2013-08-11T08:18:46Z</time>
      </trkpt>
      <trkpt lat="41.612578643" lon="2.495996289">
        <ele>424.56</ele>
        <time>2013-08-11T08:18:55Z</time>
      </trkpt>
      <trkpt lat="41.612571099" lon="2.495867795">
        <ele>426.00</ele>
        <time>2013-08-11T08:19:01Z</time>
      </trkpt>
      <trkpt lat="41.612541259" lon="2.495816833">
        <ele>426.48</ele>
        <time>2013-08-11T08:19:09Z</time>
      </trkpt>
      <trkpt lat="41.612533716" lon="2.495788166">
        <ele>426.48</ele>
        <time>2013-08-11T08:19:17Z</time>
      </trkpt>
      <trkpt lat="41.612541259" lon="2.495770145">
        <ele>426.48</ele>
        <time>2013-08-11T08:19:31Z</time>
      </trkpt>
      <trkpt lat="41.612529022" lon="2.495762853">
        <ele>426.48</ele>
        <time>2013-08-11T08:19:45Z</time>
      </trkpt>
      <trkpt lat="41.612509659" lon="2.495777438">
        <ele>426.48</ele>
        <time>2013-08-11T08:20:02Z</time>
      </trkpt>
      <trkpt lat="41.612508486" lon="2.495778946">
        <ele>426.48</ele>
        <time>2013-08-11T08:20:18Z</time>
      </trkpt>
      <trkpt lat="41.612509408" lon="2.495784059">
        <ele>426.48</ele>
        <time>2013-08-11T08:20:30Z</time>
      </trkpt>
      <trkpt lat="41.612507145" lon="2.495792525">
        <ele>426.96</ele>
        <time>2013-08-11T08:20:45Z</time>
      </trkpt>
      <trkpt lat="41.612529608" lon="2.495790513">
        <ele>426.96</ele>
        <time>2013-08-11T08:21:03Z</time>
      </trkpt>
      <trkpt lat="41.612573530" lon="2.495782467">
        <ele>426.96</ele>
        <time>2013-08-11T08:21:12Z</time>
      </trkpt>
      <trkpt lat="41.612592976" lon="2.495790765">
        <ele>426.96</ele>
        <time>2013-08-11T08:21:14Z</time>
      </trkpt>
      <trkpt lat="41.612665563" lon="2.495805098">
        <ele>426.96</ele>
        <time>2013-08-11T08:21:19Z</time>
      </trkpt>
      <trkpt lat="41.612868237" lon="2.495832758">
        <ele>428.40</ele>
        <time>2013-08-11T08:21:30Z</time>
      </trkpt>
      <trkpt lat="41.613010227" lon="2.495867208">
        <ele>429.37</ele>
        <time>2013-08-11T08:21:38Z</time>
      </trkpt>
      <trkpt lat="41.613182391" lon="2.495946081">
        <ele>430.81</ele>
        <time>2013-08-11T08:21:47Z</time>
      </trkpt>
      <trkpt lat="41.613328739" lon="2.495962091">
        <ele>431.77</ele>
        <time>2013-08-11T08:21:55Z</time>
      </trkpt>
      <trkpt lat="41.613478440" lon="2.495936945">
        <ele>432.25</ele>
        <time>2013-08-11T08:22:03Z</time>
      </trkpt>
      <trkpt lat="41.613494701" lon="2.495934347">
        <ele>432.73</ele>
        <time>2013-08-11T08:22:04Z</time>
      </trkpt>
      <trkpt lat="41.613635349" lon="2.495871566">
        <ele>433.21</ele>
        <time>2013-08-11T08:22:12Z</time>
      </trkpt>
      <trkpt lat="41.613860990" lon="2.495791435">
        <ele>434.65</ele>
        <time>2013-08-11T08:22:24Z</time>
      </trkpt>
      <trkpt lat="41.614056623" lon="2.495724799">
        <ele>435.13</ele>
        <time>2013-08-11T08:22:34Z</time>
      </trkpt>
      <trkpt lat="41.614191991" lon="2.495697139">
        <ele>436.10</ele>
        <time>2013-08-11T08:22:41Z</time>
      </trkpt>
      <trkpt lat="41.614338255" lon="2.495667299">
        <ele>437.54</ele>
        <time>2013-08-11T08:22:49Z</time>
      </trkpt>
      <trkpt lat="41.614483849" lon="2.495649194">
        <ele>439.46</ele>
        <time>2013-08-11T08:22:58Z</time>
      </trkpt>
      <trkpt lat="41.614632963" lon="2.495601585">
        <ele>441.38</ele>
        <time>2013-08-11T08:23:07Z</time>
      </trkpt>
      <trkpt lat="41.614748047" lon="2.495536709">
        <ele>442.34</ele>
        <time>2013-08-11T08:23:15Z</time>
      </trkpt>
      <trkpt lat="41.614883917" lon="2.495465128">
        <ele>445.23</ele>
        <time>2013-08-11T08:23:24Z</time>
      </trkpt>
      <trkpt lat="41.615056668" lon="2.495446855">
        <ele>446.19</ele>
        <time>2013-08-11T08:23:33Z</time>
      </trkpt>
      <trkpt lat="41.615134872" lon="2.495521790">
        <ele>447.15</ele>
        <time>2013-08-11T08:23:39Z</time>
      </trkpt>
      <trkpt lat="41.615256493" lon="2.495660762">
        <ele>450.03</ele>
        <time>2013-08-11T08:23:50Z</time>
      </trkpt>
      <trkpt lat="41.615357495" lon="2.495798811">
        <ele>451.96</ele>
        <time>2013-08-11T08:23:59Z</time>
      </trkpt>
      <trkpt lat="41.615434273" lon="2.495941136">
        <ele>453.88</ele>
        <time>2013-08-11T08:24:08Z</time>
      </trkpt>
      <trkpt lat="41.615466124" lon="2.496084970">
        <ele>454.84</ele>
        <time>2013-08-11T08:24:16Z</time>
      </trkpt>
      <trkpt lat="41.615517673" lon="2.496268449">
        <ele>455.80</ele>
        <time>2013-08-11T08:24:25Z</time>
      </trkpt>
      <trkpt lat="41.615569976" lon="2.496424688">
        <ele>456.28</ele>
        <time>2013-08-11T08:24:33Z</time>
      </trkpt>
      <trkpt lat="41.615578023" lon="2.496445308">
        <ele>457.24</ele>
        <time>2013-08-11T08:24:34Z</time>
      </trkpt>
      <trkpt lat="41.615681372" lon="2.496617723">
        <ele>459.65</ele>
        <time>2013-08-11T08:24:45Z</time>
      </trkpt>
      <trkpt lat="41.615767705" lon="2.496755773">
        <ele>461.09</ele>
        <time>2013-08-11T08:24:54Z</time>
      </trkpt>
      <trkpt lat="41.615837107" lon="2.496811764">
        <ele>462.05</ele>
        <time>2013-08-11T08:24:59Z</time>
      </trkpt>
      <trkpt lat="41.615991251" lon="2.496792654">
        <ele>463.01</ele>
        <time>2013-08-11T08:25:09Z</time>
      </trkpt>
      <trkpt lat="41.616123349" lon="2.496698693">
        <ele>464.93</ele>
        <time>2013-08-11T08:25:18Z</time>
      </trkpt>
      <trkpt lat="41.616234661" lon="2.496555613">
        <ele>466.38</ele>
        <time>2013-08-11T08:25:27Z</time>
      </trkpt>
      <trkpt lat="41.616317474" lon="2.496345814">
        <ele>468.78</ele>
        <time>2013-08-11T08:25:38Z</time>
      </trkpt>
      <trkpt lat="41.616350750" lon="2.496184714">
        <ele>469.74</ele>
        <time>2013-08-11T08:25:46Z</time>
      </trkpt>
      <trkpt lat="41.616361144" lon="2.496012969">
        <ele>471.18</ele>
        <time>2013-08-11T08:25:54Z</time>
      </trkpt>
      <trkpt lat="41.616359635" lon="2.495837368">
        <ele>472.14</ele>
        <time>2013-08-11T08:26:03Z</time>
      </trkpt>
      <trkpt lat="41.616361898" lon="2.495689847">
        <ele>474.07</ele>
        <time>2013-08-11T08:26:11Z</time>
      </trkpt>
      <trkpt lat="41.616389475" lon="2.495523214">
        <ele>476.47</ele>
        <time>2013-08-11T08:26:20Z</time>
      </trkpt>
      <trkpt lat="41.616520065" lon="2.495437049">
        <ele>476.95</ele>
        <time>2013-08-11T08:26:29Z</time>
      </trkpt>
      <trkpt lat="41.616676806" lon="2.495492369">
        <ele>477.43</ele>
        <time>2013-08-11T08:26:37Z</time>
      </trkpt>
      <trkpt lat="41.616895742" lon="2.495567555">
        <ele>477.43</ele>
        <time>2013-08-11T08:26:47Z</time>
      </trkpt>
      <trkpt lat="41.617023482" lon="2.495614912">
        <ele>477.43</ele>
        <time>2013-08-11T08:26:53Z</time>
      </trkpt>
      <trkpt lat="41.617198496" lon="2.495672329">
        <ele>478.39</ele>
        <time>2013-08-11T08:27:01Z</time>
      </trkpt>
      <trkpt lat="41.617338390" lon="2.495679286">
        <ele>479.35</ele>
        <time>2013-08-11T08:27:08Z</time>
      </trkpt>
      <trkpt lat="41.617512817" lon="2.495678950">
        <ele>480.32</ele>
        <time>2013-08-11T08:27:17Z</time>
      </trkpt>
      <trkpt lat="41.617670733" lon="2.495670987">
        <ele>481.28</ele>
        <time>2013-08-11T08:27:26Z</time>
      </trkpt>
      <trkpt lat="41.617778943" lon="2.495693451">
        <ele>482.24</ele>
        <time>2013-08-11T08:27:33Z</time>
      </trkpt>
      <trkpt lat="41.617927135" lon="2.495740222">
        <ele>483.68</ele>
        <time>2013-08-11T08:27:43Z</time>
      </trkpt>
      <trkpt lat="41.618086559" lon="2.495762937">
        <ele>485.60</ele>
        <time>2013-08-11T08:27:53Z</time>
      </trkpt>
      <trkpt lat="41.618262243" lon="2.495758243">
        <ele>487.05</ele>
        <time>2013-08-11T08:28:02Z</time>
      </trkpt>
      <trkpt lat="41.618428959" lon="2.495703174">
        <ele>488.49</ele>
        <time>2013-08-11T08:28:10Z</time>
      </trkpt>
      <trkpt lat="41.618573296" lon="2.495579457">
        <ele>490.41</ele>
        <time>2013-08-11T08:28:19Z</time>
      </trkpt>
      <trkpt lat="41.618700701" lon="2.495444257">
        <ele>490.89</ele>
        <time>2013-08-11T08:28:27Z</time>
      </trkpt>
      <trkpt lat="41.618840259" lon="2.495277541">
        <ele>491.37</ele>
        <time>2013-08-11T08:28:36Z</time>
      </trkpt>
      <trkpt lat="41.618947045" lon="2.495169498">
        <ele>492.33</ele>
        <time>2013-08-11T08:28:43Z</time>
      </trkpt>
      <trkpt lat="41.619086352" lon="2.495104874">
        <ele>492.81</ele>
        <time>2013-08-11T08:28:51Z</time>
      </trkpt>
      <trkpt lat="41.619268659" lon="2.495130941">
        <ele>493.29</ele>
        <time>2013-08-11T08:28:59Z</time>
      </trkpt>
      <trkpt lat="41.619431016" lon="2.495208474">
        <ele>493.77</ele>
        <time>2013-08-11T08:29:07Z</time>
      </trkpt>
      <trkpt lat="41.619594966" lon="2.495311069">
        <ele>494.74</ele>
        <time>2013-08-11T08:29:16Z</time>
      </trkpt>
      <trkpt lat="41.619759922" lon="2.495376447">
        <ele>496.18</ele>
        <time>2013-08-11T08:29:24Z</time>
      </trkpt>
      <trkpt lat="41.619927308" lon="2.495301429">
        <ele>497.14</ele>
        <time>2013-08-11T08:29:32Z</time>
      </trkpt>
      <trkpt lat="41.620066448" lon="2.495184753">
        <ele>497.62</ele>
        <time>2013-08-11T08:29:40Z</time>
      </trkpt>
      <trkpt lat="41.620220591" lon="2.495036813">
        <ele>499.06</ele>
        <time>2013-08-11T08:29:49Z</time>
      </trkpt>
      <trkpt lat="41.620350595" lon="2.494840760">
        <ele>500.98</ele>
        <time>2013-08-11T08:29:59Z</time>
      </trkpt>
      <trkpt lat="41.620417817" lon="2.494816704">
        <ele>501.95</ele>
        <time>2013-08-11T08:30:03Z</time>
      </trkpt>
      <trkpt lat="41.620482526" lon="2.494862804">
        <ele>502.91</ele>
        <time>2013-08-11T08:30:08Z</time>
      </trkpt>
      <trkpt lat="41.620578666" lon="2.494956682">
        <ele>504.35</ele>
        <time>2013-08-11T08:30:15Z</time>
      </trkpt>
      <trkpt lat="41.620676148" lon="2.495043351">
        <ele>505.31</ele>
        <time>2013-08-11T08:30:22Z</time>
      </trkpt>
      <trkpt lat="41.620824088" lon="2.495167151">
        <ele>506.75</ele>
        <time>2013-08-11T08:30:31Z</time>
      </trkpt>
      <trkpt lat="41.620985608" lon="2.495269746">
        <ele>508.19</ele>
        <time>2013-08-11T08:30:41Z</time>
      </trkpt>
      <trkpt lat="41.621122400" lon="2.495239152">
        <ele>508.67</ele>
        <time>2013-08-11T08:30:48Z</time>
      </trkpt>
      <trkpt lat="41.621193814" lon="2.495078638">
        <ele>509.16</ele>
        <time>2013-08-11T08:30:55Z</time>
      </trkpt>
      <trkpt lat="41.621289619" lon="2.494867917">
        <ele>510.12</ele>
        <time>2013-08-11T08:31:04Z</time>
      </trkpt>
      <trkpt lat="41.621424903" lon="2.494686533">
        <ele>510.12</ele>
        <time>2013-08-11T08:31:12Z</time>
      </trkpt>
      <trkpt lat="41.621406882" lon="2.494385790">
        <ele>510.60</ele>
        <time>2013-08-11T08:31:21Z</time>
      </trkpt>
      <trkpt lat="41.621431860" lon="2.494046994">
        <ele>510.60</ele>
        <time>2013-08-11T08:31:30Z</time>
      </trkpt>
      <trkpt lat="41.621590194" lon="2.493900394">
        <ele>510.60</ele>
        <time>2013-08-11T08:31:37Z</time>
      </trkpt>
      <trkpt lat="41.621794210" lon="2.493720686">
        <ele>509.64</ele>
        <time>2013-08-11T08:31:44Z</time>
      </trkpt>
      <trkpt lat="41.621865456" lon="2.493677603">
        <ele>509.16</ele>
        <time>2013-08-11T08:31:46Z</time>
      </trkpt>
      <trkpt lat="41.622040554" lon="2.493734768">
        <ele>508.67</ele>
        <time>2013-08-11T08:31:51Z</time>
      </trkpt>
      <trkpt lat="41.622218418" lon="2.493969545">
        <ele>508.67</ele>
        <time>2013-08-11T08:31:58Z</time>
      </trkpt>
      <trkpt lat="41.622480939" lon="2.493996032">
        <ele>508.19</ele>
        <time>2013-08-11T08:32:05Z</time>
      </trkpt>
      <trkpt lat="41.622679506" lon="2.494040456">
        <ele>507.71</ele>
        <time>2013-08-11T08:32:12Z</time>
      </trkpt>
      <trkpt lat="41.622857706" lon="2.494203819">
        <ele>507.23</ele>
        <time>2013-08-11T08:32:18Z</time>
      </trkpt>
      <trkpt lat="41.623039761" lon="2.494507915">
        <ele>507.23</ele>
        <time>2013-08-11T08:32:27Z</time>
      </trkpt>
      <trkpt lat="41.623135566" lon="2.494829612">
        <ele>507.23</ele>
        <time>2013-08-11T08:32:36Z</time>
      </trkpt>
      <trkpt lat="41.623165489" lon="2.495169498">
        <ele>507.23</ele>
        <time>2013-08-11T08:32:45Z</time>
      </trkpt>
      <trkpt lat="41.623102038" lon="2.495390780">
        <ele>508.67</ele>
        <time>2013-08-11T08:32:53Z</time>
      </trkpt>
      <trkpt lat="41.623036156" lon="2.495595550">
        <ele>509.16</ele>
        <time>2013-08-11T08:33:00Z</time>
      </trkpt>
      <trkpt lat="41.623107151" lon="2.495744916">
        <ele>509.16</ele>
        <time>2013-08-11T08:33:05Z</time>
      </trkpt>
      <trkpt lat="41.623236987" lon="2.495892102">
        <ele>509.64</ele>
        <time>2013-08-11T08:33:12Z</time>
      </trkpt>
      <trkpt lat="41.623317788" lon="2.496084299">
        <ele>511.08</ele>
        <time>2013-08-11T08:33:19Z</time>
      </trkpt>
      <trkpt lat="41.623429016" lon="2.496290326">
        <ele>511.56</ele>
        <time>2013-08-11T08:33:27Z</time>
      </trkpt>
      <trkpt lat="41.623548542" lon="2.496373391">
        <ele>511.56</ele>
        <time>2013-08-11T08:33:33Z</time>
      </trkpt>
      <trkpt lat="41.623752474" lon="2.496400884">
        <ele>511.56</ele>
        <time>2013-08-11T08:33:41Z</time>
      </trkpt>
      <trkpt lat="41.623948778" lon="2.496313293">
        <ele>510.12</ele>
        <time>2013-08-11T08:33:47Z</time>
      </trkpt>
      <trkpt lat="41.623981216" lon="2.496284124">
        <ele>510.12</ele>
        <time>2013-08-11T08:33:48Z</time>
      </trkpt>
      <trkpt lat="41.624145417" lon="2.496070050">
        <ele>508.67</ele>
        <time>2013-08-11T08:33:53Z</time>
      </trkpt>
      <trkpt lat="41.624194954" lon="2.495966366">
        <ele>508.19</ele>
        <time>2013-08-11T08:33:55Z</time>
      </trkpt>
      <trkpt lat="41.624257986" lon="2.495467223">
        <ele>507.23</ele>
        <time>2013-08-11T08:34:03Z</time>
      </trkpt>
      <trkpt lat="41.624254801" lon="2.495282905">
        <ele>506.27</ele>
        <time>2013-08-11T08:34:06Z</time>
      </trkpt>
      <trkpt lat="41.624227392" lon="2.495050810">
        <ele>506.27</ele>
        <time>2013-08-11T08:34:10Z</time>
      </trkpt>
      <trkpt lat="41.624243989" lon="2.494726347">
        <ele>505.79</ele>
        <time>2013-08-11T08:34:15Z</time>
      </trkpt>
      <trkpt lat="41.624313558" lon="2.494357543">
        <ele>504.83</ele>
        <time>2013-08-11T08:34:21Z</time>
      </trkpt>
      <trkpt lat="41.624297549" lon="2.494301720">
        <ele>504.83</ele>
        <time>2013-08-11T08:34:22Z</time>
      </trkpt>
      <trkpt lat="41.624198140" lon="2.493923528">
        <ele>504.83</ele>
        <time>2013-08-11T08:34:30Z</time>
      </trkpt>
      <trkpt lat="41.624147932" lon="2.493547181">
        <ele>504.83</ele>
        <time>2013-08-11T08:34:38Z</time>
      </trkpt>
      <trkpt lat="41.624099066" lon="2.493183406">
        <ele>504.83</ele>
        <time>2013-08-11T08:34:47Z</time>
      </trkpt>
      <trkpt lat="41.624059922" lon="2.492905965">
        <ele>504.83</ele>
        <time>2013-08-11T08:34:53Z</time>
      </trkpt>
      <trkpt lat="41.624093953" lon="2.492680241">
        <ele>504.35</ele>
        <time>2013-08-11T08:34:57Z</time>
      </trkpt>
      <trkpt lat="41.624249688" lon="2.492269360">
        <ele>504.35</ele>
        <time>2013-08-11T08:35:06Z</time>
      </trkpt>
      <trkpt lat="41.624306099" lon="2.491957637">
        <ele>505.31</ele>
        <time>2013-08-11T08:35:15Z</time>
      </trkpt>
      <trkpt lat="41.624336273" lon="2.491649686">
        <ele>505.31</ele>
        <time>2013-08-11T08:35:23Z</time>
      </trkpt>
      <trkpt lat="41.624346667" lon="2.491296388">
        <ele>505.79</ele>
        <time>2013-08-11T08:35:31Z</time>
      </trkpt>
      <trkpt lat="41.624379859" lon="2.491079381">
        <ele>506.27</ele>
        <time>2013-08-11T08:35:37Z</time>
      </trkpt>
      <trkpt lat="41.624472312" lon="2.490757097">
        <ele>509.16</ele>
        <time>2013-08-11T08:35:47Z</time>
      </trkpt>
      <trkpt lat="41.624588066" lon="2.490544196">
        <ele>509.16</ele>
        <time>2013-08-11T08:35:53Z</time>
      </trkpt>
      <trkpt lat="41.624735503" lon="2.490297433">
        <ele>509.16</ele>
        <time>2013-08-11T08:36:00Z</time>
      </trkpt>
      <trkpt lat="41.624930383" lon="2.490054274">
        <ele>509.16</ele>
        <time>2013-08-11T08:36:07Z</time>
      </trkpt>
      <trkpt lat="41.625074132" lon="2.489847744">
        <ele>509.16</ele>
        <time>2013-08-11T08:36:14Z</time>
      </trkpt>
      <trkpt lat="41.625186282" lon="2.489605423">
        <ele>511.08</ele>
        <time>2013-08-11T08:36:24Z</time>
      </trkpt>
      <trkpt lat="41.625237244" lon="2.489457902">
        <ele>512.52</ele>
        <time>2013-08-11T08:36:30Z</time>
      </trkpt>
      <trkpt lat="41.625300192" lon="2.489256485">
        <ele>513.48</ele>
        <time>2013-08-11T08:36:38Z</time>
      </trkpt>
      <trkpt lat="41.625381581" lon="2.489018858">
        <ele>514.44</ele>
        <time>2013-08-11T08:36:47Z</time>
      </trkpt>
      <trkpt lat="41.625400440" lon="2.488973428">
        <ele>514.92</ele>
        <time>2013-08-11T08:36:49Z</time>
      </trkpt>
      <trkpt lat="41.625485600" lon="2.488736387">
        <ele>517.33</ele>
        <time>2013-08-11T08:36:59Z</time>
      </trkpt>
      <trkpt lat="41.625565899" lon="2.488589453">
        <ele>519.25</ele>
        <time>2013-08-11T08:37:07Z</time>
      </trkpt>
      <trkpt lat="41.625689615" lon="2.488454672">
        <ele>520.21</ele>
        <time>2013-08-11T08:37:15Z</time>
      </trkpt>
      <trkpt lat="41.625747283" lon="2.488297176">
        <ele>522.13</ele>
        <time>2013-08-11T08:37:23Z</time>
      </trkpt>
      <trkpt lat="41.625734542" lon="2.488158120">
        <ele>524.06</ele>
        <time>2013-08-11T08:37:30Z</time>
      </trkpt>
      <trkpt lat="41.625723478" lon="2.488122413">
        <ele>524.54</ele>
        <time>2013-08-11T08:37:32Z</time>
      </trkpt>
      <trkpt lat="41.625684670" lon="2.487973215">
        <ele>525.50</ele>
        <time>2013-08-11T08:37:40Z</time>
      </trkpt>
      <trkpt lat="41.625630020" lon="2.487835165">
        <ele>526.94</ele>
        <time>2013-08-11T08:37:47Z</time>
      </trkpt>
      <trkpt lat="41.625547123" lon="2.487711197">
        <ele>527.42</ele>
        <time>2013-08-11T08:37:54Z</time>
      </trkpt>
      <trkpt lat="41.625449306" lon="2.487572309">
        <ele>527.90</ele>
        <time>2013-08-11T08:38:01Z</time>
      </trkpt>
      <trkpt lat="41.625317459" lon="2.487427302">
        <ele>528.38</ele>
        <time>2013-08-11T08:38:08Z</time>
      </trkpt>
      <trkpt lat="41.625130123" lon="2.487260167">
        <ele>528.86</ele>
        <time>2013-08-11T08:38:17Z</time>
      </trkpt>
      <trkpt lat="41.624973466" lon="2.487091858">
        <ele>528.86</ele>
        <time>2013-08-11T08:38:25Z</time>
      </trkpt>
      <trkpt lat="41.624898448" lon="2.486937044">
        <ele>530.79</ele>
        <time>2013-08-11T08:38:32Z</time>
      </trkpt>
      <trkpt lat="41.624897442" lon="2.486752391">
        <ele>532.71</ele>
        <time>2013-08-11T08:38:40Z</time>
      </trkpt>
      <trkpt lat="41.624898531" lon="2.486574359">
        <ele>534.15</ele>
        <time>2013-08-11T08:38:49Z</time>
      </trkpt>
      <trkpt lat="41.624878080" lon="2.486368751">
        <ele>536.55</ele>
        <time>2013-08-11T08:38:59Z</time>
      </trkpt>
      <trkpt lat="41.624873721" lon="2.486187283">
        <ele>538.96</ele>
        <time>2013-08-11T08:39:07Z</time>
      </trkpt>
      <trkpt lat="41.624887970" lon="2.485958038">
        <ele>541.84</ele>
        <time>2013-08-11T08:39:18Z</time>
      </trkpt>
      <trkpt lat="41.624884198" lon="2.485750167">
        <ele>544.72</ele>
        <time>2013-08-11T08:39:29Z</time>
      </trkpt>
      <trkpt lat="41.624892245" lon="2.485604322">
        <ele>546.17</ele>
        <time>2013-08-11T08:39:37Z</time>
      </trkpt>
      <trkpt lat="41.624921498" lon="2.485413382">
        <ele>548.09</ele>
        <time>2013-08-11T08:39:48Z</time>
      </trkpt>
      <trkpt lat="41.624930550" lon="2.485265190">
        <ele>549.53</ele>
        <time>2013-08-11T08:39:56Z</time>
      </trkpt>
      <trkpt lat="41.624978830" lon="2.485075843">
        <ele>550.97</ele>
        <time>2013-08-11T08:40:07Z</time>
      </trkpt>
      <trkpt lat="41.625022751" lon="2.484894626">
        <ele>550.97</ele>
        <time>2013-08-11T08:40:16Z</time>
      </trkpt>
      <trkpt lat="41.625013531" lon="2.484636882">
        <ele>550.97</ele>
        <time>2013-08-11T08:40:25Z</time>
      </trkpt>
      <trkpt lat="41.624987380" lon="2.484449044">
        <ele>551.93</ele>
        <time>2013-08-11T08:40:32Z</time>
      </trkpt>
      <trkpt lat="41.624990313" lon="2.484409314">
        <ele>551.93</ele>
        <time>2013-08-11T08:40:34Z</time>
      </trkpt>
      <trkpt lat="41.625062901" lon="2.484234970">
        <ele>553.38</ele>
        <time>2013-08-11T08:40:43Z</time>
      </trkpt>
      <trkpt lat="41.625120400" lon="2.484041516">
        <ele>553.86</ele>
        <time>2013-08-11T08:40:51Z</time>
      </trkpt>
      <trkpt lat="41.625127022" lon="2.483970521">
        <ele>554.82</ele>
        <time>2013-08-11T08:40:54Z</time>
      </trkpt>
      <trkpt lat="41.625195502" lon="2.483877398">
        <ele>556.74</ele>
        <time>2013-08-11T08:41:02Z</time>
      </trkpt>
      <trkpt lat="41.625257780" lon="2.483897599">
        <ele>557.70</ele>
        <time>2013-08-11T08:41:08Z</time>
      </trkpt>
      <trkpt lat="41.625373366" lon="2.483977143">
        <ele>559.14</ele>
        <time>2013-08-11T08:41:17Z</time>
      </trkpt>
      <trkpt lat="41.625419048" lon="2.484125167">
        <ele>559.62</ele>
        <time>2013-08-11T08:41:24Z</time>
      </trkpt>
      <trkpt lat="41.625328607" lon="2.484280903">
        <ele>560.59</ele>
        <time>2013-08-11T08:41:33Z</time>
      </trkpt>
      <trkpt lat="41.625258534" lon="2.484365560">
        <ele>561.55</ele>
        <time>2013-08-11T08:41:40Z</time>
      </trkpt>
      <trkpt lat="41.625226934" lon="2.484435046">
        <ele>562.51</ele>
        <time>2013-08-11T08:41:44Z</time>
      </trkpt>
      <trkpt lat="41.625292481" lon="2.484523475">
        <ele>562.99</ele>
        <time>2013-08-11T08:41:50Z</time>
      </trkpt>
      <trkpt lat="41.625355848" lon="2.484523391">
        <ele>563.47</ele>
        <time>2013-08-11T08:41:54Z</time>
      </trkpt>
      <trkpt lat="41.625455425" lon="2.484491876">
        <ele>565.39</ele>
        <time>2013-08-11T08:42:01Z</time>
      </trkpt>
      <trkpt lat="41.625586937" lon="2.484409565">
        <ele>567.80</ele>
        <time>2013-08-11T08:42:11Z</time>
      </trkpt>
      <trkpt lat="41.625716857" lon="2.484346701">
        <ele>568.28</ele>
        <time>2013-08-11T08:42:19Z</time>
      </trkpt>
      <trkpt lat="41.625829761" lon="2.484266738">
        <ele>569.24</ele>
        <time>2013-08-11T08:42:27Z</time>
      </trkpt>
      <trkpt lat="41.625954232" lon="2.484154839">
        <ele>571.16</ele>
        <time>2013-08-11T08:42:36Z</time>
      </trkpt>
      <trkpt lat="41.626094713" lon="2.484009497">
        <ele>574.04</ele>
        <time>2013-08-11T08:42:47Z</time>
      </trkpt>
      <trkpt lat="41.626208623" lon="2.483882679">
        <ele>577.41</ele>
        <time>2013-08-11T08:42:57Z</time>
      </trkpt>
      <trkpt lat="41.626243156" lon="2.483843451">
        <ele>577.89</ele>
        <time>2013-08-11T08:43:00Z</time>
      </trkpt>
      <trkpt lat="41.626285569" lon="2.483819228">
        <ele>578.37</ele>
        <time>2013-08-11T08:43:03Z</time>
      </trkpt>
      <trkpt lat="41.626340638" lon="2.483770026">
        <ele>578.85</ele>
        <time>2013-08-11T08:43:07Z</time>
      </trkpt>
      <trkpt lat="41.626477850" lon="2.483638849">
        <ele>579.33</ele>
        <time>2013-08-11T08:43:16Z</time>
      </trkpt>
      <trkpt lat="41.626561166" lon="2.483323019">
        <ele>577.89</ele>
        <time>2013-08-11T08:43:22Z</time>
      </trkpt>
      <trkpt lat="41.626572481" lon="2.483261580">
        <ele>577.89</ele>
        <time>2013-08-11T08:43:23Z</time>
      </trkpt>
      <trkpt lat="41.626668957" lon="2.483088242">
        <ele>577.89</ele>
        <time>2013-08-11T08:43:27Z</time>
      </trkpt>
      <trkpt lat="41.626762415" lon="2.483131660">
        <ele>577.89</ele>
        <time>2013-08-11T08:43:31Z</time>
      </trkpt>
      <trkpt lat="41.626780269" lon="2.483145490">
        <ele>578.37</ele>
        <time>2013-08-11T08:43:32Z</time>
      </trkpt>
      <trkpt lat="41.626879594" lon="2.483196955">
        <ele>579.33</ele>
        <time>2013-08-11T08:43:37Z</time>
      </trkpt>
      <trkpt lat="41.627036587" lon="2.483154459">
        <ele>581.73</ele>
        <time>2013-08-11T08:43:45Z</time>
      </trkpt>
      <trkpt lat="41.627146809" lon="2.483019259">
        <ele>584.14</ele>
        <time>2013-08-11T08:43:53Z</time>
      </trkpt>
      <trkpt lat="41.627266587" lon="2.482933680">
        <ele>586.06</ele>
        <time>2013-08-11T08:44:01Z</time>
      </trkpt>
      <trkpt lat="41.627419640" lon="2.482855225">
        <ele>588.46</ele>
        <time>2013-08-11T08:44:11Z</time>
      </trkpt>
      <trkpt lat="41.627448139" lon="2.482848603">
        <ele>588.95</ele>
        <time>2013-08-11T08:44:13Z</time>
      </trkpt>
      <trkpt lat="41.627571520" lon="2.482894285">
        <ele>591.83</ele>
        <time>2013-08-11T08:44:22Z</time>
      </trkpt>
      <trkpt lat="41.627638995" lon="2.482946504">
        <ele>592.31</ele>
        <time>2013-08-11T08:44:28Z</time>
      </trkpt>
      <trkpt lat="41.627665733" lon="2.482969973">
        <ele>592.79</ele>
        <time>2013-08-11T08:44:30Z</time>
      </trkpt>
      <trkpt lat="41.627689873" lon="2.483034346">
        <ele>592.79</ele>
        <time>2013-08-11T08:44:34Z</time>
      </trkpt>
      <trkpt lat="41.627782660" lon="2.483275075">
        <ele>592.79</ele>
        <time>2013-08-11T08:44:43Z</time>
      </trkpt>
      <trkpt lat="41.627798251" lon="2.483322684">
        <ele>591.35</ele>
        <time>2013-08-11T08:44:51Z</time>
      </trkpt>
      <trkpt lat="41.627822726" lon="2.483317571">
        <ele>591.83</ele>
        <time>2013-08-11T08:45:09Z</time>
      </trkpt>
      <trkpt lat="41.627828510" lon="2.483342381">
        <ele>591.83</ele>
        <time>2013-08-11T08:45:28Z</time>
      </trkpt>
      <trkpt lat="41.627822055" lon="2.483341040">
        <ele>591.83</ele>
        <time>2013-08-11T08:45:45Z</time>
      </trkpt>
      <trkpt lat="41.627809315" lon="2.483338358">
        <ele>591.83</ele>
        <time>2013-08-11T08:46:07Z</time>
      </trkpt>
      <trkpt lat="41.627808896" lon="2.483345147">
        <ele>592.31</ele>
        <time>2013-08-11T08:46:33Z</time>
      </trkpt>
      <trkpt lat="41.627835047" lon="2.483345566">
        <ele>592.31</ele>
        <time>2013-08-11T08:46:53Z</time>
      </trkpt>
      <trkpt lat="41.627855918" lon="2.483356044">
        <ele>592.31</ele>
        <time>2013-08-11T08:47:09Z</time>
      </trkpt>
      <trkpt lat="41.627850386" lon="2.483332072">
        <ele>592.31</ele>
        <time>2013-08-11T08:47:24Z</time>
      </trkpt>
      <trkpt lat="41.627819289" lon="2.483351853">
        <ele>592.79</ele>
        <time>2013-08-11T08:47:40Z</time>
      </trkpt>
      <trkpt lat="41.627839406" lon="2.483339531">
        <ele>592.31</ele>
        <time>2013-08-11T08:47:57Z</time>
      </trkpt>
      <trkpt lat="41.627828929" lon="2.483350260">
        <ele>592.31</ele>
        <time>2013-08-11T08:48:08Z</time>
      </trkpt>
      <trkpt lat="41.627843010" lon="2.483328886">
        <ele>592.31</ele>
        <time>2013-08-11T08:48:23Z</time>
      </trkpt>
      <trkpt lat="41.627848039" lon="2.483334167">
        <ele>592.79</ele>
        <time>2013-08-11T08:48:35Z</time>
      </trkpt>
      <trkpt lat="41.627941414" lon="2.483510690">
        <ele>591.35</ele>
        <time>2013-08-11T08:48:42Z</time>
      </trkpt>
      <trkpt lat="41.627988520" lon="2.483568525">
        <ele>590.87</ele>
        <time>2013-08-11T08:48:44Z</time>
      </trkpt>
      <trkpt lat="41.628206533" lon="2.483573973">
        <ele>589.91</ele>
        <time>2013-08-11T08:48:49Z</time>
      </trkpt>
      <trkpt lat="41.628364532" lon="2.483525191">
        <ele>587.50</ele>
        <time>2013-08-11T08:48:54Z</time>
      </trkpt>
      <trkpt lat="41.628440472" lon="2.483513707">
        <ele>586.06</ele>
        <time>2013-08-11T08:48:56Z</time>
      </trkpt>
      <trkpt lat="41.628659827" lon="2.483607333">
        <ele>583.18</ele>
        <time>2013-08-11T08:49:02Z</time>
      </trkpt>
      <trkpt lat="41.628684386" lon="2.483637592">
        <ele>583.18</ele>
        <time>2013-08-11T08:49:03Z</time>
      </trkpt>
      <trkpt lat="41.628739036" lon="2.483688638">
        <ele>582.22</ele>
        <time>2013-08-11T08:49:06Z</time>
      </trkpt>
      <trkpt lat="41.628936932" lon="2.483787796">
        <ele>581.73</ele>
        <time>2013-08-11T08:49:12Z</time>
      </trkpt>
      <trkpt lat="41.629011196" lon="2.483837249">
        <ele>581.25</ele>
        <time>2013-08-11T08:49:14Z</time>
      </trkpt>
      <trkpt lat="41.629343539" lon="2.483988878">
        <ele>580.29</ele>
        <time>2013-08-11T08:49:22Z</time>
      </trkpt>
      <trkpt lat="41.629577813" lon="2.484027518">
        <ele>580.29</ele>
        <time>2013-08-11T08:49:29Z</time>
      </trkpt>
      <trkpt lat="41.629835975" lon="2.484061297">
        <ele>579.81</ele>
        <time>2013-08-11T08:49:36Z</time>
      </trkpt>
      <trkpt lat="41.630012163" lon="2.484155174">
        <ele>579.33</ele>
        <time>2013-08-11T08:49:40Z</time>
      </trkpt>
      <trkpt lat="41.630118445" lon="2.484219715">
        <ele>578.37</ele>
        <time>2013-08-11T08:49:42Z</time>
      </trkpt>
      <trkpt lat="41.630375938" lon="2.484549962">
        <ele>575.49</ele>
        <time>2013-08-11T08:49:47Z</time>
      </trkpt>
      <trkpt lat="41.630470402" lon="2.484720031">
        <ele>575.01</ele>
        <time>2013-08-11T08:49:49Z</time>
      </trkpt>
      <trkpt lat="41.630937274" lon="2.485240463">
        <ele>573.08</ele>
        <time>2013-08-11T08:49:57Z</time>
      </trkpt>
      <trkpt lat="41.631162747" lon="2.485425536">
        <ele>572.60</ele>
        <time>2013-08-11T08:50:01Z</time>
      </trkpt>
      <trkpt lat="41.631309430" lon="2.485589486">
        <ele>572.60</ele>
        <time>2013-08-11T08:50:05Z</time>
      </trkpt>
      <trkpt lat="41.631319153" lon="2.485638939">
        <ele>572.60</ele>
        <time>2013-08-11T08:50:06Z</time>
      </trkpt>
      <trkpt lat="41.631370367" lon="2.485948483">
        <ele>572.12</ele>
        <time>2013-08-11T08:50:12Z</time>
      </trkpt>
      <trkpt lat="41.631380341" lon="2.486069014">
        <ele>570.20</ele>
        <time>2013-08-11T08:50:14Z</time>
      </trkpt>
      <trkpt lat="41.631401380" lon="2.486181500">
        <ele>569.24</ele>
        <time>2013-08-11T08:50:16Z</time>
      </trkpt>
      <trkpt lat="41.631490228" lon="2.486428179">
        <ele>567.32</ele>
        <time>2013-08-11T08:50:20Z</time>
      </trkpt>
      <trkpt lat="41.631647808" lon="2.486543933">
        <ele>564.91</ele>
        <time>2013-08-11T08:50:25Z</time>
      </trkpt>
      <trkpt lat="41.631855008" lon="2.486416193">
        <ele>562.03</ele>
        <time>2013-08-11T08:50:30Z</time>
      </trkpt>
      <trkpt lat="41.631891218" lon="2.486380654">
        <ele>561.07</ele>
        <time>2013-08-11T08:50:31Z</time>
      </trkpt>
      <trkpt lat="41.632060113" lon="2.486299684">
        <ele>558.66</ele>
        <time>2013-08-11T08:50:35Z</time>
      </trkpt>
      <trkpt lat="41.632227081" lon="2.486179991">
        <ele>557.22</ele>
        <time>2013-08-11T08:50:39Z</time>
      </trkpt>
      <trkpt lat="41.632325401" lon="2.486152163">
        <ele>555.78</ele>
        <time>2013-08-11T08:50:46Z</time>
      </trkpt>
      <trkpt lat="41.632350546" lon="2.486208825">
        <ele>555.78</ele>
        <time>2013-08-11T08:50:54Z</time>
      </trkpt>
      <trkpt lat="41.632389522" lon="2.486378726">
        <ele>553.38</ele>
        <time>2013-08-11T08:50:59Z</time>
      </trkpt>
      <trkpt lat="41.632436209" lon="2.486470005">
        <ele>551.45</ele>
        <time>2013-08-11T08:51:04Z</time>
      </trkpt>
      <trkpt lat="41.632470491" lon="2.486593135">
        <ele>550.49</ele>
        <time>2013-08-11T08:51:09Z</time>
      </trkpt>
      <trkpt lat="41.632592197" lon="2.486730347">
        <ele>548.09</ele>
        <time>2013-08-11T08:51:15Z</time>
      </trkpt>
      <trkpt lat="41.632741562" lon="2.486860098">
        <ele>546.65</ele>
        <time>2013-08-11T08:51:20Z</time>
      </trkpt>
      <trkpt lat="41.632850611" lon="2.487073502">
        <ele>543.28</ele>
        <time>2013-08-11T08:51:26Z</time>
      </trkpt>
      <trkpt lat="41.632897549" lon="2.487277685">
        <ele>541.36</ele>
        <time>2013-08-11T08:51:32Z</time>
      </trkpt>
      <trkpt lat="41.632941722" lon="2.487509864">
        <ele>539.44</ele>
        <time>2013-08-11T08:51:37Z</time>
      </trkpt>
      <trkpt lat="41.632963431" lon="2.487545151">
        <ele>538.48</ele>
        <time>2013-08-11T08:51:38Z</time>
      </trkpt>
      <trkpt lat="41.633076168" lon="2.487765931">
        <ele>535.59</ele>
        <time>2013-08-11T08:51:44Z</time>
      </trkpt>
      <trkpt lat="41.633117155" lon="2.487823263">
        <ele>534.63</ele>
        <time>2013-08-11T08:51:46Z</time>
      </trkpt>
      <trkpt lat="41.633210110" lon="2.488069104">
        <ele>532.71</ele>
        <time>2013-08-11T08:51:52Z</time>
      </trkpt>
      <trkpt lat="41.633255540" lon="2.488169352">
        <ele>531.75</ele>
        <time>2013-08-11T08:51:54Z</time>
      </trkpt>
      <trkpt lat="41.633425274" lon="2.488472860">
        <ele>530.79</ele>
        <time>2013-08-11T08:52:00Z</time>
      </trkpt>
      <trkpt lat="41.633541279" lon="2.488752229">
        <ele>529.82</ele>
        <time>2013-08-11T08:52:06Z</time>
      </trkpt>
      <trkpt lat="41.633589978" lon="2.488821799">
        <ele>529.34</ele>
        <time>2013-08-11T08:52:09Z</time>
      </trkpt>
      <trkpt lat="41.633634821" lon="2.488846190">
        <ele>529.34</ele>
        <time>2013-08-11T08:52:15Z</time>
      </trkpt>
      <trkpt lat="41.633633313" lon="2.488866056">
        <ele>529.34</ele>
        <time>2013-08-11T08:52:36Z</time>
      </trkpt>
      <trkpt lat="41.633651585" lon="2.488845352">
        <ele>529.34</ele>
        <time>2013-08-11T08:52:48Z</time>
      </trkpt>
      <trkpt lat="41.633783684" lon="2.488772178">
        <ele>527.90</ele>
        <time>2013-08-11T08:52:53Z</time>
      </trkpt>
      <trkpt lat="41.633846129" lon="2.488561876">
        <ele>527.42</ele>
        <time>2013-08-11T08:52:57Z</time>
      </trkpt>
      <trkpt lat="41.633921566" lon="2.488358280">
        <ele>525.50</ele>
        <time>2013-08-11T08:53:00Z</time>
      </trkpt>
      <trkpt lat="41.633981581" lon="2.488258200">
        <ele>524.54</ele>
        <time>2013-08-11T08:53:02Z</time>
      </trkpt>
      <trkpt lat="41.634074871" lon="2.488185529">
        <ele>523.09</ele>
        <time>2013-08-11T08:53:04Z</time>
      </trkpt>
      <trkpt lat="41.634164809" lon="2.488135824">
        <ele>521.65</ele>
        <time>2013-08-11T08:53:06Z</time>
      </trkpt>
      <trkpt lat="41.634290957" lon="2.487988638">
        <ele>519.25</ele>
        <time>2013-08-11T08:53:10Z</time>
      </trkpt>
      <trkpt lat="41.634367735" lon="2.487795184">
        <ele>516.85</ele>
        <time>2013-08-11T08:53:14Z</time>
      </trkpt>
      <trkpt lat="41.634438143" lon="2.487592844">
        <ele>512.04</ele>
        <time>2013-08-11T08:53:18Z</time>
      </trkpt>
      <trkpt lat="41.634489524" lon="2.487530148">
        <ele>511.56</ele>
        <time>2013-08-11T08:53:20Z</time>
      </trkpt>
      <trkpt lat="41.634563201" lon="2.487482287">
        <ele>510.12</ele>
        <time>2013-08-11T08:53:25Z</time>
      </trkpt>
      <trkpt lat="41.634627574" lon="2.487429481">
        <ele>508.19</ele>
        <time>2013-08-11T08:53:32Z</time>
      </trkpt>
      <trkpt lat="41.634751123" lon="2.487416489">
        <ele>505.79</ele>
        <time>2013-08-11T08:53:37Z</time>
      </trkpt>
      <trkpt lat="41.634904847" lon="2.487480527">
        <ele>502.43</ele>
        <time>2013-08-11T08:53:42Z</time>
      </trkpt>
      <trkpt lat="41.634930245" lon="2.487470804">
        <ele>502.43</ele>
        <time>2013-08-11T08:53:43Z</time>
      </trkpt>
      <trkpt lat="41.635024038" lon="2.487404419">
        <ele>501.46</ele>
        <time>2013-08-11T08:53:47Z</time>
      </trkpt>
      <trkpt lat="41.635138200" lon="2.487411376">
        <ele>500.02</ele>
        <time>2013-08-11T08:53:54Z</time>
      </trkpt>
      <trkpt lat="41.635224282" lon="2.487462254">
        <ele>498.10</ele>
        <time>2013-08-11T08:54:00Z</time>
      </trkpt>
      <trkpt lat="41.635336767" lon="2.487469966">
        <ele>495.22</ele>
        <time>2013-08-11T08:54:06Z</time>
      </trkpt>
      <trkpt lat="41.635431482" lon="2.487453621">
        <ele>493.77</ele>
        <time>2013-08-11T08:54:10Z</time>
      </trkpt>
      <trkpt lat="41.635587134" lon="2.487430990">
        <ele>493.29</ele>
        <time>2013-08-11T08:54:17Z</time>
      </trkpt>
      <trkpt lat="41.635741780" lon="2.487493184">
        <ele>491.85</ele>
        <time>2013-08-11T08:54:22Z</time>
      </trkpt>
      <trkpt lat="41.635868263" lon="2.487584630">
        <ele>488.49</ele>
        <time>2013-08-11T08:54:28Z</time>
      </trkpt>
      <trkpt lat="41.635972870" lon="2.487730643">
        <ele>485.12</ele>
        <time>2013-08-11T08:54:33Z</time>
      </trkpt>
      <trkpt lat="41.636131455" lon="2.487901382">
        <ele>481.76</ele>
        <time>2013-08-11T08:54:39Z</time>
      </trkpt>
      <trkpt lat="41.636243354" lon="2.487992745">
        <ele>478.87</ele>
        <time>2013-08-11T08:54:44Z</time>
      </trkpt>
      <trkpt lat="41.636271181" lon="2.488015292">
        <ele>478.39</ele>
        <time>2013-08-11T08:54:45Z</time>
      </trkpt>
      <trkpt lat="41.636517526" lon="2.488032978">
        <ele>475.03</ele>
        <time>2013-08-11T08:54:52Z</time>
      </trkpt>
      <trkpt lat="41.636761271" lon="2.488075223">
        <ele>472.14</ele>
        <time>2013-08-11T08:54:59Z</time>
      </trkpt>
      <trkpt lat="41.636935531" lon="2.488169603">
        <ele>470.22</ele>
        <time>2013-08-11T08:55:05Z</time>
      </trkpt>
      <trkpt lat="41.637067127" lon="2.488260379">
        <ele>468.78</ele>
        <time>2013-08-11T08:55:10Z</time>
      </trkpt>
      <trkpt lat="41.637243147" lon="2.488368338">
        <ele>466.86</ele>
        <time>2013-08-11T08:55:16Z</time>
      </trkpt>
      <trkpt lat="41.637254127" lon="2.488375882">
        <ele>466.86</ele>
        <time>2013-08-11T08:55:24Z</time>
      </trkpt>
      <trkpt lat="41.637265862" lon="2.488387114">
        <ele>467.82</ele>
        <time>2013-08-11T08:55:31Z</time>
      </trkpt>
      <trkpt lat="41.637281452" lon="2.488377474">
        <ele>467.82</ele>
        <time>2013-08-11T08:55:42Z</time>
      </trkpt>
      <trkpt lat="41.637325625" lon="2.488401195">
        <ele>468.78</ele>
        <time>2013-08-11T08:55:50Z</time>
      </trkpt>
      <trkpt lat="41.637372061" lon="2.488415780">
        <ele>469.26</ele>
        <time>2013-08-11T08:56:00Z</time>
      </trkpt>
      <trkpt lat="41.637501142" lon="2.488459952">
        <ele>471.18</ele>
        <time>2013-08-11T08:56:07Z</time>
      </trkpt>
      <trkpt lat="41.637638521" lon="2.488522146">
        <ele>472.14</ele>
        <time>2013-08-11T08:56:14Z</time>
      </trkpt>
      <trkpt lat="41.637775314" lon="2.488696573">
        <ele>472.14</ele>
        <time>2013-08-11T08:56:20Z</time>
      </trkpt>
      <trkpt lat="41.637847315" lon="2.488789780">
        <ele>472.14</ele>
        <time>2013-08-11T08:56:24Z</time>
      </trkpt>
      <trkpt lat="41.638042613" lon="2.488747284">
        <ele>469.26</ele>
        <time>2013-08-11T08:56:32Z</time>
      </trkpt>
      <trkpt lat="41.638149566" lon="2.488639744">
        <ele>466.86</ele>
        <time>2013-08-11T08:56:36Z</time>
      </trkpt>
      <trkpt lat="41.638233888" lon="2.488620969">
        <ele>465.90</ele>
        <time>2013-08-11T08:56:40Z</time>
      </trkpt>
      <trkpt lat="41.638271020" lon="2.488648126">
        <ele>466.86</ele>
        <time>2013-08-11T08:56:43Z</time>
      </trkpt>
      <trkpt lat="41.638433293" lon="2.488742087">
        <ele>468.30</ele>
        <time>2013-08-11T08:56:51Z</time>
      </trkpt>
      <trkpt lat="41.638608559" lon="2.488805203">
        <ele>468.78</ele>
        <time>2013-08-11T08:56:58Z</time>
      </trkpt>
      <trkpt lat="41.638782232" lon="2.488759270">
        <ele>467.34</ele>
        <time>2013-08-11T08:57:04Z</time>
      </trkpt>
      <trkpt lat="41.638814838" lon="2.488754911">
        <ele>467.34</ele>
        <time>2013-08-11T08:57:05Z</time>
      </trkpt>
      <trkpt lat="41.638937716" lon="2.488785841">
        <ele>466.86</ele>
        <time>2013-08-11T08:57:10Z</time>
      </trkpt>
      <trkpt lat="41.639019943" lon="2.488828588">
        <ele>466.86</ele>
        <time>2013-08-11T08:57:16Z</time>
      </trkpt>
      <trkpt lat="41.639062439" lon="2.488741668">
        <ele>466.86</ele>
        <time>2013-08-11T08:57:22Z</time>
      </trkpt>
      <trkpt lat="41.639109881" lon="2.488615772">
        <ele>466.86</ele>
        <time>2013-08-11T08:57:28Z</time>
      </trkpt>
      <trkpt lat="41.639232843" lon="2.488543688">
        <ele>468.78</ele>
        <time>2013-08-11T08:57:36Z</time>
      </trkpt>
      <trkpt lat="41.639365948" lon="2.488479985">
        <ele>469.74</ele>
        <time>2013-08-11T08:57:43Z</time>
      </trkpt>
      <trkpt lat="41.639419005" lon="2.488408571">
        <ele>469.74</ele>
        <time>2013-08-11T08:57:45Z</time>
      </trkpt>
      <trkpt lat="41.639466279" lon="2.488309916">
        <ele>468.30</ele>
        <time>2013-08-11T08:57:47Z</time>
      </trkpt>
      <trkpt lat="41.639594438" lon="2.488110678">
        <ele>466.86</ele>
        <time>2013-08-11T08:57:51Z</time>
      </trkpt>
      <trkpt lat="41.639694099" lon="2.487847990">
        <ele>466.38</ele>
        <time>2013-08-11T08:57:56Z</time>
      </trkpt>
      <trkpt lat="41.639720167" lon="2.487750676">
        <ele>465.90</ele>
        <time>2013-08-11T08:57:58Z</time>
      </trkpt>
      <trkpt lat="41.639772554" lon="2.487604495">
        <ele>463.97</ele>
        <time>2013-08-11T08:58:01Z</time>
      </trkpt>
      <trkpt lat="41.639854277" lon="2.487281457">
        <ele>459.65</ele>
        <time>2013-08-11T08:58:08Z</time>
      </trkpt>
      <trkpt lat="41.639804740" lon="2.487086158">
        <ele>456.76</ele>
        <time>2013-08-11T08:58:13Z</time>
      </trkpt>
      <trkpt lat="41.639746319" lon="2.486977361">
        <ele>456.28</ele>
        <time>2013-08-11T08:58:15Z</time>
      </trkpt>
      <trkpt lat="41.639663673" lon="2.486821290">
        <ele>455.80</ele>
        <time>2013-08-11T08:58:18Z</time>
      </trkpt>
      <trkpt lat="41.639524198" lon="2.486613419">
        <ele>454.84</ele>
        <time>2013-08-11T08:58:22Z</time>
      </trkpt>
      <trkpt lat="41.639316495" lon="2.486356430">
        <ele>452.92</ele>
        <time>2013-08-11T08:58:29Z</time>
      </trkpt>
      <trkpt lat="41.639260923" lon="2.486234976">
        <ele>450.52</ele>
        <time>2013-08-11T08:58:33Z</time>
      </trkpt>
      <trkpt lat="41.639257151" lon="2.486083515">
        <ele>449.07</ele>
        <time>2013-08-11T08:58:37Z</time>
      </trkpt>
      <trkpt lat="41.639246757" lon="2.485935155">
        <ele>446.19</ele>
        <time>2013-08-11T08:58:44Z</time>
      </trkpt>
      <trkpt lat="41.639217001" lon="2.485754945">
        <ele>443.31</ele>
        <time>2013-08-11T08:58:52Z</time>
      </trkpt>
      <trkpt lat="41.639248014" lon="2.485563921">
        <ele>440.90</ele>
        <time>2013-08-11T08:58:58Z</time>
      </trkpt>
      <trkpt lat="41.639261342" lon="2.485453028">
        <ele>439.46</ele>
        <time>2013-08-11T08:59:01Z</time>
      </trkpt>
      <trkpt lat="41.639267125" lon="2.485387063">
        <ele>438.02</ele>
        <time>2013-08-11T08:59:03Z</time>
      </trkpt>
      <trkpt lat="41.639413725" lon="2.485258149">
        <ele>437.54</ele>
        <time>2013-08-11T08:59:11Z</time>
      </trkpt>
      <trkpt lat="41.639500813" lon="2.485222777">
        <ele>438.98</ele>
        <time>2013-08-11T08:59:16Z</time>
      </trkpt>
      <trkpt lat="41.639685717" lon="2.485122278">
        <ele>440.90</ele>
        <time>2013-08-11T08:59:26Z</time>
      </trkpt>
      <trkpt lat="41.639750845" lon="2.485018343">
        <ele>441.38</ele>
        <time>2013-08-11T08:59:32Z</time>
      </trkpt>
      <trkpt lat="41.639751180" lon="2.484985067">
        <ele>441.38</ele>
        <time>2013-08-11T08:59:40Z</time>
      </trkpt>
      <trkpt lat="41.639786049" lon="2.484904181">
        <ele>441.38</ele>
        <time>2013-08-11T08:59:44Z</time>
      </trkpt>
      <trkpt lat="41.639829718" lon="2.484738555">
        <ele>438.02</ele>
        <time>2013-08-11T08:59:48Z</time>
      </trkpt>
      <trkpt lat="41.639848745" lon="2.484674852">
        <ele>437.54</ele>
        <time>2013-08-11T08:59:50Z</time>
      </trkpt>
      <trkpt lat="41.639862073" lon="2.484644678">
        <ele>437.06</ele>
        <time>2013-08-11T08:59:51Z</time>
      </trkpt>
      <trkpt lat="41.639943545" lon="2.484637804">
        <ele>436.10</ele>
        <time>2013-08-11T08:59:55Z</time>
      </trkpt>
      <trkpt lat="41.640101208" lon="2.484838551">
        <ele>434.17</ele>
        <time>2013-08-11T09:00:02Z</time>
      </trkpt>
      <trkpt lat="41.640226685" lon="2.485046087">
        <ele>434.17</ele>
        <time>2013-08-11T09:00:09Z</time>
      </trkpt>
      <trkpt lat="41.640320730" lon="2.485198051">
        <ele>435.13</ele>
        <time>2013-08-11T09:00:15Z</time>
      </trkpt>
      <trkpt lat="41.640477137" lon="2.485253539">
        <ele>435.61</ele>
        <time>2013-08-11T09:00:21Z</time>
      </trkpt>
      <trkpt lat="41.640721134" lon="2.485175336">
        <ele>435.61</ele>
        <time>2013-08-11T09:00:29Z</time>
      </trkpt>
      <trkpt lat="41.640882653" lon="2.485166451">
        <ele>435.61</ele>
        <time>2013-08-11T09:00:35Z</time>
      </trkpt>
      <trkpt lat="41.640969322" lon="2.485039130">
        <ele>436.10</ele>
        <time>2013-08-11T09:00:40Z</time>
      </trkpt>
      <trkpt lat="41.641005280" lon="2.484831007">
        <ele>437.54</ele>
        <time>2013-08-11T09:00:48Z</time>
      </trkpt>
      <trkpt lat="41.641009890" lon="2.484814244">
        <ele>437.54</ele>
        <time>2013-08-11T09:00:49Z</time>
      </trkpt>
      <trkpt lat="41.641030175" lon="2.484783566">
        <ele>437.54</ele>
        <time>2013-08-11T09:00:53Z</time>
      </trkpt>
      <trkpt lat="41.641046687" lon="2.484785158">
        <ele>438.02</ele>
        <time>2013-08-11T09:00:55Z</time>
      </trkpt>
      <trkpt lat="41.641084489" lon="2.484937625">
        <ele>434.65</ele>
        <time>2013-08-11T09:01:01Z</time>
      </trkpt>
      <trkpt lat="41.641181217" lon="2.485084644">
        <ele>431.29</ele>
        <time>2013-08-11T09:01:06Z</time>
      </trkpt>
      <trkpt lat="41.641225724" lon="2.485107275">
        <ele>429.37</ele>
        <time>2013-08-11T09:01:08Z</time>
      </trkpt>
      <trkpt lat="41.641373749" lon="2.485196961">
        <ele>426.48</ele>
        <time>2013-08-11T09:01:12Z</time>
      </trkpt>
      <trkpt lat="41.641570975" lon="2.485233255">
        <ele>422.64</ele>
        <time>2013-08-11T09:01:18Z</time>
      </trkpt>
      <trkpt lat="41.641602240" lon="2.485221772">
        <ele>421.68</ele>
        <time>2013-08-11T09:01:19Z</time>
      </trkpt>
      <trkpt lat="41.641811536" lon="2.485274661">
        <ele>416.87</ele>
        <time>2013-08-11T09:01:24Z</time>
      </trkpt>
      <trkpt lat="41.641919495" lon="2.485334927">
        <ele>413.50</ele>
        <time>2013-08-11T09:01:28Z</time>
      </trkpt>
      <trkpt lat="41.641993758" lon="2.485417908">
        <ele>412.06</ele>
        <time>2013-08-11T09:01:31Z</time>
      </trkpt>
      <trkpt lat="41.642086462" lon="2.485504661">
        <ele>409.18</ele>
        <time>2013-08-11T09:01:35Z</time>
      </trkpt>
      <trkpt lat="41.642222668" lon="2.485512708">
        <ele>405.81</ele>
        <time>2013-08-11T09:01:39Z</time>
      </trkpt>
      <trkpt lat="41.642318892" lon="2.485520754">
        <ele>404.37</ele>
        <time>2013-08-11T09:01:42Z</time>
      </trkpt>
      <trkpt lat="41.642396257" lon="2.485475995">
        <ele>403.41</ele>
        <time>2013-08-11T09:01:48Z</time>
      </trkpt>
      <trkpt lat="41.642423331" lon="2.485470044">
        <ele>402.93</ele>
        <time>2013-08-11T09:01:50Z</time>
      </trkpt>
      <trkpt lat="41.642516538" lon="2.485565430">
        <ele>400.05</ele>
        <time>2013-08-11T09:01:57Z</time>
      </trkpt>
      <trkpt lat="41.642547215" lon="2.485602059">
        <ele>399.08</ele>
        <time>2013-08-11T09:01:59Z</time>
      </trkpt>
      <trkpt lat="41.642636734" lon="2.485694008">
        <ele>395.72</ele>
        <time>2013-08-11T09:02:04Z</time>
      </trkpt>
      <trkpt lat="41.642695156" lon="2.485777492">
        <ele>393.80</ele>
        <time>2013-08-11T09:02:09Z</time>
      </trkpt>
      <trkpt lat="41.642648553" lon="2.485846726">
        <ele>392.36</ele>
        <time>2013-08-11T09:02:12Z</time>
      </trkpt>
      <trkpt lat="41.642630364" lon="2.485915374">
        <ele>391.87</ele>
        <time>2013-08-11T09:02:15Z</time>
      </trkpt>
      <trkpt lat="41.642635309" lon="2.486001708">
        <ele>390.91</ele>
        <time>2013-08-11T09:02:20Z</time>
      </trkpt>
      <trkpt lat="41.642664646" lon="2.486177141">
        <ele>386.59</ele>
        <time>2013-08-11T09:02:27Z</time>
      </trkpt>
      <trkpt lat="41.642679649" lon="2.486375373">
        <ele>384.66</ele>
        <time>2013-08-11T09:02:33Z</time>
      </trkpt>
      <trkpt lat="41.642694653" lon="2.486545442">
        <ele>382.74</ele>
        <time>2013-08-11T09:02:39Z</time>
      </trkpt>
      <trkpt lat="41.642684092" lon="2.486682486">
        <ele>381.30</ele>
        <time>2013-08-11T09:02:44Z</time>
      </trkpt>
      <trkpt lat="41.642722397" lon="2.486905193">
        <ele>378.90</ele>
        <time>2013-08-11T09:02:50Z</time>
      </trkpt>
      <trkpt lat="41.642743100" lon="2.486998232">
        <ele>376.97</ele>
        <time>2013-08-11T09:02:53Z</time>
      </trkpt>
      <trkpt lat="41.642757014" lon="2.487159416">
        <ele>375.05</ele>
        <time>2013-08-11T09:02:57Z</time>
      </trkpt>
      <trkpt lat="41.642802109" lon="2.487294784">
        <ele>371.21</ele>
        <time>2013-08-11T09:03:03Z</time>
      </trkpt>
      <trkpt lat="41.642848796" lon="2.487429230">
        <ele>368.32</ele>
        <time>2013-08-11T09:03:09Z</time>
      </trkpt>
      <trkpt lat="41.642902357" lon="2.487570297">
        <ele>365.44</ele>
        <time>2013-08-11T09:03:15Z</time>
      </trkpt>
      <trkpt lat="41.642923479" lon="2.487638274">
        <ele>364.96</ele>
        <time>2013-08-11T09:03:18Z</time>
      </trkpt>
      <trkpt lat="41.643049543" lon="2.487720836">
        <ele>362.07</ele>
        <time>2013-08-11T09:03:25Z</time>
      </trkpt>
      <trkpt lat="41.643183402" lon="2.487798536">
        <ele>359.67</ele>
        <time>2013-08-11T09:03:31Z</time>
      </trkpt>
      <trkpt lat="41.643224641" lon="2.487812702">
        <ele>359.19</ele>
        <time>2013-08-11T09:03:33Z</time>
      </trkpt>
      <trkpt lat="41.643288343" lon="2.487869028">
        <ele>356.79</ele>
        <time>2013-08-11T09:03:38Z</time>
      </trkpt>
      <trkpt lat="41.643287756" lon="2.487876907">
        <ele>356.79</ele>
        <time>2013-08-11T09:03:52Z</time>
      </trkpt>
      <trkpt lat="41.643289600" lon="2.487882104">
        <ele>356.79</ele>
        <time>2013-08-11T09:03:56Z</time>
      </trkpt>
      <trkpt lat="41.643315920" lon="2.487890737">
        <ele>355.83</ele>
        <time>2013-08-11T09:03:59Z</time>
      </trkpt>
      <trkpt lat="41.643413904" lon="2.487921164">
        <ele>353.90</ele>
        <time>2013-08-11T09:04:05Z</time>
      </trkpt>
      <trkpt lat="41.643525551" lon="2.487909261">
        <ele>351.98</ele>
        <time>2013-08-11T09:04:11Z</time>
      </trkpt>
      <trkpt lat="41.643542147" lon="2.487902388">
        <ele>351.98</ele>
        <time>2013-08-11T09:04:12Z</time>
      </trkpt>
      <trkpt lat="41.643668127" lon="2.487859054">
        <ele>349.58</ele>
        <time>2013-08-11T09:04:18Z</time>
      </trkpt>
      <trkpt lat="41.643765944" lon="2.487840362">
        <ele>347.17</ele>
        <time>2013-08-11T09:04:22Z</time>
      </trkpt>
      <trkpt lat="41.643824701" lon="2.487809098">
        <ele>346.69</ele>
        <time>2013-08-11T09:04:28Z</time>
      </trkpt>
      <trkpt lat="41.643817660" lon="2.487795938">
        <ele>346.69</ele>
        <time>2013-08-11T09:04:32Z</time>
      </trkpt>
      <trkpt lat="41.643755215" lon="2.487721088">
        <ele>346.69</ele>
        <time>2013-08-11T09:04:41Z</time>
      </trkpt>
      <trkpt lat="41.643748258" lon="2.487699714">
        <ele>348.13</ele>
        <time>2013-08-11T09:04:43Z</time>
      </trkpt>
      <trkpt lat="41.643692351" lon="2.487619750">
        <ele>349.58</ele>
        <time>2013-08-11T09:04:50Z</time>
      </trkpt>
      <trkpt lat="41.643663433" lon="2.487574404">
        <ele>350.06</ele>
        <time>2013-08-11T09:04:53Z</time>
      </trkpt>
      <trkpt lat="41.643660751" lon="2.487523442">
        <ele>351.02</ele>
        <time>2013-08-11T09:05:01Z</time>
      </trkpt>
      <trkpt lat="41.643653543" lon="2.487516401">
        <ele>351.02</ele>
        <time>2013-08-11T09:05:12Z</time>
      </trkpt>
      <trkpt lat="41.643679107" lon="2.487547163">
        <ele>351.02</ele>
        <time>2013-08-11T09:05:19Z</time>
      </trkpt>
      <trkpt lat="41.643720682" lon="2.487589911">
        <ele>349.58</ele>
        <time>2013-08-11T09:05:27Z</time>
      </trkpt>
      <trkpt lat="41.643731746" lon="2.487612374">
        <ele>349.58</ele>
        <time>2013-08-11T09:05:44Z</time>
      </trkpt>
      <trkpt lat="41.643731830" lon="2.487598963">
        <ele>349.58</ele>
        <time>2013-08-11T09:06:00Z</time>
      </trkpt>
      <trkpt lat="41.643733590" lon="2.487597790">
        <ele>349.58</ele>
        <time>2013-08-11T09:06:15Z</time>
      </trkpt>
      <trkpt lat="41.643728896" lon="2.487588234">
        <ele>349.58</ele>
        <time>2013-08-11T09:06:27Z</time>
      </trkpt>
      <trkpt lat="41.643714814" lon="2.487590581">
        <ele>349.58</ele>
        <time>2013-08-11T09:06:37Z</time>
      </trkpt>
      <trkpt lat="41.643724789" lon="2.487578092">
        <ele>349.58</ele>
        <time>2013-08-11T09:06:47Z</time>
      </trkpt>
      <trkpt lat="41.643709450" lon="2.487576835">
        <ele>349.58</ele>
        <time>2013-08-11T09:06:53Z</time>
      </trkpt>
      <trkpt lat="41.643706181" lon="2.487580272">
        <ele>349.58</ele>
        <time>2013-08-11T09:06:57Z</time>
      </trkpt>
      <trkpt lat="41.643628984" lon="2.487518748">
        <ele>350.54</ele>
        <time>2013-08-11T09:07:05Z</time>
      </trkpt>
      <trkpt lat="41.643599899" lon="2.487472229">
        <ele>351.50</ele>
        <time>2013-08-11T09:07:09Z</time>
      </trkpt>
      <trkpt lat="41.643509039" lon="2.487362761">
        <ele>352.94</ele>
        <time>2013-08-11T09:07:18Z</time>
      </trkpt>
      <trkpt lat="41.643446426" lon="2.487254551">
        <ele>353.90</ele>
        <time>2013-08-11T09:07:25Z</time>
      </trkpt>
      <trkpt lat="41.643391357" lon="2.487143574">
        <ele>355.34</ele>
        <time>2013-08-11T09:07:32Z</time>
      </trkpt>
      <trkpt lat="41.643372665" lon="2.487091439">
        <ele>355.83</ele>
        <time>2013-08-11T09:07:35Z</time>
      </trkpt>
      <trkpt lat="41.643362188" lon="2.486980211">
        <ele>357.27</ele>
        <time>2013-08-11T09:07:41Z</time>
      </trkpt>
      <trkpt lat="41.643439720" lon="2.486855907">
        <ele>358.71</ele>
        <time>2013-08-11T09:07:50Z</time>
      </trkpt>
      <trkpt lat="41.643539716" lon="2.486809556">
        <ele>360.63</ele>
        <time>2013-08-11T09:07:57Z</time>
      </trkpt>
      <trkpt lat="41.643623955" lon="2.486701848">
        <ele>361.59</ele>
        <time>2013-08-11T09:08:04Z</time>
      </trkpt>
      <trkpt lat="41.643661422" lon="2.486532198">
        <ele>364.00</ele>
        <time>2013-08-11T09:08:12Z</time>
      </trkpt>
      <trkpt lat="41.643653207" lon="2.486333547">
        <ele>366.40</ele>
        <time>2013-08-11T09:08:22Z</time>
      </trkpt>
      <trkpt lat="41.643619680" lon="2.486157611">
        <ele>367.36</ele>
        <time>2013-08-11T09:08:30Z</time>
      </trkpt>
      <trkpt lat="41.643602748" lon="2.485983184">
        <ele>368.80</ele>
        <time>2013-08-11T09:08:38Z</time>
      </trkpt>
      <trkpt lat="41.643561761" lon="2.485793250">
        <ele>370.73</ele>
        <time>2013-08-11T09:08:46Z</time>
      </trkpt>
      <trkpt lat="41.643451790" lon="2.485664923">
        <ele>373.13</ele>
        <time>2013-08-11T09:08:54Z</time>
      </trkpt>
      <trkpt lat="41.643340982" lon="2.485585043">
        <ele>374.57</ele>
        <time>2013-08-11T09:09:01Z</time>
      </trkpt>
      <trkpt lat="41.643221372" lon="2.485508265">
        <ele>376.01</ele>
        <time>2013-08-11T09:09:09Z</time>
      </trkpt>
      <trkpt lat="41.643105199" lon="2.485285306">
        <ele>378.90</ele>
        <time>2013-08-11T09:09:21Z</time>
      </trkpt>
      <trkpt lat="41.643012076" lon="2.485161841">
        <ele>380.34</ele>
        <time>2013-08-11T09:09:29Z</time>
      </trkpt>
      <trkpt lat="41.642941668" lon="2.485063521">
        <ele>381.78</ele>
        <time>2013-08-11T09:09:35Z</time>
      </trkpt>
      <trkpt lat="41.642884922" lon="2.484992694">
        <ele>382.74</ele>
        <time>2013-08-11T09:09:40Z</time>
      </trkpt>
      <trkpt lat="41.642748297" lon="2.484901918">
        <ele>384.18</ele>
        <time>2013-08-11T09:09:49Z</time>
      </trkpt>
      <trkpt lat="41.642620138" lon="2.484885071">
        <ele>385.63</ele>
        <time>2013-08-11T09:09:57Z</time>
      </trkpt>
      <trkpt lat="41.642471778" lon="2.484883059">
        <ele>387.07</ele>
        <time>2013-08-11T09:10:06Z</time>
      </trkpt>
      <trkpt lat="41.642340266" lon="2.484788343">
        <ele>388.03</ele>
        <time>2013-08-11T09:10:14Z</time>
      </trkpt>
      <trkpt lat="41.642271954" lon="2.484607043">
        <ele>388.51</ele>
        <time>2013-08-11T09:10:22Z</time>
      </trkpt>
      <trkpt lat="41.642324676" lon="2.484351311">
        <ele>389.47</ele>
        <time>2013-08-11T09:10:32Z</time>
      </trkpt>
      <trkpt lat="41.642409333" lon="2.484155007">
        <ele>390.43</ele>
        <time>2013-08-11T09:10:41Z</time>
      </trkpt>
      <trkpt lat="41.642454679" lon="2.483962055">
        <ele>390.91</ele>
        <time>2013-08-11T09:10:50Z</time>
      </trkpt>
      <trkpt lat="41.642451745" lon="2.483916877">
        <ele>390.91</ele>
        <time>2013-08-11T09:10:56Z</time>
      </trkpt>
      <trkpt lat="41.642444369" lon="2.483937748">
        <ele>390.91</ele>
        <time>2013-08-11T09:11:05Z</time>
      </trkpt>
      <trkpt lat="41.642439927" lon="2.483935820">
        <ele>390.91</ele>
        <time>2013-08-11T09:11:15Z</time>
      </trkpt>
      <trkpt lat="41.642397598" lon="2.483874967">
        <ele>391.39</ele>
        <time>2013-08-11T09:11:23Z</time>
      </trkpt>
      <trkpt lat="41.642387540" lon="2.483851498">
        <ele>391.87</ele>
        <time>2013-08-11T09:11:31Z</time>
      </trkpt>
      <trkpt lat="41.642400616" lon="2.483855019">
        <ele>391.87</ele>
        <time>2013-08-11T09:11:54Z</time>
      </trkpt>
      <trkpt lat="41.642422073" lon="2.483855521">
        <ele>391.87</ele>
        <time>2013-08-11T09:12:12Z</time>
      </trkpt>
      <trkpt lat="41.642416458" lon="2.483844374">
        <ele>391.87</ele>
        <time>2013-08-11T09:12:34Z</time>
      </trkpt>
      <trkpt lat="41.642418134" lon="2.483849906">
        <ele>391.87</ele>
        <time>2013-08-11T09:12:51Z</time>
      </trkpt>
      <trkpt lat="41.642414614" lon="2.483862143">
        <ele>391.87</ele>
        <time>2013-08-11T09:13:08Z</time>
      </trkpt>
      <trkpt lat="41.642413859" lon="2.483865831">
        <ele>391.87</ele>
        <time>2013-08-11T09:13:29Z</time>
      </trkpt>
      <trkpt lat="41.642424420" lon="2.483867759">
        <ele>391.87</ele>
        <time>2013-08-11T09:13:47Z</time>
      </trkpt>
      <trkpt lat="41.642427354" lon="2.483845798">
        <ele>391.87</ele>
        <time>2013-08-11T09:14:04Z</time>
      </trkpt>
      <trkpt lat="41.642413608" lon="2.483846385">
        <ele>391.87</ele>
        <time>2013-08-11T09:14:27Z</time>
      </trkpt>
      <trkpt lat="41.642408746" lon="2.483844876">
        <ele>391.87</ele>
        <time>2013-08-11T09:14:54Z</time>
      </trkpt>
      <trkpt lat="41.642399359" lon="2.483846553">
        <ele>391.87</ele>
        <time>2013-08-11T09:15:14Z</time>
      </trkpt>
      <trkpt lat="41.642398101" lon="2.483854935">
        <ele>391.87</ele>
        <time>2013-08-11T09:15:37Z</time>
      </trkpt>
      <trkpt lat="41.642393407" lon="2.483863903">
        <ele>391.87</ele>
        <time>2013-08-11T09:15:56Z</time>
      </trkpt>
      <trkpt lat="41.642397263" lon="2.483867927">
        <ele>391.87</ele>
        <time>2013-08-11T09:16:19Z</time>
      </trkpt>
      <trkpt lat="41.642409501" lon="2.483864574">
        <ele>391.87</ele>
        <time>2013-08-11T09:16:44Z</time>
      </trkpt>
      <trkpt lat="41.642416458" lon="2.483861053">
        <ele>391.87</ele>
        <time>2013-08-11T09:17:00Z</time>
      </trkpt>
      <trkpt lat="41.642419307" lon="2.483868178">
        <ele>391.87</ele>
        <time>2013-08-11T09:17:20Z</time>
      </trkpt>
      <trkpt lat="41.642430539" lon="2.483855941">
        <ele>391.87</ele>
        <time>2013-08-11T09:17:41Z</time>
      </trkpt>
      <trkpt lat="41.642424756" lon="2.483838255">
        <ele>391.87</ele>
        <time>2013-08-11T09:18:09Z</time>
      </trkpt>
      <trkpt lat="41.642424923" lon="2.483834567">
        <ele>391.87</ele>
        <time>2013-08-11T09:18:31Z</time>
      </trkpt>
      <trkpt lat="41.642431377" lon="2.483845296">
        <ele>391.87</ele>
        <time>2013-08-11T09:18:48Z</time>
      </trkpt>
      <trkpt lat="41.642431210" lon="2.483851498">
        <ele>391.87</ele>
        <time>2013-08-11T09:19:09Z</time>
      </trkpt>
      <trkpt lat="41.642409417" lon="2.483856527">
        <ele>391.87</ele>
        <time>2013-08-11T09:19:30Z</time>
      </trkpt>
      <trkpt lat="41.642406735" lon="2.483860383">
        <ele>391.87</ele>
        <time>2013-08-11T09:19:47Z</time>
      </trkpt>
      <trkpt lat="41.642395838" lon="2.483874297">
        <ele>391.87</ele>
        <time>2013-08-11T09:20:10Z</time>
      </trkpt>
      <trkpt lat="41.642401538" lon="2.483881841">
        <ele>391.87</ele>
        <time>2013-08-11T09:20:29Z</time>
      </trkpt>
      <trkpt lat="41.642391312" lon="2.483905310">
        <ele>391.87</ele>
        <time>2013-08-11T09:20:53Z</time>
      </trkpt>
      <trkpt lat="41.642412350" lon="2.483877650">
        <ele>391.87</ele>
        <time>2013-08-11T09:21:19Z</time>
      </trkpt>
      <trkpt lat="41.642406902" lon="2.483870944">
        <ele>391.87</ele>
        <time>2013-08-11T09:21:45Z</time>
      </trkpt>
      <trkpt lat="41.642414530" lon="2.483873040">
        <ele>391.87</ele>
        <time>2013-08-11T09:22:01Z</time>
      </trkpt>
      <trkpt lat="41.642425845" lon="2.483881924">
        <ele>391.87</ele>
        <time>2013-08-11T09:22:16Z</time>
      </trkpt>
      <trkpt lat="41.642424504" lon="2.483884439">
        <ele>391.87</ele>
        <time>2013-08-11T09:22:39Z</time>
      </trkpt>
      <trkpt lat="41.642409752" lon="2.483882930">
        <ele>392.36</ele>
        <time>2013-08-11T09:22:56Z</time>
      </trkpt>
      <trkpt lat="41.642400029" lon="2.483892569">
        <ele>392.36</ele>
        <time>2013-08-11T09:23:17Z</time>
      </trkpt>
      <trkpt lat="41.642388714" lon="2.483885529">
        <ele>391.87</ele>
        <time>2013-08-11T09:23:28Z</time>
      </trkpt>
      <trkpt lat="41.642386786" lon="2.483880248">
        <ele>391.87</ele>
        <time>2013-08-11T09:23:42Z</time>
      </trkpt>
      <trkpt lat="41.642389468" lon="2.483880583">
        <ele>391.87</ele>
        <time>2013-08-11T09:23:55Z</time>
      </trkpt>
      <trkpt lat="41.642382595" lon="2.483873291">
        <ele>391.87</ele>
        <time>2013-08-11T09:24:07Z</time>
      </trkpt>
      <trkpt lat="41.642378320" lon="2.483878572">
        <ele>391.87</ele>
        <time>2013-08-11T09:24:23Z</time>
      </trkpt>
      <trkpt lat="41.642370944" lon="2.483871279">
        <ele>391.87</ele>
        <time>2013-08-11T09:24:40Z</time>
      </trkpt>
      <trkpt lat="41.642367507" lon="2.483866837">
        <ele>391.87</ele>
        <time>2013-08-11T09:25:01Z</time>
      </trkpt>
      <trkpt lat="41.642363233" lon="2.483878655">
        <ele>391.87</ele>
        <time>2013-08-11T09:25:19Z</time>
      </trkpt>
      <trkpt lat="41.642369770" lon="2.483869016">
        <ele>391.87</ele>
        <time>2013-08-11T09:25:37Z</time>
      </trkpt>
      <trkpt lat="41.642368597" lon="2.483869268">
        <ele>391.87</ele>
        <time>2013-08-11T09:25:52Z</time>
      </trkpt>
      <trkpt lat="41.642363987" lon="2.483865328">
        <ele>390.91</ele>
        <time>2013-08-11T09:26:07Z</time>
      </trkpt>
      <trkpt lat="41.642389216" lon="2.483863065">
        <ele>390.43</ele>
        <time>2013-08-11T09:26:27Z</time>
      </trkpt>
      <trkpt lat="41.642396341" lon="2.483848900">
        <ele>390.43</ele>
        <time>2013-08-11T09:26:43Z</time>
      </trkpt>
      <trkpt lat="41.642402292" lon="2.483850744">
        <ele>390.43</ele>
        <time>2013-08-11T09:26:56Z</time>
      </trkpt>
      <trkpt lat="41.642401789" lon="2.483856443">
        <ele>390.43</ele>
        <time>2013-08-11T09:27:08Z</time>
      </trkpt>
      <trkpt lat="41.642391396" lon="2.483860215">
        <ele>390.43</ele>
        <time>2013-08-11T09:27:28Z</time>
      </trkpt>
      <trkpt lat="41.642391815" lon="2.483858204">
        <ele>390.43</ele>
        <time>2013-08-11T09:27:48Z</time>
      </trkpt>
      <trkpt lat="41.642392988" lon="2.483855019">
        <ele>390.43</ele>
        <time>2013-08-11T09:28:04Z</time>
      </trkpt>
      <trkpt lat="41.642389384" lon="2.483852169">
        <ele>390.43</ele>
        <time>2013-08-11T09:28:23Z</time>
      </trkpt>
      <trkpt lat="41.642371950" lon="2.483862059">
        <ele>390.43</ele>
        <time>2013-08-11T09:28:39Z</time>
      </trkpt>
      <trkpt lat="41.642364155" lon="2.483873962">
        <ele>390.43</ele>
        <time>2013-08-11T09:28:50Z</time>
      </trkpt>
      <trkpt lat="41.642377733" lon="2.483874967">
        <ele>390.43</ele>
        <time>2013-08-11T09:29:03Z</time>
      </trkpt>
      <trkpt lat="41.642383684" lon="2.483883601">
        <ele>390.43</ele>
        <time>2013-08-11T09:29:16Z</time>
      </trkpt>
      <trkpt lat="41.642401957" lon="2.483877147">
        <ele>390.91</ele>
        <time>2013-08-11T09:29:29Z</time>
      </trkpt>
      <trkpt lat="41.642388043" lon="2.483867675">
        <ele>390.43</ele>
        <time>2013-08-11T09:29:53Z</time>
      </trkpt>
      <trkpt lat="41.642378739" lon="2.483878488">
        <ele>390.43</ele>
        <time>2013-08-11T09:30:15Z</time>
      </trkpt>
      <trkpt lat="41.642394748" lon="2.483881338">
        <ele>390.43</ele>
        <time>2013-08-11T09:30:36Z</time>
      </trkpt>
      <trkpt lat="41.642408998" lon="2.483861892">
        <ele>390.43</ele>
        <time>2013-08-11T09:30:53Z</time>
      </trkpt>
      <trkpt lat="41.642405980" lon="2.483837919">
        <ele>390.43</ele>
        <time>2013-08-11T09:31:00Z</time>
      </trkpt>
      <trkpt lat="41.642393324" lon="2.483806403">
        <ele>390.43</ele>
        <time>2013-08-11T09:31:11Z</time>
      </trkpt>
      <trkpt lat="41.642390641" lon="2.483801710">
        <ele>390.43</ele>
        <time>2013-08-11T09:31:22Z</time>
      </trkpt>
      <trkpt lat="41.642378739" lon="2.483774720">
        <ele>390.43</ele>
        <time>2013-08-11T09:31:28Z</time>
      </trkpt>
      <trkpt lat="41.642368597" lon="2.483733732">
        <ele>391.39</ele>
        <time>2013-08-11T09:31:32Z</time>
      </trkpt>
      <trkpt lat="41.642390725" lon="2.483561400">
        <ele>391.87</ele>
        <time>2013-08-11T09:31:41Z</time>
      </trkpt>
      <trkpt lat="41.642482172" lon="2.483368701">
        <ele>392.36</ele>
        <time>2013-08-11T09:31:50Z</time>
      </trkpt>
      <trkpt lat="41.642564985" lon="2.483174827">
        <ele>393.80</ele>
        <time>2013-08-11T09:32:00Z</time>
      </trkpt>
      <trkpt lat="41.642599518" lon="2.483122440">
        <ele>394.28</ele>
        <time>2013-08-11T09:32:03Z</time>
      </trkpt>
      <trkpt lat="41.642808479" lon="2.483022863">
        <ele>395.24</ele>
        <time>2013-08-11T09:32:14Z</time>
      </trkpt>
      <trkpt lat="41.642932615" lon="2.483049518">
        <ele>395.24</ele>
        <time>2013-08-11T09:32:19Z</time>
      </trkpt>
      <trkpt lat="41.643006460" lon="2.482871570">
        <ele>395.24</ele>
        <time>2013-08-11T09:32:24Z</time>
      </trkpt>
      <trkpt lat="41.643020374" lon="2.482681133">
        <ele>393.32</ele>
        <time>2013-08-11T09:32:27Z</time>
      </trkpt>
      <trkpt lat="41.643090111" lon="2.482425820">
        <ele>392.84</ele>
        <time>2013-08-11T09:32:31Z</time>
      </trkpt>
      <trkpt lat="41.643125483" lon="2.482258182">
        <ele>391.39</ele>
        <time>2013-08-11T09:32:33Z</time>
      </trkpt>
      <trkpt lat="41.643289181" lon="2.481967246">
        <ele>389.95</ele>
        <time>2013-08-11T09:32:37Z</time>
      </trkpt>
      <trkpt lat="41.643476685" lon="2.481862556">
        <ele>389.95</ele>
        <time>2013-08-11T09:32:41Z</time>
      </trkpt>
      <trkpt lat="41.643507614" lon="2.481796423">
        <ele>389.95</ele>
        <time>2013-08-11T09:32:45Z</time>
      </trkpt>
      <trkpt lat="41.643482468" lon="2.481766667">
        <ele>390.43</ele>
        <time>2013-08-11T09:32:55Z</time>
      </trkpt>
      <trkpt lat="41.643477942" lon="2.481777480">
        <ele>389.95</ele>
        <time>2013-08-11T09:33:04Z</time>
      </trkpt>
      <trkpt lat="41.643484815" lon="2.481779827">
        <ele>389.95</ele>
        <time>2013-08-11T09:33:26Z</time>
      </trkpt>
      <trkpt lat="41.643487413" lon="2.481778318">
        <ele>389.95</ele>
        <time>2013-08-11T09:33:44Z</time>
      </trkpt>
      <trkpt lat="41.643475930" lon="2.481789466">
        <ele>389.95</ele>
        <time>2013-08-11T09:34:04Z</time>
      </trkpt>
      <trkpt lat="41.643480205" lon="2.481780833">
        <ele>389.95</ele>
        <time>2013-08-11T09:34:22Z</time>
      </trkpt>
      <trkpt lat="41.643469728" lon="2.481776726">
        <ele>389.95</ele>
        <time>2013-08-11T09:34:41Z</time>
      </trkpt>
      <trkpt lat="41.643467297" lon="2.481779408">
        <ele>389.95</ele>
        <time>2013-08-11T09:34:57Z</time>
      </trkpt>
      <trkpt lat="41.643464112" lon="2.481774211">
        <ele>389.95</ele>
        <time>2013-08-11T09:35:09Z</time>
      </trkpt>
      <trkpt lat="41.643454472" lon="2.481778570">
        <ele>389.95</ele>
        <time>2013-08-11T09:35:24Z</time>
      </trkpt>
      <trkpt lat="41.643451120" lon="2.481769098">
        <ele>389.95</ele>
        <time>2013-08-11T09:35:39Z</time>
      </trkpt>
      <trkpt lat="41.643452796" lon="2.481768595">
        <ele>389.95</ele>
        <time>2013-08-11T09:35:58Z</time>
      </trkpt>
      <trkpt lat="41.643456065" lon="2.481765997">
        <ele>389.95</ele>
        <time>2013-08-11T09:36:15Z</time>
      </trkpt>
      <trkpt lat="41.643447767" lon="2.481777229">
        <ele>389.95</ele>
        <time>2013-08-11T09:36:31Z</time>
      </trkpt>
      <trkpt lat="41.643438295" lon="2.481781587">
        <ele>389.95</ele>
        <time>2013-08-11T09:36:46Z</time>
      </trkpt>
      <trkpt lat="41.643436284" lon="2.481776558">
        <ele>389.95</ele>
        <time>2013-08-11T09:37:01Z</time>
      </trkpt>
      <trkpt lat="41.643435529" lon="2.481766751">
        <ele>389.95</ele>
        <time>2013-08-11T09:37:14Z</time>
      </trkpt>
      <trkpt lat="41.643436284" lon="2.481771696">
        <ele>389.95</ele>
        <time>2013-08-11T09:37:26Z</time>
      </trkpt>
      <trkpt lat="41.643441313" lon="2.481778905">
        <ele>389.95</ele>
        <time>2013-08-11T09:37:47Z</time>
      </trkpt>
      <trkpt lat="41.643452461" lon="2.481785694">
        <ele>390.43</ele>
        <time>2013-08-11T09:38:11Z</time>
      </trkpt>
      <trkpt lat="41.643453383" lon="2.481775049">
        <ele>390.43</ele>
        <time>2013-08-11T09:38:28Z</time>
      </trkpt>
      <trkpt lat="41.643444833" lon="2.481770858">
        <ele>390.43</ele>
        <time>2013-08-11T09:38:43Z</time>
      </trkpt>
      <trkpt lat="41.643441564" lon="2.481769852">
        <ele>390.43</ele>
        <time>2013-08-11T09:38:58Z</time>
      </trkpt>
      <trkpt lat="41.643440307" lon="2.481775636">
        <ele>390.43</ele>
        <time>2013-08-11T09:39:15Z</time>
      </trkpt>
      <trkpt lat="41.643435948" lon="2.481769433">
        <ele>390.43</ele>
        <time>2013-08-11T09:39:31Z</time>
      </trkpt>
      <trkpt lat="41.643434691" lon="2.481767254">
        <ele>390.43</ele>
        <time>2013-08-11T09:39:46Z</time>
      </trkpt>
      <trkpt lat="41.643433350" lon="2.481768092">
        <ele>390.43</ele>
        <time>2013-08-11T09:40:03Z</time>
      </trkpt>
      <trkpt lat="41.643435948" lon="2.481765997">
        <ele>390.43</ele>
        <time>2013-08-11T09:40:17Z</time>
      </trkpt>
      <trkpt lat="41.643431338" lon="2.481769350">
        <ele>390.43</ele>
        <time>2013-08-11T09:40:36Z</time>
      </trkpt>
      <trkpt lat="41.643431255" lon="2.481770439">
        <ele>390.43</ele>
        <time>2013-08-11T09:40:55Z</time>
      </trkpt>
      <trkpt lat="41.643424968" lon="2.481773792">
        <ele>390.43</ele>
        <time>2013-08-11T09:41:09Z</time>
      </trkpt>
      <trkpt lat="41.643421951" lon="2.481764488">
        <ele>390.43</ele>
        <time>2013-08-11T09:41:23Z</time>
      </trkpt>
      <trkpt lat="41.643422035" lon="2.481763398">
        <ele>390.43</ele>
        <time>2013-08-11T09:41:41Z</time>
      </trkpt>
      <trkpt lat="41.643416419" lon="2.481770858">
        <ele>390.43</ele>
        <time>2013-08-11T09:42:00Z</time>
      </trkpt>
      <trkpt lat="41.643420945" lon="2.481782342">
        <ele>389.95</ele>
        <time>2013-08-11T09:42:16Z</time>
      </trkpt>
      <trkpt lat="41.643434859" lon="2.481777480">
        <ele>389.95</ele>
        <time>2013-08-11T09:42:32Z</time>
      </trkpt>
      <trkpt lat="41.643435865" lon="2.481772451">
        <ele>389.95</ele>
        <time>2013-08-11T09:42:51Z</time>
      </trkpt>
      <trkpt lat="41.643432093" lon="2.481778151">
        <ele>389.95</ele>
        <time>2013-08-11T09:43:09Z</time>
      </trkpt>
      <trkpt lat="41.643439720" lon="2.481784269">
        <ele>389.95</ele>
        <time>2013-08-11T09:43:26Z</time>
      </trkpt>
      <trkpt lat="41.643452545" lon="2.481780581">
        <ele>389.95</ele>
        <time>2013-08-11T09:43:39Z</time>
      </trkpt>
      <trkpt lat="41.643473667" lon="2.481775720">
        <ele>390.91</ele>
        <time>2013-08-11T09:43:49Z</time>
      </trkpt>
      <trkpt lat="41.643477187" lon="2.481786113">
        <ele>390.91</ele>
        <time>2013-08-11T09:43:58Z</time>
      </trkpt>
      <trkpt lat="41.643477439" lon="2.481771194">
        <ele>390.91</ele>
        <time>2013-08-11T09:44:07Z</time>
      </trkpt>
      <trkpt lat="41.643476014" lon="2.481776474">
        <ele>390.91</ele>
        <time>2013-08-11T09:44:20Z</time>
      </trkpt>
      <trkpt lat="41.643479953" lon="2.481708916">
        <ele>390.91</ele>
        <time>2013-08-11T09:44:28Z</time>
      </trkpt>
      <trkpt lat="41.643485988" lon="2.481515629">
        <ele>392.36</ele>
        <time>2013-08-11T09:44:36Z</time>
      </trkpt>
      <trkpt lat="41.643450114" lon="2.481275739">
        <ele>394.76</ele>
        <time>2013-08-11T09:44:46Z</time>
      </trkpt>
      <trkpt lat="41.643412563" lon="2.481081028">
        <ele>396.20</ele>
        <time>2013-08-11T09:44:54Z</time>
      </trkpt>
      <trkpt lat="41.643335114" lon="2.480903248">
        <ele>397.64</ele>
        <time>2013-08-11T09:45:03Z</time>
      </trkpt>
      <trkpt lat="41.643213157" lon="2.480749607">
        <ele>399.57</ele>
        <time>2013-08-11T09:45:13Z</time>
      </trkpt>
      <trkpt lat="41.643180803" lon="2.480663274">
        <ele>400.53</ele>
        <time>2013-08-11T09:45:19Z</time>
      </trkpt>
      <trkpt lat="41.643167476" lon="2.480640140">
        <ele>401.01</ele>
        <time>2013-08-11T09:45:21Z</time>
      </trkpt>
      <trkpt lat="41.643200920" lon="2.480487673">
        <ele>401.97</ele>
        <time>2013-08-11T09:45:30Z</time>
      </trkpt>
      <trkpt lat="41.643189772" lon="2.480309557">
        <ele>403.41</ele>
        <time>2013-08-11T09:45:40Z</time>
      </trkpt>
      <trkpt lat="41.643180971" lon="2.480246442">
        <ele>404.37</ele>
        <time>2013-08-11T09:45:43Z</time>
      </trkpt>
      <trkpt lat="41.643132607" lon="2.480047790">
        <ele>405.81</ele>
        <time>2013-08-11T09:45:54Z</time>
      </trkpt>
      <trkpt lat="41.643095978" lon="2.479802033">
        <ele>407.74</ele>
        <time>2013-08-11T09:46:06Z</time>
      </trkpt>
      <trkpt lat="41.643035880" lon="2.479652332">
        <ele>409.18</ele>
        <time>2013-08-11T09:46:15Z</time>
      </trkpt>
      <trkpt lat="41.642913588" lon="2.479535069">
        <ele>411.58</ele>
        <time>2013-08-11T09:46:25Z</time>
      </trkpt>
      <trkpt lat="41.642820717" lon="2.479485784">
        <ele>413.50</ele>
        <time>2013-08-11T09:46:33Z</time>
      </trkpt>
      <trkpt lat="41.642808563" lon="2.479495339">
        <ele>413.98</ele>
        <time>2013-08-11T09:46:34Z</time>
      </trkpt>
      <trkpt lat="41.642800433" lon="2.479599862">
        <ele>415.43</ele>
        <time>2013-08-11T09:46:41Z</time>
      </trkpt>
      <trkpt lat="41.642849467" lon="2.479704049">
        <ele>416.39</ele>
        <time>2013-08-11T09:46:48Z</time>
      </trkpt>
      <trkpt lat="41.642876037" lon="2.479744533">
        <ele>416.39</ele>
        <time>2013-08-11T09:46:51Z</time>
      </trkpt>
      <trkpt lat="41.642939405" lon="2.479919799">
        <ele>417.83</ele>
        <time>2013-08-11T09:47:00Z</time>
      </trkpt>
      <trkpt lat="41.642933537" lon="2.480111074">
        <ele>418.31</ele>
        <time>2013-08-11T09:47:08Z</time>
      </trkpt>
      <trkpt lat="41.642890790" lon="2.480400669">
        <ele>418.31</ele>
        <time>2013-08-11T09:47:18Z</time>
      </trkpt>
      <trkpt lat="41.642845863" lon="2.480680289">
        <ele>419.27</ele>
        <time>2013-08-11T09:47:27Z</time>
      </trkpt>
      <trkpt lat="41.642877378" lon="2.480922777">
        <ele>420.23</ele>
        <time>2013-08-11T09:47:35Z</time>
      </trkpt>
      <trkpt lat="41.642800265" lon="2.481103324">
        <ele>420.23</ele>
        <time>2013-08-11T09:47:41Z</time>
      </trkpt>
      <trkpt lat="41.642615528" lon="2.481255204">
        <ele>420.71</ele>
        <time>2013-08-11T09:47:49Z</time>
      </trkpt>
      <trkpt lat="41.642361137" lon="2.481358720">
        <ele>421.19</ele>
        <time>2013-08-11T09:47:58Z</time>
      </trkpt>
      <trkpt lat="41.642189392" lon="2.481330222">
        <ele>421.19</ele>
        <time>2013-08-11T09:48:04Z</time>
      </trkpt>
      <trkpt lat="41.642162486" lon="2.481318990">
        <ele>421.19</ele>
        <time>2013-08-11T09:48:05Z</time>
      </trkpt>
      <trkpt lat="41.642077074" lon="2.481427452">
        <ele>421.68</ele>
        <time>2013-08-11T09:48:11Z</time>
      </trkpt>
      <trkpt lat="41.642101047" lon="2.481522503">
        <ele>421.68</ele>
        <time>2013-08-11T09:48:14Z</time>
      </trkpt>
      <trkpt lat="41.642249825" lon="2.481763398">
        <ele>422.16</ele>
        <time>2013-08-11T09:48:23Z</time>
      </trkpt>
      <trkpt lat="41.642315959" lon="2.481963977">
        <ele>422.64</ele>
        <time>2013-08-11T09:48:30Z</time>
      </trkpt>
      <trkpt lat="41.642169443" lon="2.482162126">
        <ele>422.64</ele>
        <time>2013-08-11T09:48:36Z</time>
      </trkpt>
      <trkpt lat="41.642023933" lon="2.482410900">
        <ele>422.64</ele>
        <time>2013-08-11T09:48:43Z</time>
      </trkpt>
      <trkpt lat="41.642015635" lon="2.482456833">
        <ele>422.64</ele>
        <time>2013-08-11T09:48:44Z</time>
      </trkpt>
      <trkpt lat="41.642001218" lon="2.482570660">
        <ele>421.19</ele>
        <time>2013-08-11T09:48:46Z</time>
      </trkpt>
      <trkpt lat="41.641869036" lon="2.483053373">
        <ele>420.23</ele>
        <time>2013-08-11T09:48:54Z</time>
      </trkpt>
      <trkpt lat="41.641648508" lon="2.483317068">
        <ele>420.23</ele>
        <time>2013-08-11T09:49:01Z</time>
      </trkpt>
      <trkpt lat="41.641450108" lon="2.483494010">
        <ele>420.23</ele>
        <time>2013-08-11T09:49:08Z</time>
      </trkpt>
      <trkpt lat="41.641391854" lon="2.483557629">
        <ele>421.68</ele>
        <time>2013-08-11T09:49:11Z</time>
      </trkpt>
      <trkpt lat="41.641441894" lon="2.483720657">
        <ele>423.60</ele>
        <time>2013-08-11T09:49:18Z</time>
      </trkpt>
      <trkpt lat="41.641480786" lon="2.483791987">
        <ele>424.08</ele>
        <time>2013-08-11T09:49:21Z</time>
      </trkpt>
      <trkpt lat="41.641494364" lon="2.484053670">
        <ele>426.48</ele>
        <time>2013-08-11T09:49:30Z</time>
      </trkpt>
      <trkpt lat="41.641425549" lon="2.484210076">
        <ele>426.96</ele>
        <time>2013-08-11T09:49:36Z</time>
      </trkpt>
      <trkpt lat="41.641322452" lon="2.484319460">
        <ele>428.89</ele>
        <time>2013-08-11T09:49:43Z</time>
      </trkpt>
      <trkpt lat="41.641216337" lon="2.484391628">
        <ele>429.85</ele>
        <time>2013-08-11T09:49:50Z</time>
      </trkpt>
      <trkpt lat="41.641164285" lon="2.484430185">
        <ele>431.29</ele>
        <time>2013-08-11T09:49:54Z</time>
      </trkpt>
      <trkpt lat="41.641102427" lon="2.484585250">
        <ele>432.73</ele>
        <time>2013-08-11T09:50:02Z</time>
      </trkpt>
      <trkpt lat="41.641063116" lon="2.484723216">
        <ele>434.65</ele>
        <time>2013-08-11T09:50:10Z</time>
      </trkpt>
      <trkpt lat="41.641052890" lon="2.484734364">
        <ele>435.13</ele>
        <time>2013-08-11T09:50:11Z</time>
      </trkpt>
      <trkpt lat="41.640977201" lon="2.484723551">
        <ele>436.10</ele>
        <time>2013-08-11T09:50:18Z</time>
      </trkpt>
      <trkpt lat="41.640956079" lon="2.484598158">
        <ele>437.06</ele>
        <time>2013-08-11T09:50:27Z</time>
      </trkpt>
      <trkpt lat="41.640937974" lon="2.484483158">
        <ele>438.02</ele>
        <time>2013-08-11T09:50:35Z</time>
      </trkpt>
      <trkpt lat="41.640922132" lon="2.484306719">
        <ele>439.46</ele>
        <time>2013-08-11T09:50:44Z</time>
      </trkpt>
      <trkpt lat="41.640881983" lon="2.484089879">
        <ele>440.90</ele>
        <time>2013-08-11T09:50:54Z</time>
      </trkpt>
      <trkpt lat="41.640848120" lon="2.483886367">
        <ele>442.34</ele>
        <time>2013-08-11T09:51:04Z</time>
      </trkpt>
      <trkpt lat="41.640812245" lon="2.483733900">
        <ele>444.27</ele>
        <time>2013-08-11T09:51:12Z</time>
      </trkpt>
      <trkpt lat="41.640768659" lon="2.483567603">
        <ele>446.19</ele>
        <time>2013-08-11T09:51:21Z</time>
      </trkpt>
      <trkpt lat="41.640738401" lon="2.483497530">
        <ele>446.67</ele>
        <time>2013-08-11T09:51:25Z</time>
      </trkpt>
      <trkpt lat="41.640666568" lon="2.483332155">
        <ele>449.07</ele>
        <time>2013-08-11T09:51:34Z</time>
      </trkpt>
      <trkpt lat="41.640577300" lon="2.483189747">
        <ele>451.00</ele>
        <time>2013-08-11T09:51:43Z</time>
      </trkpt>
      <trkpt lat="41.640473952" lon="2.483056726">
        <ele>452.92</ele>
        <time>2013-08-11T09:51:53Z</time>
      </trkpt>
      <trkpt lat="41.640380745" lon="2.482945582">
        <ele>454.84</ele>
        <time>2013-08-11T09:52:02Z</time>
      </trkpt>
      <trkpt lat="41.640316372" lon="2.482820021">
        <ele>455.80</ele>
        <time>2013-08-11T09:52:10Z</time>
      </trkpt>
      <trkpt lat="41.640249568" lon="2.482645845">
        <ele>457.24</ele>
        <time>2013-08-11T09:52:20Z</time>
      </trkpt>
      <trkpt lat="41.640244539" lon="2.482628578">
        <ele>457.72</ele>
        <time>2013-08-11T09:52:21Z</time>
      </trkpt>
      <trkpt lat="41.640151332" lon="2.482588010">
        <ele>459.17</ele>
        <time>2013-08-11T09:52:29Z</time>
      </trkpt>
      <trkpt lat="41.640077990" lon="2.482721534">
        <ele>462.05</ele>
        <time>2013-08-11T09:52:39Z</time>
      </trkpt>
      <trkpt lat="41.639984197" lon="2.482798312">
        <ele>463.01</ele>
        <time>2013-08-11T09:52:47Z</time>
      </trkpt>
      <trkpt lat="41.639839861" lon="2.482798899">
        <ele>463.97</ele>
        <time>2013-08-11T09:52:56Z</time>
      </trkpt>
      <trkpt lat="41.639721005" lon="2.482760258">
        <ele>464.45</ele>
        <time>2013-08-11T09:53:03Z</time>
      </trkpt>
      <trkpt lat="41.639595528" lon="2.482718013">
        <ele>465.42</ele>
        <time>2013-08-11T09:53:10Z</time>
      </trkpt>
      <trkpt lat="41.639458065" lon="2.482654814">
        <ele>465.42</ele>
        <time>2013-08-11T09:53:18Z</time>
      </trkpt>
      <trkpt lat="41.639449432" lon="2.482644001">
        <ele>465.42</ele>
        <time>2013-08-11T09:53:19Z</time>
      </trkpt>
      <trkpt lat="41.639505339" lon="2.482492289">
        <ele>466.38</ele>
        <time>2013-08-11T09:53:28Z</time>
      </trkpt>
      <trkpt lat="41.639531993" lon="2.482466053">
        <ele>466.38</ele>
        <time>2013-08-11T09:53:34Z</time>
      </trkpt>
      <trkpt lat="41.639512799" lon="2.482464377">
        <ele>466.38</ele>
        <time>2013-08-11T09:53:48Z</time>
      </trkpt>
      <trkpt lat="41.639522773" lon="2.482456833">
        <ele>466.38</ele>
        <time>2013-08-11T09:54:05Z</time>
      </trkpt>
      <trkpt lat="41.639529060" lon="2.482440069">
        <ele>466.38</ele>
        <time>2013-08-11T09:54:16Z</time>
      </trkpt>
      <trkpt lat="41.639543812" lon="2.482433615">
        <ele>466.38</ele>
        <time>2013-08-11T09:54:33Z</time>
      </trkpt>
      <trkpt lat="41.639540543" lon="2.482439567">
        <ele>466.38</ele>
        <time>2013-08-11T09:54:49Z</time>
      </trkpt>
      <trkpt lat="41.639553199" lon="2.482435543">
        <ele>466.38</ele>
        <time>2013-08-11T09:55:01Z</time>
      </trkpt>
      <trkpt lat="41.639583961" lon="2.482410565">
        <ele>466.38</ele>
        <time>2013-08-11T09:55:10Z</time>
      </trkpt>
      <trkpt lat="41.639613130" lon="2.482376954">
        <ele>466.38</ele>
        <time>2013-08-11T09:55:14Z</time>
      </trkpt>
      <trkpt lat="41.639680269" lon="2.482282993">
        <ele>466.86</ele>
        <time>2013-08-11T09:55:22Z</time>
      </trkpt>
      <trkpt lat="41.639709606" lon="2.482245609">
        <ele>466.86</ele>
        <time>2013-08-11T09:55:25Z</time>
      </trkpt>
      <trkpt lat="41.639802561" lon="2.482105632">
        <ele>467.82</ele>
        <time>2013-08-11T09:55:36Z</time>
      </trkpt>
      <trkpt lat="41.639887637" lon="2.481953500">
        <ele>468.30</ele>
        <time>2013-08-11T09:55:45Z</time>
      </trkpt>
      <trkpt lat="41.639917645" lon="2.481868340">
        <ele>468.78</ele>
        <time>2013-08-11T09:55:49Z</time>
      </trkpt>
      <trkpt lat="41.639948406" lon="2.481585870">
        <ele>469.26</ele>
        <time>2013-08-11T09:56:00Z</time>
      </trkpt>
      <trkpt lat="41.639941198" lon="2.481397445">
        <ele>469.74</ele>
        <time>2013-08-11T09:56:07Z</time>
      </trkpt>
      <trkpt lat="41.639871293" lon="2.481179012">
        <ele>469.74</ele>
        <time>2013-08-11T09:56:14Z</time>
      </trkpt>
      <trkpt lat="41.639823683" lon="2.480964938">
        <ele>468.30</ele>
        <time>2013-08-11T09:56:18Z</time>
      </trkpt>
      <trkpt lat="41.639791665" lon="2.480858404">
        <ele>466.86</ele>
        <time>2013-08-11T09:56:20Z</time>
      </trkpt>
      <trkpt lat="41.639765094" lon="2.480601164">
        <ele>465.90</ele>
        <time>2013-08-11T09:56:24Z</time>
      </trkpt>
      <trkpt lat="41.639762663" lon="2.480280724">
        <ele>463.97</ele>
        <time>2013-08-11T09:56:28Z</time>
      </trkpt>
      <trkpt lat="41.639680353" lon="2.479859868">
        <ele>460.13</ele>
        <time>2013-08-11T09:56:33Z</time>
      </trkpt>
      <trkpt lat="41.639598713" lon="2.479505398">
        <ele>457.72</ele>
        <time>2013-08-11T09:56:37Z</time>
      </trkpt>
      <trkpt lat="41.639547500" lon="2.479010614">
        <ele>453.40</ele>
        <time>2013-08-11T09:56:42Z</time>
      </trkpt>
      <trkpt lat="41.639541800" lon="2.478940290">
        <ele>452.44</ele>
        <time>2013-08-11T09:56:43Z</time>
      </trkpt>
      <trkpt lat="41.639465022" lon="2.478846831">
        <ele>451.48</ele>
        <time>2013-08-11T09:56:48Z</time>
      </trkpt>
      <trkpt lat="41.639351028" lon="2.478978930">
        <ele>450.52</ele>
        <time>2013-08-11T09:56:53Z</time>
      </trkpt>
      <trkpt lat="41.639193281" lon="2.479255617">
        <ele>448.59</ele>
        <time>2013-08-11T09:56:58Z</time>
      </trkpt>
      <trkpt lat="41.639059673" lon="2.479322169">
        <ele>445.71</ele>
        <time>2013-08-11T09:57:03Z</time>
      </trkpt>
      <trkpt lat="41.639054728" lon="2.479225190">
        <ele>445.23</ele>
        <time>2013-08-11T09:57:06Z</time>
      </trkpt>
      <trkpt lat="41.639063445" lon="2.479006255">
        <ele>444.27</ele>
        <time>2013-08-11T09:57:11Z</time>
      </trkpt>
      <trkpt lat="41.639031594" lon="2.478760498">
        <ele>443.79</ele>
        <time>2013-08-11T09:57:15Z</time>
      </trkpt>
      <trkpt lat="41.639046513" lon="2.478496049">
        <ele>442.82</ele>
        <time>2013-08-11T09:57:19Z</time>
      </trkpt>
      <trkpt lat="41.639096553" lon="2.478175357">
        <ele>440.90</ele>
        <time>2013-08-11T09:57:24Z</time>
      </trkpt>
      <trkpt lat="41.639052967" lon="2.477928091">
        <ele>440.42</ele>
        <time>2013-08-11T09:57:28Z</time>
      </trkpt>
      <trkpt lat="41.639076688" lon="2.477466835">
        <ele>438.98</ele>
        <time>2013-08-11T09:57:36Z</time>
      </trkpt>
      <trkpt lat="41.639122453" lon="2.477298442">
        <ele>438.98</ele>
        <time>2013-08-11T09:57:39Z</time>
      </trkpt>
      <trkpt lat="41.639205183" lon="2.476794019">
        <ele>438.50</ele>
        <time>2013-08-11T09:57:49Z</time>
      </trkpt>
      <trkpt lat="41.639285984" lon="2.476457318">
        <ele>436.58</ele>
        <time>2013-08-11T09:57:56Z</time>
      </trkpt>
      <trkpt lat="41.639277603" lon="2.476191025">
        <ele>436.10</ele>
        <time>2013-08-11T09:58:00Z</time>
      </trkpt>
      <trkpt lat="41.639330492" lon="2.475931605">
        <ele>434.65</ele>
        <time>2013-08-11T09:58:04Z</time>
      </trkpt>
      <trkpt lat="41.639389920" lon="2.475614434">
        <ele>434.17</ele>
        <time>2013-08-11T09:58:10Z</time>
      </trkpt>
      <trkpt lat="41.639418670" lon="2.475382591">
        <ele>434.17</ele>
        <time>2013-08-11T09:58:16Z</time>
      </trkpt>
      <trkpt lat="41.639407187" lon="2.475095678">
        <ele>434.17</ele>
        <time>2013-08-11T09:58:22Z</time>
      </trkpt>
      <trkpt lat="41.639300066" lon="2.474743722">
        <ele>432.73</ele>
        <time>2013-08-11T09:58:28Z</time>
      </trkpt>
      <trkpt lat="41.639280033" lon="2.474673733">
        <ele>432.25</ele>
        <time>2013-08-11T09:58:29Z</time>
      </trkpt>
      <trkpt lat="41.639249523" lon="2.474472316">
        <ele>431.29</ele>
        <time>2013-08-11T09:58:32Z</time>
      </trkpt>
      <trkpt lat="41.639329570" lon="2.474217925">
        <ele>429.85</ele>
        <time>2013-08-11T09:58:37Z</time>
      </trkpt>
      <trkpt lat="41.639389585" lon="2.474190600">
        <ele>429.37</ele>
        <time>2013-08-11T09:58:39Z</time>
      </trkpt>
      <trkpt lat="41.639538028" lon="2.474093035">
        <ele>428.89</ele>
        <time>2013-08-11T09:58:46Z</time>
      </trkpt>
      <trkpt lat="41.639621847" lon="2.473998403">
        <ele>428.40</ele>
        <time>2013-08-11T09:58:51Z</time>
      </trkpt>
      <trkpt lat="41.639684209" lon="2.473893210">
        <ele>427.92</ele>
        <time>2013-08-11T09:58:58Z</time>
      </trkpt>
      <trkpt lat="41.639730728" lon="2.473797321">
        <ele>427.44</ele>
        <time>2013-08-11T09:59:03Z</time>
      </trkpt>
      <trkpt lat="41.639848578" lon="2.473655500">
        <ele>426.96</ele>
        <time>2013-08-11T09:59:10Z</time>
      </trkpt>
      <trkpt lat="41.639907335" lon="2.473631276">
        <ele>426.96</ele>
        <time>2013-08-11T09:59:12Z</time>
      </trkpt>
      <trkpt lat="41.639962320" lon="2.473477887">
        <ele>426.96</ele>
        <time>2013-08-11T09:59:17Z</time>
      </trkpt>
      <trkpt lat="41.639954106" lon="2.473445533">
        <ele>426.96</ele>
        <time>2013-08-11T09:59:18Z</time>
      </trkpt>
      <trkpt lat="41.639879842" lon="2.473159542">
        <ele>426.00</ele>
        <time>2013-08-11T09:59:26Z</time>
      </trkpt>
      <trkpt lat="41.639870119" lon="2.473078992">
        <ele>425.04</ele>
        <time>2013-08-11T09:59:32Z</time>
      </trkpt>
      <trkpt lat="41.639855954" lon="2.472894507">
        <ele>423.12</ele>
        <time>2013-08-11T09:59:40Z</time>
      </trkpt>
      <trkpt lat="41.639839358" lon="2.472722929">
        <ele>421.68</ele>
        <time>2013-08-11T09:59:47Z</time>
      </trkpt>
      <trkpt lat="41.639813038" lon="2.472561242">
        <ele>420.71</ele>
        <time>2013-08-11T09:59:54Z</time>
      </trkpt>
      <trkpt lat="41.639798370" lon="2.472439788">
        <ele>419.75</ele>
        <time>2013-08-11T09:59:58Z</time>
      </trkpt>
      <trkpt lat="41.639770291" lon="2.472308528">
        <ele>418.79</ele>
        <time>2013-08-11T10:00:04Z</time>
      </trkpt>
      <trkpt lat="41.639754868" lon="2.472244742">
        <ele>418.79</ele>
        <time>2013-08-11T10:00:10Z</time>
      </trkpt>
      <trkpt lat="41.639749923" lon="2.472246669">
        <ele>418.79</ele>
        <time>2013-08-11T10:00:19Z</time>
      </trkpt>
      <trkpt lat="41.639752940" lon="2.472209621">
        <ele>418.79</ele>
        <time>2013-08-11T10:00:26Z</time>
      </trkpt>
      <trkpt lat="41.639742211" lon="2.472142566">
        <ele>419.27</ele>
        <time>2013-08-11T10:00:33Z</time>
      </trkpt>
      <trkpt lat="41.639745061" lon="2.472062603">
        <ele>419.27</ele>
        <time>2013-08-11T10:00:40Z</time>
      </trkpt>
      <trkpt lat="41.639751096" lon="2.471883817">
        <ele>418.79</ele>
        <time>2013-08-11T10:00:47Z</time>
      </trkpt>
      <trkpt lat="41.639744307" lon="2.471857749">
        <ele>418.79</ele>
        <time>2013-08-11T10:00:48Z</time>
      </trkpt>
      <trkpt lat="41.639643221" lon="2.471676700">
        <ele>418.79</ele>
        <time>2013-08-11T10:00:55Z</time>
      </trkpt>
      <trkpt lat="41.639567533" lon="2.471381573">
        <ele>418.79</ele>
        <time>2013-08-11T10:01:03Z</time>
      </trkpt>
      <trkpt lat="41.639490754" lon="2.471112179">
        <ele>418.79</ele>
        <time>2013-08-11T10:01:10Z</time>
      </trkpt>
      <trkpt lat="41.639401738" lon="2.470874133">
        <ele>418.31</ele>
        <time>2013-08-11T10:01:16Z</time>
      </trkpt>
      <trkpt lat="41.639237286" lon="2.470485129">
        <ele>417.83</ele>
        <time>2013-08-11T10:01:26Z</time>
      </trkpt>
      <trkpt lat="41.639129159" lon="2.470259152">
        <ele>418.79</ele>
        <time>2013-08-11T10:01:33Z</time>
      </trkpt>
      <trkpt lat="41.639030336" lon="2.470119091">
        <ele>417.35</ele>
        <time>2013-08-11T10:01:39Z</time>
      </trkpt>
      <trkpt lat="41.638991277" lon="2.469932677">
        <ele>415.43</ele>
        <time>2013-08-11T10:01:45Z</time>
      </trkpt>
      <trkpt lat="41.638965041" lon="2.469740145">
        <ele>413.50</ele>
        <time>2013-08-11T10:01:50Z</time>
      </trkpt>
      <trkpt lat="41.638928496" lon="2.469493633">
        <ele>411.10</ele>
        <time>2013-08-11T10:01:56Z</time>
      </trkpt>
      <trkpt lat="41.638991696" lon="2.469297329">
        <ele>409.66</ele>
        <time>2013-08-11T10:02:02Z</time>
      </trkpt>
      <trkpt lat="41.638968226" lon="2.469063474">
        <ele>407.26</ele>
        <time>2013-08-11T10:02:09Z</time>
      </trkpt>
      <trkpt lat="41.638948529" lon="2.468947049">
        <ele>405.33</ele>
        <time>2013-08-11T10:02:15Z</time>
      </trkpt>
      <trkpt lat="41.638980632" lon="2.468810257">
        <ele>403.41</ele>
        <time>2013-08-11T10:02:22Z</time>
      </trkpt>
      <trkpt lat="41.639036288" lon="2.468629627">
        <ele>402.93</ele>
        <time>2013-08-11T10:02:29Z</time>
      </trkpt>
      <trkpt lat="41.639059673" lon="2.468460228">
        <ele>402.93</ele>
        <time>2013-08-11T10:02:36Z</time>
      </trkpt>
      <trkpt lat="41.639142738" lon="2.468287729">
        <ele>402.93</ele>
        <time>2013-08-11T10:02:44Z</time>
      </trkpt>
      <trkpt lat="41.639152461" lon="2.468200976">
        <ele>402.93</ele>
        <time>2013-08-11T10:02:47Z</time>
      </trkpt>
      <trkpt lat="41.639119939" lon="2.468040211">
        <ele>402.45</ele>
        <time>2013-08-11T10:02:53Z</time>
      </trkpt>
      <trkpt lat="41.639103175" lon="2.467986232">
        <ele>402.45</ele>
        <time>2013-08-11T10:02:59Z</time>
      </trkpt>
      <trkpt lat="41.639098649" lon="2.467963014">
        <ele>401.97</ele>
        <time>2013-08-11T10:03:00Z</time>
      </trkpt>
      <trkpt lat="41.639036707" lon="2.467865281">
        <ele>401.49</ele>
        <time>2013-08-11T10:03:04Z</time>
      </trkpt>
      <trkpt lat="41.638945260" lon="2.467706695">
        <ele>400.05</ele>
        <time>2013-08-11T10:03:11Z</time>
      </trkpt>
      <trkpt lat="41.638869069" lon="2.467574680">
        <ele>399.57</ele>
        <time>2013-08-11T10:03:19Z</time>
      </trkpt>
      <trkpt lat="41.638789189" lon="2.467382148">
        <ele>399.08</ele>
        <time>2013-08-11T10:03:27Z</time>
      </trkpt>
      <trkpt lat="41.638749375" lon="2.467234207">
        <ele>399.08</ele>
        <time>2013-08-11T10:03:32Z</time>
      </trkpt>
      <trkpt lat="41.638738479" lon="2.467104204">
        <ele>398.12</ele>
        <time>2013-08-11T10:03:39Z</time>
      </trkpt>
      <trkpt lat="41.638729761" lon="2.467099929">
        <ele>398.12</ele>
        <time>2013-08-11T10:03:40Z</time>
      </trkpt>
      <trkpt lat="41.638643847" lon="2.466928268">
        <ele>396.20</ele>
        <time>2013-08-11T10:03:47Z</time>
      </trkpt>
      <trkpt lat="41.638596657" lon="2.466736322">
        <ele>395.24</ele>
        <time>2013-08-11T10:03:53Z</time>
      </trkpt>
      <trkpt lat="41.638545611" lon="2.466616545">
        <ele>394.76</ele>
        <time>2013-08-11T10:03:58Z</time>
      </trkpt>
      <trkpt lat="41.638530440" lon="2.466526020">
        <ele>394.28</ele>
        <time>2013-08-11T10:04:01Z</time>
      </trkpt>
      <trkpt lat="41.638443603" lon="2.466340697">
        <ele>393.80</ele>
        <time>2013-08-11T10:04:08Z</time>
      </trkpt>
      <trkpt lat="41.638350313" lon="2.466223098">
        <ele>393.32</ele>
        <time>2013-08-11T10:04:14Z</time>
      </trkpt>
      <trkpt lat="41.638320138" lon="2.466165347">
        <ele>392.36</ele>
        <time>2013-08-11T10:04:19Z</time>
      </trkpt>
      <trkpt lat="41.638302452" lon="2.466121426">
        <ele>392.36</ele>
        <time>2013-08-11T10:04:27Z</time>
      </trkpt>
      <trkpt lat="41.638281916" lon="2.466066105">
        <ele>392.36</ele>
        <time>2013-08-11T10:04:33Z</time>
      </trkpt>
      <trkpt lat="41.638277977" lon="2.466047498">
        <ele>392.36</ele>
        <time>2013-08-11T10:04:34Z</time>
      </trkpt>
      <trkpt lat="41.638274876" lon="2.465934845">
        <ele>392.36</ele>
        <time>2013-08-11T10:04:38Z</time>
      </trkpt>
      <trkpt lat="41.638269092" lon="2.465670396">
        <ele>391.87</ele>
        <time>2013-08-11T10:04:47Z</time>
      </trkpt>
      <trkpt lat="41.638258531" lon="2.465599066">
        <ele>391.39</ele>
        <time>2013-08-11T10:04:53Z</time>
      </trkpt>
      <trkpt lat="41.638238414" lon="2.465426315">
        <ele>391.39</ele>
        <time>2013-08-11T10:04:59Z</time>
      </trkpt>
      <trkpt lat="41.638202959" lon="2.465180306">
        <ele>390.91</ele>
        <time>2013-08-11T10:05:05Z</time>
      </trkpt>
      <trkpt lat="41.638150153" lon="2.465024570">
        <ele>390.91</ele>
        <time>2013-08-11T10:05:09Z</time>
      </trkpt>
      <trkpt lat="41.638134898" lon="2.464793565">
        <ele>389.95</ele>
        <time>2013-08-11T10:05:15Z</time>
      </trkpt>
      <trkpt lat="41.638113943" lon="2.464769174">
        <ele>389.47</ele>
        <time>2013-08-11T10:05:16Z</time>
      </trkpt>
      <trkpt lat="41.638050911" lon="2.464597931">
        <ele>388.03</ele>
        <time>2013-08-11T10:05:25Z</time>
      </trkpt>
      <trkpt lat="41.638044457" lon="2.464390144">
        <ele>387.55</ele>
        <time>2013-08-11T10:05:33Z</time>
      </trkpt>
      <trkpt lat="41.638102460" lon="2.464251842">
        <ele>387.55</ele>
        <time>2013-08-11T10:05:39Z</time>
      </trkpt>
      <trkpt lat="41.638210922" lon="2.464129048">
        <ele>388.99</ele>
        <time>2013-08-11T10:05:45Z</time>
      </trkpt>
      <trkpt lat="41.638299267" lon="2.463958811">
        <ele>390.43</ele>
        <time>2013-08-11T10:05:52Z</time>
      </trkpt>
      <trkpt lat="41.638297507" lon="2.463779774">
        <ele>391.39</ele>
        <time>2013-08-11T10:05:59Z</time>
      </trkpt>
      <trkpt lat="41.638171946" lon="2.463551786">
        <ele>391.39</ele>
        <time>2013-08-11T10:06:08Z</time>
      </trkpt>
      <trkpt lat="41.638070944" lon="2.463335030">
        <ele>391.87</ele>
        <time>2013-08-11T10:06:15Z</time>
      </trkpt>
      <trkpt lat="41.637936666" lon="2.463073431">
        <ele>392.36</ele>
        <time>2013-08-11T10:06:23Z</time>
      </trkpt>
      <trkpt lat="41.637831138" lon="2.462884419">
        <ele>392.36</ele>
        <time>2013-08-11T10:06:30Z</time>
      </trkpt>
      <trkpt lat="41.637736590" lon="2.462946780">
        <ele>392.36</ele>
        <time>2013-08-11T10:06:36Z</time>
      </trkpt>
      <trkpt lat="41.637667104" lon="2.463096062">
        <ele>393.32</ele>
        <time>2013-08-11T10:06:43Z</time>
      </trkpt>
      <trkpt lat="41.637530395" lon="2.463144174">
        <ele>393.32</ele>
        <time>2013-08-11T10:06:48Z</time>
      </trkpt>
      <trkpt lat="41.637496197" lon="2.463149203">
        <ele>393.32</ele>
        <time>2013-08-11T10:06:49Z</time>
      </trkpt>
      <trkpt lat="41.637422436" lon="2.463155741">
        <ele>393.32</ele>
        <time>2013-08-11T10:06:51Z</time>
      </trkpt>
      <trkpt lat="41.637232837" lon="2.463029426">
        <ele>390.43</ele>
        <time>2013-08-11T10:06:56Z</time>
      </trkpt>
      <trkpt lat="41.637199729" lon="2.462981733">
        <ele>389.47</ele>
        <time>2013-08-11T10:06:57Z</time>
      </trkpt>
      <trkpt lat="41.637071989" lon="2.462681828">
        <ele>385.63</ele>
        <time>2013-08-11T10:07:02Z</time>
      </trkpt>
      <trkpt lat="41.637047178" lon="2.462456606">
        <ele>384.18</ele>
        <time>2013-08-11T10:07:05Z</time>
      </trkpt>
      <trkpt lat="41.636989762" lon="2.462231049">
        <ele>382.26</ele>
        <time>2013-08-11T10:07:08Z</time>
      </trkpt>
      <trkpt lat="41.636963611" lon="2.462144129">
        <ele>381.30</ele>
        <time>2013-08-11T10:07:09Z</time>
      </trkpt>
      <trkpt lat="41.636712321" lon="2.461627133">
        <ele>379.86</ele>
        <time>2013-08-11T10:07:16Z</time>
      </trkpt>
      <trkpt lat="41.636475449" lon="2.461299904">
        <ele>378.90</ele>
        <time>2013-08-11T10:07:22Z</time>
      </trkpt>
      <trkpt lat="41.636183758" lon="2.460918779">
        <ele>376.49</ele>
        <time>2013-08-11T10:07:30Z</time>
      </trkpt>
      <trkpt lat="41.636109998" lon="2.460793134">
        <ele>375.05</ele>
        <time>2013-08-11T10:07:33Z</time>
      </trkpt>
      <trkpt lat="41.636032130" lon="2.460605212">
        <ele>373.61</ele>
        <time>2013-08-11T10:07:36Z</time>
      </trkpt>
      <trkpt lat="41.635962392" lon="2.460179746">
        <ele>370.73</ele>
        <time>2013-08-11T10:07:41Z</time>
      </trkpt>
      <trkpt lat="41.635902545" lon="2.459788395">
        <ele>367.84</ele>
        <time>2013-08-11T10:07:46Z</time>
      </trkpt>
      <trkpt lat="41.635885195" lon="2.459626792">
        <ele>366.88</ele>
        <time>2013-08-11T10:07:48Z</time>
      </trkpt>
      <trkpt lat="41.635882261" lon="2.459451359">
        <ele>364.96</ele>
        <time>2013-08-11T10:07:50Z</time>
      </trkpt>
      <trkpt lat="41.635985359" lon="2.458936542">
        <ele>364.00</ele>
        <time>2013-08-11T10:07:56Z</time>
      </trkpt>
      <trkpt lat="41.636006397" lon="2.458867811">
        <ele>363.52</ele>
        <time>2013-08-11T10:07:57Z</time>
      </trkpt>
      <trkpt lat="41.636030286" lon="2.458415188">
        <ele>362.07</ele>
        <time>2013-08-11T10:08:03Z</time>
      </trkpt>
      <trkpt lat="41.636025927" lon="2.458319383">
        <ele>361.59</ele>
        <time>2013-08-11T10:08:05Z</time>
      </trkpt>
      <trkpt lat="41.635921824" lon="2.458246544">
        <ele>361.11</ele>
        <time>2013-08-11T10:08:10Z</time>
      </trkpt>
      <trkpt lat="41.635756533" lon="2.458236653">
        <ele>362.55</ele>
        <time>2013-08-11T10:08:18Z</time>
      </trkpt>
      <trkpt lat="41.635737171" lon="2.458231708">
        <ele>362.55</ele>
        <time>2013-08-11T10:08:19Z</time>
      </trkpt>
      <trkpt lat="41.635571963" lon="2.458241431">
        <ele>364.48</ele>
        <time>2013-08-11T10:08:27Z</time>
      </trkpt>
      <trkpt lat="41.635434751" lon="2.458272444">
        <ele>367.36</ele>
        <time>2013-08-11T10:08:34Z</time>
      </trkpt>
      <trkpt lat="41.635402146" lon="2.458276635">
        <ele>368.32</ele>
        <time>2013-08-11T10:08:36Z</time>
      </trkpt>
      <trkpt lat="41.635324194" lon="2.458299518">
        <ele>368.80</ele>
        <time>2013-08-11T10:08:41Z</time>
      </trkpt>
      <trkpt lat="41.635217241" lon="2.458321311">
        <ele>367.36</ele>
        <time>2013-08-11T10:08:47Z</time>
      </trkpt>
      <trkpt lat="41.635199304" lon="2.458321814">
        <ele>367.36</ele>
        <time>2013-08-11T10:08:48Z</time>
      </trkpt>
      <trkpt lat="41.635076677" lon="2.458323825">
        <ele>365.92</ele>
        <time>2013-08-11T10:08:54Z</time>
      </trkpt>
      <trkpt lat="41.635059577" lon="2.458337572">
        <ele>365.44</ele>
        <time>2013-08-11T10:08:59Z</time>
      </trkpt>
      <trkpt lat="41.635068378" lon="2.458356766">
        <ele>365.44</ele>
        <time>2013-08-11T10:09:08Z</time>
      </trkpt>
      <trkpt lat="41.635087238" lon="2.458342852">
        <ele>365.44</ele>
        <time>2013-08-11T10:09:12Z</time>
      </trkpt>
      <trkpt lat="41.635117329" lon="2.458319970">
        <ele>366.88</ele>
        <time>2013-08-11T10:09:20Z</time>
      </trkpt>
      <trkpt lat="41.635140547" lon="2.458318377">
        <ele>366.88</ele>
        <time>2013-08-11T10:09:24Z</time>
      </trkpt>
      <trkpt lat="41.635204668" lon="2.458317287">
        <ele>367.36</ele>
        <time>2013-08-11T10:09:29Z</time>
      </trkpt>
      <trkpt lat="41.635250936" lon="2.458305134">
        <ele>367.84</ele>
        <time>2013-08-11T10:09:32Z</time>
      </trkpt>
      <trkpt lat="41.635266359" lon="2.458359532">
        <ele>368.80</ele>
        <time>2013-08-11T10:09:36Z</time>
      </trkpt>
      <trkpt lat="41.635170470" lon="2.458434466">
        <ele>369.76</ele>
        <time>2013-08-11T10:09:43Z</time>
      </trkpt>
      <trkpt lat="41.635088914" lon="2.458500097">
        <ele>371.21</ele>
        <time>2013-08-11T10:09:51Z</time>
      </trkpt>
      <trkpt lat="41.635003251" lon="2.458600260">
        <ele>372.65</ele>
        <time>2013-08-11T10:10:00Z</time>
      </trkpt>
      <trkpt lat="41.634934184" lon="2.458724313">
        <ele>374.57</ele>
        <time>2013-08-11T10:10:09Z</time>
      </trkpt>
      <trkpt lat="41.634881043" lon="2.458784662">
        <ele>376.01</ele>
        <time>2013-08-11T10:10:14Z</time>
      </trkpt>
      <trkpt lat="41.634790602" lon="2.458898153">
        <ele>377.45</ele>
        <time>2013-08-11T10:10:23Z</time>
      </trkpt>
      <trkpt lat="41.634721954" lon="2.459013656">
        <ele>378.90</ele>
        <time>2013-08-11T10:10:32Z</time>
      </trkpt>
      <trkpt lat="41.634647858" lon="2.459145168">
        <ele>378.90</ele>
        <time>2013-08-11T10:10:41Z</time>
      </trkpt>
      <trkpt lat="41.634611229" lon="2.459222030">
        <ele>379.38</ele>
        <time>2013-08-11T10:10:48Z</time>
      </trkpt>
      <trkpt lat="41.634577367" lon="2.459266454">
        <ele>380.34</ele>
        <time>2013-08-11T10:10:52Z</time>
      </trkpt>
      <trkpt lat="41.634513999" lon="2.459341975">
        <ele>382.26</ele>
        <time>2013-08-11T10:10:59Z</time>
      </trkpt>
      <trkpt lat="41.634507126" lon="2.459353123">
        <ele>382.74</ele>
        <time>2013-08-11T10:11:00Z</time>
      </trkpt>
      <trkpt lat="41.634434455" lon="2.459504752">
        <ele>385.15</ele>
        <time>2013-08-11T10:11:11Z</time>
      </trkpt>
      <trkpt lat="41.634413249" lon="2.459545907">
        <ele>385.15</ele>
        <time>2013-08-11T10:11:14Z</time>
      </trkpt>
      <trkpt lat="41.634388355" lon="2.459602233">
        <ele>386.11</ele>
        <time>2013-08-11T10:11:18Z</time>
      </trkpt>
      <trkpt lat="41.634348624" lon="2.459683454">
        <ele>387.07</ele>
        <time>2013-08-11T10:11:25Z</time>
      </trkpt>
      <trkpt lat="41.634279474" lon="2.459879590">
        <ele>386.11</ele>
        <time>2013-08-11T10:11:32Z</time>
      </trkpt>
      <trkpt lat="41.634163803" lon="2.460145297">
        <ele>384.66</ele>
        <time>2013-08-11T10:11:39Z</time>
      </trkpt>
      <trkpt lat="41.634094150" lon="2.460348893">
        <ele>384.18</ele>
        <time>2013-08-11T10:11:45Z</time>
      </trkpt>
      <trkpt lat="41.634022065" lon="2.460537905">
        <ele>383.22</ele>
        <time>2013-08-11T10:11:51Z</time>
      </trkpt>
      <trkpt lat="41.633988873" lon="2.460845018">
        <ele>382.74</ele>
        <time>2013-08-11T10:11:57Z</time>
      </trkpt>
      <trkpt lat="41.633981246" lon="2.460900255">
        <ele>382.74</ele>
        <time>2013-08-11T10:11:58Z</time>
      </trkpt>
      <trkpt lat="41.633904300" lon="2.461165039">
        <ele>380.34</ele>
        <time>2013-08-11T10:12:03Z</time>
      </trkpt>
      <trkpt lat="41.633782008" lon="2.461371904">
        <ele>378.90</ele>
        <time>2013-08-11T10:12:07Z</time>
      </trkpt>
      <trkpt lat="41.633594756" lon="2.461643143">
        <ele>376.97</ele>
        <time>2013-08-11T10:12:14Z</time>
      </trkpt>
      <trkpt lat="41.633552679" lon="2.461658146">
        <ele>376.97</ele>
        <time>2013-08-11T10:12:17Z</time>
      </trkpt>
      <trkpt lat="41.633472799" lon="2.461596539">
        <ele>376.97</ele>
        <time>2013-08-11T10:12:24Z</time>
      </trkpt>
      <trkpt lat="41.633395937" lon="2.461536190">
        <ele>378.90</ele>
        <time>2013-08-11T10:12:31Z</time>
      </trkpt>
      <trkpt lat="41.633371630" lon="2.461517414">
        <ele>379.38</ele>
        <time>2013-08-11T10:12:33Z</time>
      </trkpt>
      <trkpt lat="41.633297701" lon="2.461524539">
        <ele>379.38</ele>
        <time>2013-08-11T10:12:37Z</time>
      </trkpt>
      <trkpt lat="41.633182283" lon="2.461522527">
        <ele>380.34</ele>
        <time>2013-08-11T10:12:44Z</time>
      </trkpt>
      <trkpt lat="41.633067786" lon="2.461501405">
        <ele>381.78</ele>
        <time>2013-08-11T10:12:53Z</time>
      </trkpt>
      <trkpt lat="41.633041215" lon="2.461477097">
        <ele>382.26</ele>
        <time>2013-08-11T10:12:56Z</time>
      </trkpt>
      <trkpt lat="41.632950691" lon="2.461354973">
        <ele>385.63</ele>
        <time>2013-08-11T10:13:06Z</time>
      </trkpt>
      <trkpt lat="41.632929652" lon="2.461333767">
        <ele>386.11</ele>
        <time>2013-08-11T10:13:08Z</time>
      </trkpt>
      <trkpt lat="41.632820855" lon="2.461260006">
        <ele>388.51</ele>
        <time>2013-08-11T10:13:18Z</time>
      </trkpt>
      <trkpt lat="41.632719182" lon="2.461189011">
        <ele>391.39</ele>
        <time>2013-08-11T10:13:28Z</time>
      </trkpt>
      <trkpt lat="41.632639135" lon="2.461115502">
        <ele>393.32</ele>
        <time>2013-08-11T10:13:36Z</time>
      </trkpt>
      <trkpt lat="41.632560513" lon="2.461015087">
        <ele>394.76</ele>
        <time>2013-08-11T10:13:45Z</time>
      </trkpt>
      <trkpt lat="41.632486836" lon="2.460904613">
        <ele>397.16</ele>
        <time>2013-08-11T10:13:54Z</time>
      </trkpt>
      <trkpt lat="41.632423385" lon="2.460790116">
        <ele>397.64</ele>
        <time>2013-08-11T10:14:02Z</time>
      </trkpt>
      <trkpt lat="41.632356833" lon="2.460662292">
        <ele>399.57</ele>
        <time>2013-08-11T10:14:10Z</time>
      </trkpt>
      <trkpt lat="41.632282988" lon="2.460596159">
        <ele>401.97</ele>
        <time>2013-08-11T10:14:18Z</time>
      </trkpt>
      <trkpt lat="41.632237810" lon="2.460558692">
        <ele>403.89</ele>
        <time>2013-08-11T10:14:23Z</time>
      </trkpt>
      <trkpt lat="41.632209227" lon="2.460551819">
        <ele>404.85</ele>
        <time>2013-08-11T10:14:26Z</time>
      </trkpt>
      <trkpt lat="41.632134209" lon="2.460483926">
        <ele>406.77</ele>
        <time>2013-08-11T10:14:34Z</time>
      </trkpt>
      <trkpt lat="41.632055922" lon="2.460396502">
        <ele>410.14</ele>
        <time>2013-08-11T10:14:43Z</time>
      </trkpt>
      <trkpt lat="41.631999093" lon="2.460292902">
        <ele>412.06</ele>
        <time>2013-08-11T10:14:51Z</time>
      </trkpt>
      <trkpt lat="41.631956932" lon="2.460226769">
        <ele>412.06</ele>
        <time>2013-08-11T10:14:57Z</time>
      </trkpt>
      <trkpt lat="41.631938241" lon="2.460176645">
        <ele>412.54</ele>
        <time>2013-08-11T10:15:04Z</time>
      </trkpt>
      <trkpt lat="41.631922650" lon="2.460159714">
        <ele>412.54</ele>
        <time>2013-08-11T10:15:15Z</time>
      </trkpt>
      <trkpt lat="41.631921309" lon="2.460148566">
        <ele>412.54</ele>
        <time>2013-08-11T10:15:27Z</time>
      </trkpt>
      <trkpt lat="41.631912927" lon="2.460147392">
        <ele>412.54</ele>
        <time>2013-08-11T10:15:41Z</time>
      </trkpt>
      <trkpt lat="41.631910245" lon="2.460153762">
        <ele>412.54</ele>
        <time>2013-08-11T10:15:56Z</time>
      </trkpt>
      <trkpt lat="41.631906054" lon="2.460139178">
        <ele>412.54</ele>
        <time>2013-08-11T10:16:04Z</time>
      </trkpt>
      <trkpt lat="41.631901695" lon="2.460073715">
        <ele>412.54</ele>
        <time>2013-08-11T10:16:08Z</time>
      </trkpt>
      <trkpt lat="41.631893230" lon="2.459948825">
        <ele>409.66</ele>
        <time>2013-08-11T10:16:15Z</time>
      </trkpt>
      <trkpt lat="41.631915190" lon="2.459795855">
        <ele>407.26</ele>
        <time>2013-08-11T10:16:21Z</time>
      </trkpt>
      <trkpt lat="41.631927763" lon="2.459590163">
        <ele>404.37</ele>
        <time>2013-08-11T10:16:27Z</time>
      </trkpt>
      <trkpt lat="41.631931200" lon="2.459524198">
        <ele>403.89</ele>
        <time>2013-08-11T10:16:29Z</time>
      </trkpt>
      <trkpt lat="41.631913682" lon="2.459460495">
        <ele>402.93</ele>
        <time>2013-08-11T10:16:32Z</time>
      </trkpt>
      <trkpt lat="41.631765238" lon="2.459394949">
        <ele>399.08</ele>
        <time>2013-08-11T10:16:40Z</time>
      </trkpt>
      <trkpt lat="41.631745624" lon="2.459383717">
        <ele>398.60</ele>
        <time>2013-08-11T10:16:41Z</time>
      </trkpt>
      <trkpt lat="41.631693405" lon="2.459341388">
        <ele>396.68</ele>
        <time>2013-08-11T10:16:45Z</time>
      </trkpt>
      <trkpt lat="41.631720898" lon="2.459194537">
        <ele>395.72</ele>
        <time>2013-08-11T10:16:51Z</time>
      </trkpt>
      <trkpt lat="41.631763813" lon="2.459039305">
        <ele>393.80</ele>
        <time>2013-08-11T10:16:56Z</time>
      </trkpt>
      <trkpt lat="41.631792647" lon="2.458801845">
        <ele>389.95</ele>
        <time>2013-08-11T10:17:04Z</time>
      </trkpt>
      <trkpt lat="41.631786360" lon="2.458635129">
        <ele>386.59</ele>
        <time>2013-08-11T10:17:09Z</time>
      </trkpt>
      <trkpt lat="41.631786025" lon="2.458450643">
        <ele>384.18</ele>
        <time>2013-08-11T10:17:15Z</time>
      </trkpt>
      <trkpt lat="41.631782756" lon="2.458386187">
        <ele>383.70</ele>
        <time>2013-08-11T10:17:17Z</time>
      </trkpt>
      <trkpt lat="41.631771608" lon="2.458224500">
        <ele>381.78</ele>
        <time>2013-08-11T10:17:23Z</time>
      </trkpt>
      <trkpt lat="41.631768339" lon="2.458192313">
        <ele>380.82</ele>
        <time>2013-08-11T10:17:24Z</time>
      </trkpt>
      <trkpt lat="41.631755683" lon="2.457994416">
        <ele>378.90</ele>
        <time>2013-08-11T10:17:31Z</time>
      </trkpt>
      <trkpt lat="41.631751156" lon="2.457893750">
        <ele>376.97</ele>
        <time>2013-08-11T10:17:35Z</time>
      </trkpt>
      <trkpt lat="41.631764568" lon="2.457834993">
        <ele>376.01</ele>
        <time>2013-08-11T10:17:38Z</time>
      </trkpt>
      <trkpt lat="41.631862133" lon="2.457704654">
        <ele>375.05</ele>
        <time>2013-08-11T10:17:44Z</time>
      </trkpt>
      <trkpt lat="41.631930026" lon="2.457628714">
        <ele>373.13</ele>
        <time>2013-08-11T10:17:49Z</time>
      </trkpt>
      <trkpt lat="41.631979982" lon="2.457529724">
        <ele>372.65</ele>
        <time>2013-08-11T10:17:55Z</time>
      </trkpt>
      <trkpt lat="41.632069250" lon="2.457406761">
        <ele>370.73</ele>
        <time>2013-08-11T10:18:01Z</time>
      </trkpt>
      <trkpt lat="41.632157260" lon="2.457345573">
        <ele>369.76</ele>
        <time>2013-08-11T10:18:06Z</time>
      </trkpt>
      <trkpt lat="41.632247617" lon="2.457293354">
        <ele>367.36</ele>
        <time>2013-08-11T10:18:11Z</time>
      </trkpt>
      <trkpt lat="41.632265638" lon="2.457283966">
        <ele>366.88</ele>
        <time>2013-08-11T10:18:12Z</time>
      </trkpt>
      <trkpt lat="41.632296818" lon="2.457200818">
        <ele>365.44</ele>
        <time>2013-08-11T10:18:16Z</time>
      </trkpt>
      <trkpt lat="41.632286509" lon="2.457191765">
        <ele>364.96</ele>
        <time>2013-08-11T10:18:17Z</time>
      </trkpt>
      <trkpt lat="41.632266560" lon="2.457186317">
        <ele>364.96</ele>
        <time>2013-08-11T10:18:19Z</time>
      </trkpt>
      <trkpt lat="41.632157763" lon="2.457132338">
        <ele>363.52</ele>
        <time>2013-08-11T10:18:27Z</time>
      </trkpt>
      <trkpt lat="41.632064304" lon="2.457094535">
        <ele>362.07</ele>
        <time>2013-08-11T10:18:32Z</time>
      </trkpt>
      <trkpt lat="41.631939498" lon="2.457028821">
        <ele>361.11</ele>
        <time>2013-08-11T10:18:38Z</time>
      </trkpt>
      <trkpt lat="41.631791893" lon="2.456987750">
        <ele>360.63</ele>
        <time>2013-08-11T10:18:45Z</time>
      </trkpt>
      <trkpt lat="41.631709415" lon="2.457053548">
        <ele>359.19</ele>
        <time>2013-08-11T10:18:50Z</time>
      </trkpt>
      <trkpt lat="41.631613023" lon="2.457131919">
        <ele>358.71</ele>
        <time>2013-08-11T10:18:56Z</time>
      </trkpt>
      <trkpt lat="41.631495508" lon="2.457104845">
        <ele>359.67</ele>
        <time>2013-08-11T10:19:03Z</time>
      </trkpt>
      <trkpt lat="41.631377407" lon="2.457108952">
        <ele>359.67</ele>
        <time>2013-08-11T10:19:08Z</time>
      </trkpt>
      <trkpt lat="41.631236759" lon="2.457209535">
        <ele>360.15</ele>
        <time>2013-08-11T10:19:16Z</time>
      </trkpt>
      <trkpt lat="41.631160987" lon="2.457376503">
        <ele>360.15</ele>
        <time>2013-08-11T10:19:21Z</time>
      </trkpt>
      <trkpt lat="41.631154533" lon="2.457453448">
        <ele>358.71</ele>
        <time>2013-08-11T10:19:23Z</time>
      </trkpt>
      <trkpt lat="41.631136512" lon="2.457626283">
        <ele>358.71</ele>
        <time>2013-08-11T10:19:29Z</time>
      </trkpt>
      <trkpt lat="41.631117904" lon="2.457840022">
        <ele>357.27</ele>
        <time>2013-08-11T10:19:34Z</time>
      </trkpt>
      <trkpt lat="41.631058727" lon="2.457935911">
        <ele>358.71</ele>
        <time>2013-08-11T10:19:39Z</time>
      </trkpt>
      <trkpt lat="41.631046574" lon="2.457950411">
        <ele>358.71</ele>
        <time>2013-08-11T10:19:40Z</time>
      </trkpt>
      <trkpt lat="41.631031822" lon="2.457967259">
        <ele>358.71</ele>
        <time>2013-08-11T10:19:41Z</time>
      </trkpt>
      <trkpt lat="41.630898717" lon="2.457974216">
        <ele>359.19</ele>
        <time>2013-08-11T10:19:48Z</time>
      </trkpt>
      <trkpt lat="41.630807019" lon="2.457930463">
        <ele>361.11</ele>
        <time>2013-08-11T10:19:54Z</time>
      </trkpt>
      <trkpt lat="41.630628568" lon="2.457887631">
        <ele>362.55</ele>
        <time>2013-08-11T10:20:04Z</time>
      </trkpt>
      <trkpt lat="41.630471156" lon="2.457811272">
        <ele>362.55</ele>
        <time>2013-08-11T10:20:11Z</time>
      </trkpt>
      <trkpt lat="41.630312487" lon="2.457626786">
        <ele>362.07</ele>
        <time>2013-08-11T10:20:18Z</time>
      </trkpt>
      <trkpt lat="41.630234535" lon="2.457542800">
        <ele>361.11</ele>
        <time>2013-08-11T10:20:21Z</time>
      </trkpt>
      <trkpt lat="41.630206623" lon="2.457528550">
        <ele>360.63</ele>
        <time>2013-08-11T10:20:22Z</time>
      </trkpt>
      <trkpt lat="41.630049043" lon="2.457605999">
        <ele>359.67</ele>
        <time>2013-08-11T10:20:28Z</time>
      </trkpt>
      <trkpt lat="41.629862965" lon="2.457817139">
        <ele>358.71</ele>
        <time>2013-08-11T10:20:37Z</time>
      </trkpt>
      <trkpt lat="41.629845112" lon="2.457829964">
        <ele>358.71</ele>
        <time>2013-08-11T10:20:38Z</time>
      </trkpt>
      <trkpt lat="41.629740086" lon="2.457743295">
        <ele>357.27</ele>
        <time>2013-08-11T10:20:45Z</time>
      </trkpt>
      <trkpt lat="41.629581752" lon="2.457664170">
        <ele>355.83</ele>
        <time>2013-08-11T10:20:52Z</time>
      </trkpt>
      <trkpt lat="41.629493658" lon="2.457661823">
        <ele>354.86</ele>
        <time>2013-08-11T10:20:57Z</time>
      </trkpt>
      <trkpt lat="41.629421742" lon="2.457649753">
        <ele>352.94</ele>
        <time>2013-08-11T10:21:02Z</time>
      </trkpt>
      <trkpt lat="41.629405062" lon="2.457655201">
        <ele>352.94</ele>
        <time>2013-08-11T10:21:03Z</time>
      </trkpt>
      <trkpt lat="41.629343455" lon="2.457669031">
        <ele>351.50</ele>
        <time>2013-08-11T10:21:06Z</time>
      </trkpt>
      <trkpt lat="41.629320656" lon="2.457670707">
        <ele>351.02</ele>
        <time>2013-08-11T10:21:07Z</time>
      </trkpt>
      <trkpt lat="41.629280255" lon="2.457575070">
        <ele>349.10</ele>
        <time>2013-08-11T10:21:13Z</time>
      </trkpt>
      <trkpt lat="41.629303138" lon="2.457501225">
        <ele>348.13</ele>
        <time>2013-08-11T10:21:17Z</time>
      </trkpt>
      <trkpt lat="41.629282267" lon="2.457458561">
        <ele>348.13</ele>
        <time>2013-08-11T10:21:22Z</time>
      </trkpt>
      <trkpt lat="41.629261228" lon="2.457422519">
        <ele>348.13</ele>
        <time>2013-08-11T10:21:40Z</time>
      </trkpt>
      <trkpt lat="41.629257540" lon="2.457420340">
        <ele>347.65</ele>
        <time>2013-08-11T10:21:53Z</time>
      </trkpt>
      <trkpt lat="41.629250248" lon="2.457446156">
        <ele>347.65</ele>
        <time>2013-08-11T10:22:07Z</time>
      </trkpt>
      <trkpt lat="41.629242620" lon="2.457432494">
        <ele>347.65</ele>
        <time>2013-08-11T10:22:18Z</time>
      </trkpt>
      <trkpt lat="41.629245889" lon="2.457432829">
        <ele>347.65</ele>
        <time>2013-08-11T10:22:29Z</time>
      </trkpt>
      <trkpt lat="41.629195347" lon="2.457431320">
        <ele>347.65</ele>
        <time>2013-08-11T10:22:33Z</time>
      </trkpt>
      <trkpt lat="41.629121083" lon="2.457382705">
        <ele>346.69</ele>
        <time>2013-08-11T10:22:41Z</time>
      </trkpt>
      <trkpt lat="41.629036509" lon="2.457218252">
        <ele>345.73</ele>
        <time>2013-08-11T10:22:50Z</time>
      </trkpt>
      <trkpt lat="41.629018405" lon="2.457046507">
        <ele>345.25</ele>
        <time>2013-08-11T10:22:55Z</time>
      </trkpt>
      <trkpt lat="41.629090154" lon="2.456940895">
        <ele>345.25</ele>
        <time>2013-08-11T10:23:01Z</time>
      </trkpt>
      <trkpt lat="41.629190820" lon="2.456928574">
        <ele>348.13</ele>
        <time>2013-08-11T10:23:08Z</time>
      </trkpt>
      <trkpt lat="41.629312861" lon="2.456933016">
        <ele>348.62</ele>
        <time>2013-08-11T10:23:15Z</time>
      </trkpt>
      <trkpt lat="41.629405146" lon="2.456867386">
        <ele>349.58</ele>
        <time>2013-08-11T10:23:22Z</time>
      </trkpt>
      <trkpt lat="41.629496508" lon="2.456668399">
        <ele>350.06</ele>
        <time>2013-08-11T10:23:30Z</time>
      </trkpt>
      <trkpt lat="41.629613268" lon="2.456403699">
        <ele>350.54</ele>
        <time>2013-08-11T10:23:40Z</time>
      </trkpt>
      <trkpt lat="41.629676133" lon="2.456294902">
        <ele>351.02</ele>
        <time>2013-08-11T10:23:44Z</time>
      </trkpt>
      <trkpt lat="41.629865396" lon="2.456150230">
        <ele>352.46</ele>
        <time>2013-08-11T10:23:53Z</time>
      </trkpt>
      <trkpt lat="41.629912754" lon="2.456032381">
        <ele>353.42</ele>
        <time>2013-08-11T10:23:58Z</time>
      </trkpt>
      <trkpt lat="41.629851063" lon="2.455943532">
        <ele>354.86</ele>
        <time>2013-08-11T10:24:05Z</time>
      </trkpt>
      <trkpt lat="41.629767579" lon="2.455896845">
        <ele>356.79</ele>
        <time>2013-08-11T10:24:13Z</time>
      </trkpt>
      <trkpt lat="41.629656938" lon="2.455854852">
        <ele>358.23</ele>
        <time>2013-08-11T10:24:22Z</time>
      </trkpt>
      <trkpt lat="41.629531545" lon="2.455843955">
        <ele>360.15</ele>
        <time>2013-08-11T10:24:31Z</time>
      </trkpt>
      <trkpt lat="41.629436326" lon="2.455882177">
        <ele>362.55</ele>
        <time>2013-08-11T10:24:40Z</time>
      </trkpt>
      <trkpt lat="41.629335743" lon="2.455928780">
        <ele>364.96</ele>
        <time>2013-08-11T10:24:48Z</time>
      </trkpt>
      <trkpt lat="41.629221833" lon="2.455943868">
        <ele>367.36</ele>
        <time>2013-08-11T10:24:57Z</time>
      </trkpt>
      <trkpt lat="41.629182187" lon="2.455922494">
        <ele>368.80</ele>
        <time>2013-08-11T10:25:02Z</time>
      </trkpt>
      <trkpt lat="41.629142792" lon="2.455857953">
        <ele>369.28</ele>
        <time>2013-08-11T10:25:07Z</time>
      </trkpt>
      <trkpt lat="41.629091076" lon="2.455729710">
        <ele>371.69</ele>
        <time>2013-08-11T10:25:16Z</time>
      </trkpt>
      <trkpt lat="41.629083364" lon="2.455717305">
        <ele>371.69</ele>
        <time>2013-08-11T10:25:17Z</time>
      </trkpt>
      <trkpt lat="41.628986805" lon="2.455601132">
        <ele>374.09</ele>
        <time>2013-08-11T10:25:28Z</time>
      </trkpt>
      <trkpt lat="41.628926874" lon="2.455478253">
        <ele>375.53</ele>
        <time>2013-08-11T10:25:37Z</time>
      </trkpt>
      <trkpt lat="41.628920001" lon="2.455465932">
        <ele>376.01</ele>
        <time>2013-08-11T10:25:38Z</time>
      </trkpt>
      <trkpt lat="41.628885551" lon="2.455322433">
        <ele>378.42</ele>
        <time>2013-08-11T10:25:48Z</time>
      </trkpt>
      <trkpt lat="41.628864261" lon="2.455297539">
        <ele>378.90</ele>
        <time>2013-08-11T10:25:51Z</time>
      </trkpt>
      <trkpt lat="41.628757560" lon="2.455286894">
        <ele>380.34</ele>
        <time>2013-08-11T10:26:01Z</time>
      </trkpt>
      <trkpt lat="41.628622276" lon="2.455250684">
        <ele>380.82</ele>
        <time>2013-08-11T10:26:11Z</time>
      </trkpt>
      <trkpt lat="41.628535104" lon="2.455209697">
        <ele>381.30</ele>
        <time>2013-08-11T10:26:18Z</time>
      </trkpt>
      <trkpt lat="41.628414069" lon="2.455145659">
        <ele>381.78</ele>
        <time>2013-08-11T10:26:27Z</time>
      </trkpt>
      <trkpt lat="41.628313319" lon="2.455078939">
        <ele>382.74</ele>
        <time>2013-08-11T10:26:36Z</time>
      </trkpt>
      <trkpt lat="41.628233356" lon="2.455042478">
        <ele>383.70</ele>
        <time>2013-08-11T10:26:43Z</time>
      </trkpt>
      <trkpt lat="41.628122128" lon="2.454982799">
        <ele>384.66</ele>
        <time>2013-08-11T10:26:52Z</time>
      </trkpt>
      <trkpt lat="41.628047026" lon="2.454956312">
        <ele>385.63</ele>
        <time>2013-08-11T10:26:58Z</time>
      </trkpt>
      <trkpt lat="41.627926410" lon="2.454954552">
        <ele>386.11</ele>
        <time>2013-08-11T10:27:07Z</time>
      </trkpt>
      <trkpt lat="41.627864636" lon="2.455022026">
        <ele>386.11</ele>
        <time>2013-08-11T10:27:12Z</time>
      </trkpt>
      <trkpt lat="41.627790623" lon="2.455199806">
        <ele>384.66</ele>
        <time>2013-08-11T10:27:18Z</time>
      </trkpt>
      <trkpt lat="41.627768579" lon="2.455463166">
        <ele>384.18</ele>
        <time>2013-08-11T10:27:24Z</time>
      </trkpt>
      <trkpt lat="41.627755587" lon="2.455570119">
        <ele>384.18</ele>
        <time>2013-08-11T10:27:29Z</time>
      </trkpt>
      <trkpt lat="41.627729268" lon="2.455640443">
        <ele>383.70</ele>
        <time>2013-08-11T10:27:31Z</time>
      </trkpt>
      <trkpt lat="41.627518798" lon="2.455859294">
        <ele>382.74</ele>
        <time>2013-08-11T10:27:37Z</time>
      </trkpt>
      <trkpt lat="41.627424837" lon="2.455943616">
        <ele>382.74</ele>
        <time>2013-08-11T10:27:42Z</time>
      </trkpt>
      <trkpt lat="41.627313609" lon="2.456055766">
        <ele>384.66</ele>
        <time>2013-08-11T10:27:51Z</time>
      </trkpt>
      <trkpt lat="41.627223504" lon="2.456147464">
        <ele>386.59</ele>
        <time>2013-08-11T10:27:59Z</time>
      </trkpt>
      <trkpt lat="41.627126274" lon="2.456232792">
        <ele>387.07</ele>
        <time>2013-08-11T10:28:06Z</time>
      </trkpt>
      <trkpt lat="41.627014124" lon="2.456347792">
        <ele>389.47</ele>
        <time>2013-08-11T10:28:15Z</time>
      </trkpt>
      <trkpt lat="41.626896945" lon="2.456445776">
        <ele>391.39</ele>
        <time>2013-08-11T10:28:24Z</time>
      </trkpt>
      <trkpt lat="41.626801726" lon="2.456507551">
        <ele>392.36</ele>
        <time>2013-08-11T10:28:31Z</time>
      </trkpt>
      <trkpt lat="41.626698797" lon="2.456560440">
        <ele>393.32</ele>
        <time>2013-08-11T10:28:39Z</time>
      </trkpt>
      <trkpt lat="41.626594274" lon="2.456633447">
        <ele>394.76</ele>
        <time>2013-08-11T10:28:47Z</time>
      </trkpt>
      <trkpt lat="41.626490422" lon="2.456682565">
        <ele>395.72</ele>
        <time>2013-08-11T10:28:54Z</time>
      </trkpt>
      <trkpt lat="41.626270817" lon="2.456709638">
        <ele>395.72</ele>
        <time>2013-08-11T10:29:01Z</time>
      </trkpt>
      <trkpt lat="41.626192781" lon="2.456787087">
        <ele>395.24</ele>
        <time>2013-08-11T10:29:06Z</time>
      </trkpt>
      <trkpt lat="41.626092534" lon="2.456903679">
        <ele>395.72</ele>
        <time>2013-08-11T10:29:14Z</time>
      </trkpt>
      <trkpt lat="41.625988179" lon="2.457026307">
        <ele>397.16</ele>
        <time>2013-08-11T10:29:22Z</time>
      </trkpt>
      <trkpt lat="41.625913412" lon="2.457156310">
        <ele>400.05</ele>
        <time>2013-08-11T10:29:30Z</time>
      </trkpt>
      <trkpt lat="41.625816685" lon="2.457282961">
        <ele>401.01</ele>
        <time>2013-08-11T10:29:38Z</time>
      </trkpt>
      <trkpt lat="41.625717443" lon="2.457389578">
        <ele>402.93</ele>
        <time>2013-08-11T10:29:46Z</time>
      </trkpt>
      <trkpt lat="41.625617615" lon="2.457444731">
        <ele>404.37</ele>
        <time>2013-08-11T10:29:53Z</time>
      </trkpt>
      <trkpt lat="41.625530108" lon="2.457445234">
        <ele>406.77</ele>
        <time>2013-08-11T10:29:59Z</time>
      </trkpt>
      <trkpt lat="41.625428771" lon="2.457453113">
        <ele>408.22</ele>
        <time>2013-08-11T10:30:06Z</time>
      </trkpt>
      <trkpt lat="41.625348472" lon="2.457432913">
        <ele>409.66</ele>
        <time>2013-08-11T10:30:13Z</time>
      </trkpt>
      <trkpt lat="41.625236238" lon="2.457429225">
        <ele>412.06</ele>
        <time>2013-08-11T10:30:23Z</time>
      </trkpt>
      <trkpt lat="41.625215032" lon="2.457423022">
        <ele>412.06</ele>
        <time>2013-08-11T10:30:25Z</time>
      </trkpt>
      <trkpt lat="41.625111013" lon="2.457406845">
        <ele>413.98</ele>
        <time>2013-08-11T10:30:33Z</time>
      </trkpt>
      <trkpt lat="41.624996600" lon="2.457463758">
        <ele>415.43</ele>
        <time>2013-08-11T10:30:42Z</time>
      </trkpt>
      <trkpt lat="41.624966341" lon="2.457501812">
        <ele>415.91</ele>
        <time>2013-08-11T10:30:46Z</time>
      </trkpt>
      <trkpt lat="41.624902806" lon="2.457595606">
        <ele>417.35</ele>
        <time>2013-08-11T10:30:55Z</time>
      </trkpt>
      <trkpt lat="41.624891323" lon="2.457616560">
        <ele>417.83</ele>
        <time>2013-08-11T10:30:57Z</time>
      </trkpt>
      <trkpt lat="41.624781017" lon="2.457723513">
        <ele>419.27</ele>
        <time>2013-08-11T10:31:06Z</time>
      </trkpt>
      <trkpt lat="41.624738018" lon="2.457755951">
        <ele>421.68</ele>
        <time>2013-08-11T10:31:10Z</time>
      </trkpt>
      <trkpt lat="41.624623856" lon="2.457791910">
        <ele>423.60</ele>
        <time>2013-08-11T10:31:19Z</time>
      </trkpt>
      <trkpt lat="41.624614972" lon="2.457791072">
        <ele>424.08</ele>
        <time>2013-08-11T10:31:20Z</time>
      </trkpt>
      <trkpt lat="41.624521513" lon="2.457750587">
        <ele>426.48</ele>
        <time>2013-08-11T10:31:30Z</time>
      </trkpt>
      <trkpt lat="41.624491841" lon="2.457723932">
        <ele>426.96</ele>
        <time>2013-08-11T10:31:34Z</time>
      </trkpt>
      <trkpt lat="41.624419925" lon="2.457632486">
        <ele>428.40</ele>
        <time>2013-08-11T10:31:42Z</time>
      </trkpt>
      <trkpt lat="41.624368208" lon="2.457556546">
        <ele>429.85</ele>
        <time>2013-08-11T10:31:49Z</time>
      </trkpt>
      <trkpt lat="41.624310792" lon="2.457463004">
        <ele>431.29</ele>
        <time>2013-08-11T10:31:58Z</time>
      </trkpt>
      <trkpt lat="41.624290927" lon="2.457420927">
        <ele>432.25</ele>
        <time>2013-08-11T10:32:01Z</time>
      </trkpt>
      <trkpt lat="41.624267039" lon="2.457362086">
        <ele>432.73</ele>
        <time>2013-08-11T10:32:05Z</time>
      </trkpt>
      <trkpt lat="41.624191099" lon="2.457234681">
        <ele>433.69</ele>
        <time>2013-08-11T10:32:14Z</time>
      </trkpt>
      <trkpt lat="41.624140304" lon="2.457164692">
        <ele>434.65</ele>
        <time>2013-08-11T10:32:20Z</time>
      </trkpt>
      <trkpt lat="41.624042404" lon="2.457067210">
        <ele>436.58</ele>
        <time>2013-08-11T10:32:30Z</time>
      </trkpt>
      <trkpt lat="41.623976019" lon="2.457030079">
        <ele>437.54</ele>
        <time>2013-08-11T10:32:37Z</time>
      </trkpt>
      <trkpt lat="41.623913909" lon="2.457025552">
        <ele>438.02</ele>
        <time>2013-08-11T10:32:42Z</time>
      </trkpt>
      <trkpt lat="41.623837885" lon="2.457108114">
        <ele>439.46</ele>
        <time>2013-08-11T10:32:51Z</time>
      </trkpt>
      <trkpt lat="41.623774686" lon="2.457187574">
        <ele>440.90</ele>
        <time>2013-08-11T10:32:59Z</time>
      </trkpt>
      <trkpt lat="41.623670331" lon="2.457281284">
        <ele>441.86</ele>
        <time>2013-08-11T10:33:07Z</time>
      </trkpt>
      <trkpt lat="41.623581734" lon="2.457418496">
        <ele>442.34</ele>
        <time>2013-08-11T10:33:16Z</time>
      </trkpt>
      <trkpt lat="41.623542339" lon="2.457469374">
        <ele>442.34</ele>
        <time>2013-08-11T10:33:18Z</time>
      </trkpt>
      <trkpt lat="41.623385766" lon="2.457559982">
        <ele>441.38</ele>
        <time>2013-08-11T10:33:22Z</time>
      </trkpt>
      <trkpt lat="41.623258025" lon="2.457745306">
        <ele>440.42</ele>
        <time>2013-08-11T10:33:26Z</time>
      </trkpt>
      <trkpt lat="41.623235897" lon="2.457772883">
        <ele>440.42</ele>
        <time>2013-08-11T10:33:27Z</time>
      </trkpt>
      <trkpt lat="41.623123077" lon="2.457871873">
        <ele>441.86</ele>
        <time>2013-08-11T10:33:32Z</time>
      </trkpt>
      <trkpt lat="41.622977315" lon="2.457936078">
        <ele>442.34</ele>
        <time>2013-08-11T10:33:39Z</time>
      </trkpt>
      <trkpt lat="41.622913445" lon="2.457988801">
        <ele>442.82</ele>
        <time>2013-08-11T10:33:42Z</time>
      </trkpt>
      <trkpt lat="41.622899783" lon="2.458223829">
        <ele>442.82</ele>
        <time>2013-08-11T10:33:48Z</time>
      </trkpt>
      <trkpt lat="41.622851587" lon="2.458506718">
        <ele>442.82</ele>
        <time>2013-08-11T10:33:56Z</time>
      </trkpt>
      <trkpt lat="41.622757458" lon="2.458779801">
        <ele>443.79</ele>
        <time>2013-08-11T10:34:05Z</time>
      </trkpt>
      <trkpt lat="41.622621839" lon="2.458909301">
        <ele>445.23</ele>
        <time>2013-08-11T10:34:13Z</time>
      </trkpt>
      <trkpt lat="41.622588814" lon="2.458942494">
        <ele>445.23</ele>
        <time>2013-08-11T10:34:15Z</time>
      </trkpt>
      <trkpt lat="41.622551431" lon="2.459065205">
        <ele>445.71</ele>
        <time>2013-08-11T10:34:21Z</time>
      </trkpt>
      <trkpt lat="41.622514551" lon="2.459304256">
        <ele>447.63</ele>
        <time>2013-08-11T10:34:31Z</time>
      </trkpt>
      <trkpt lat="41.622436347" lon="2.459378436">
        <ele>448.11</ele>
        <time>2013-08-11T10:34:36Z</time>
      </trkpt>
      <trkpt lat="41.622284048" lon="2.459439876">
        <ele>448.11</ele>
        <time>2013-08-11T10:34:41Z</time>
      </trkpt>
      <trkpt lat="41.622279606" lon="2.459677838">
        <ele>448.11</ele>
        <time>2013-08-11T10:34:49Z</time>
      </trkpt>
      <trkpt lat="41.622351942" lon="2.459800800">
        <ele>448.59</ele>
        <time>2013-08-11T10:34:56Z</time>
      </trkpt>
      <trkpt lat="41.622374908" lon="2.459871879">
        <ele>449.07</ele>
        <time>2013-08-11T10:35:00Z</time>
      </trkpt>
      <trkpt lat="41.622368789" lon="2.459936084">
        <ele>449.07</ele>
        <time>2013-08-11T10:35:02Z</time>
      </trkpt>
      <trkpt lat="41.622261669" lon="2.460094670">
        <ele>447.63</ele>
        <time>2013-08-11T10:35:06Z</time>
      </trkpt>
      <trkpt lat="41.622216993" lon="2.460145045">
        <ele>447.63</ele>
        <time>2013-08-11T10:35:07Z</time>
      </trkpt>
      <trkpt lat="41.621961596" lon="2.460319892">
        <ele>447.15</ele>
        <time>2013-08-11T10:35:13Z</time>
      </trkpt>
      <trkpt lat="41.621888590" lon="2.460367166">
        <ele>448.59</ele>
        <time>2013-08-11T10:35:17Z</time>
      </trkpt>
      <trkpt lat="41.621765795" lon="2.460452493">
        <ele>450.03</ele>
        <time>2013-08-11T10:35:25Z</time>
      </trkpt>
      <trkpt lat="41.621654903" lon="2.460526506">
        <ele>451.48</ele>
        <time>2013-08-11T10:35:31Z</time>
      </trkpt>
      <trkpt lat="41.621509560" lon="2.460586939">
        <ele>452.92</ele>
        <time>2013-08-11T10:35:39Z</time>
      </trkpt>
      <trkpt lat="41.621412666" lon="2.460634381">
        <ele>454.84</ele>
        <time>2013-08-11T10:35:46Z</time>
      </trkpt>
      <trkpt lat="41.621398668" lon="2.460636057">
        <ele>454.84</ele>
        <time>2013-08-11T10:35:47Z</time>
      </trkpt>
      <trkpt lat="41.621273526" lon="2.460721804">
        <ele>456.28</ele>
        <time>2013-08-11T10:35:55Z</time>
      </trkpt>
      <trkpt lat="41.621187444" lon="2.460814424">
        <ele>457.72</ele>
        <time>2013-08-11T10:36:03Z</time>
      </trkpt>
      <trkpt lat="41.621119131" lon="2.460878546">
        <ele>458.69</ele>
        <time>2013-08-11T10:36:11Z</time>
      </trkpt>
      <trkpt lat="41.621093231" lon="2.460885083">
        <ele>458.69</ele>
        <time>2013-08-11T10:36:18Z</time>
      </trkpt>
      <trkpt lat="41.621085939" lon="2.460893214">
        <ele>458.69</ele>
        <time>2013-08-11T10:36:40Z</time>
      </trkpt>
      <trkpt lat="41.621094824" lon="2.460920120">
        <ele>458.69</ele>
        <time>2013-08-11T10:36:55Z</time>
      </trkpt>
      <trkpt lat="41.621092142" lon="2.460898411">
        <ele>459.17</ele>
        <time>2013-08-11T10:37:24Z</time>
      </trkpt>
      <trkpt lat="41.621085352" lon="2.460895980">
        <ele>459.17</ele>
        <time>2013-08-11T10:37:26Z</time>
      </trkpt>
      <trkpt lat="41.621064062" lon="2.460828925">
        <ele>460.13</ele>
        <time>2013-08-11T10:37:34Z</time>
      </trkpt>
      <trkpt lat="41.621105972" lon="2.460698167">
        <ele>461.09</ele>
        <time>2013-08-11T10:37:44Z</time>
      </trkpt>
      <trkpt lat="41.621158442" lon="2.460559530">
        <ele>462.05</ele>
        <time>2013-08-11T10:37:52Z</time>
      </trkpt>
      <trkpt lat="41.621179649" lon="2.460523572">
        <ele>462.05</ele>
        <time>2013-08-11T10:37:54Z</time>
      </trkpt>
      <trkpt lat="41.621237903" lon="2.460357778">
        <ele>463.97</ele>
        <time>2013-08-11T10:38:04Z</time>
      </trkpt>
      <trkpt lat="41.621282243" lon="2.460242527">
        <ele>464.93</ele>
        <time>2013-08-11T10:38:10Z</time>
      </trkpt>
      <trkpt lat="41.621309903" lon="2.460166168">
        <ele>465.42</ele>
        <time>2013-08-11T10:38:14Z</time>
      </trkpt>
      <trkpt lat="41.621343682" lon="2.459976150">
        <ele>466.86</ele>
        <time>2013-08-11T10:38:24Z</time>
      </trkpt>
      <trkpt lat="41.621350220" lon="2.459840363">
        <ele>468.30</ele>
        <time>2013-08-11T10:38:31Z</time>
      </trkpt>
      <trkpt lat="41.621364805" lon="2.459695440">
        <ele>469.74</ele>
        <time>2013-08-11T10:38:39Z</time>
      </trkpt>
      <trkpt lat="41.621373354" lon="2.459532831">
        <ele>471.18</ele>
        <time>2013-08-11T10:38:48Z</time>
      </trkpt>
      <trkpt lat="41.621365559" lon="2.459388159">
        <ele>472.14</ele>
        <time>2013-08-11T10:38:56Z</time>
      </trkpt>
      <trkpt lat="41.621330439" lon="2.459258407">
        <ele>473.11</ele>
        <time>2013-08-11T10:39:04Z</time>
      </trkpt>
      <trkpt lat="41.621294062" lon="2.459098229">
        <ele>475.03</ele>
        <time>2013-08-11T10:39:13Z</time>
      </trkpt>
      <trkpt lat="41.621280399" lon="2.458941991">
        <ele>476.95</ele>
        <time>2013-08-11T10:39:21Z</time>
      </trkpt>
      <trkpt lat="41.621288949" lon="2.458813999">
        <ele>478.39</ele>
        <time>2013-08-11T10:39:28Z</time>
      </trkpt>
      <trkpt lat="41.621310239" lon="2.458678296">
        <ele>479.84</ele>
        <time>2013-08-11T10:39:36Z</time>
      </trkpt>
      <trkpt lat="41.621327924" lon="2.458503114">
        <ele>480.80</ele>
        <time>2013-08-11T10:39:45Z</time>
      </trkpt>
      <trkpt lat="41.621340581" lon="2.458354755">
        <ele>481.28</ele>
        <time>2013-08-11T10:39:53Z</time>
      </trkpt>
      <trkpt lat="41.621348125" lon="2.458315192">
        <ele>481.28</ele>
        <time>2013-08-11T10:39:55Z</time>
      </trkpt>
      <trkpt lat="41.621462789" lon="2.458205557">
        <ele>481.76</ele>
        <time>2013-08-11T10:40:05Z</time>
      </trkpt>
      <trkpt lat="41.621554571" lon="2.458194912">
        <ele>482.24</ele>
        <time>2013-08-11T10:40:11Z</time>
      </trkpt>
      <trkpt lat="41.621664961" lon="2.458198683">
        <ele>483.20</ele>
        <time>2013-08-11T10:40:19Z</time>
      </trkpt>
      <trkpt lat="41.621781134" lon="2.458184518">
        <ele>484.64</ele>
        <time>2013-08-11T10:40:27Z</time>
      </trkpt>
      <trkpt lat="41.621883477" lon="2.458124252">
        <ele>485.60</ele>
        <time>2013-08-11T10:40:35Z</time>
      </trkpt>
      <trkpt lat="41.621915831" lon="2.457992070">
        <ele>487.53</ele>
        <time>2013-08-11T10:40:43Z</time>
      </trkpt>
      <trkpt lat="41.621875682" lon="2.457855109">
        <ele>488.97</ele>
        <time>2013-08-11T10:40:51Z</time>
      </trkpt>
      <trkpt lat="41.621853386" lon="2.457715802">
        <ele>490.41</ele>
        <time>2013-08-11T10:41:00Z</time>
      </trkpt>
      <trkpt lat="41.621814578" lon="2.457559731">
        <ele>491.85</ele>
        <time>2013-08-11T10:41:08Z</time>
      </trkpt>
      <trkpt lat="41.621776775" lon="2.457421513">
        <ele>492.81</ele>
        <time>2013-08-11T10:41:16Z</time>
      </trkpt>
      <trkpt lat="41.621745679" lon="2.457279692">
        <ele>493.77</ele>
        <time>2013-08-11T10:41:24Z</time>
      </trkpt>
      <trkpt lat="41.621706703" lon="2.457077520">
        <ele>494.74</ele>
        <time>2013-08-11T10:41:34Z</time>
      </trkpt>
      <trkpt lat="41.621684574" lon="2.456890268">
        <ele>496.18</ele>
        <time>2013-08-11T10:41:44Z</time>
      </trkpt>
      <trkpt lat="41.621675438" lon="2.456717350">
        <ele>497.62</ele>
        <time>2013-08-11T10:41:53Z</time>
      </trkpt>
      <trkpt lat="41.621707541" lon="2.456569828">
        <ele>499.06</ele>
        <time>2013-08-11T10:42:02Z</time>
      </trkpt>
      <trkpt lat="41.621744170" lon="2.456426749">
        <ele>500.50</ele>
        <time>2013-08-11T10:42:10Z</time>
      </trkpt>
      <trkpt lat="41.621776943" lon="2.456274869">
        <ele>501.95</ele>
        <time>2013-08-11T10:42:19Z</time>
      </trkpt>
      <trkpt lat="41.621798149" lon="2.456133215">
        <ele>502.91</ele>
        <time>2013-08-11T10:42:26Z</time>
      </trkpt>
      <trkpt lat="41.621824552" lon="2.455973707">
        <ele>504.35</ele>
        <time>2013-08-11T10:42:35Z</time>
      </trkpt>
      <trkpt lat="41.621851793" lon="2.455834065">
        <ele>505.31</ele>
        <time>2013-08-11T10:42:43Z</time>
      </trkpt>
      <trkpt lat="41.621821870" lon="2.455715461">
        <ele>506.75</ele>
        <time>2013-08-11T10:42:51Z</time>
      </trkpt>
      <trkpt lat="41.621816003" lon="2.455698278">
        <ele>506.75</ele>
        <time>2013-08-11T10:42:59Z</time>
      </trkpt>
      <trkpt lat="41.621801418" lon="2.455683777">
        <ele>506.75</ele>
        <time>2013-08-11T10:43:07Z</time>
      </trkpt>
      <trkpt lat="41.621778284" lon="2.455674725">
        <ele>506.75</ele>
        <time>2013-08-11T10:43:18Z</time>
      </trkpt>
      <trkpt lat="41.621798065" lon="2.455636671">
        <ele>506.75</ele>
        <time>2013-08-11T10:43:26Z</time>
      </trkpt>
      <trkpt lat="41.621815248" lon="2.455640443">
        <ele>506.75</ele>
        <time>2013-08-11T10:43:28Z</time>
      </trkpt>
      <trkpt lat="41.621906276" lon="2.455514547">
        <ele>506.75</ele>
        <time>2013-08-11T10:43:36Z</time>
      </trkpt>
      <trkpt lat="41.622004847" lon="2.455388315">
        <ele>507.23</ele>
        <time>2013-08-11T10:43:43Z</time>
      </trkpt>
      <trkpt lat="41.622149435" lon="2.455282284">
        <ele>507.71</ele>
        <time>2013-08-11T10:43:51Z</time>
      </trkpt>
      <trkpt lat="41.622237277" lon="2.455238782">
        <ele>507.71</ele>
        <time>2013-08-11T10:43:54Z</time>
      </trkpt>
      <trkpt lat="41.622432156" lon="2.454997299">
        <ele>506.27</ele>
        <time>2013-08-11T10:43:59Z</time>
      </trkpt>
      <trkpt lat="41.622573894" lon="2.454802504">
        <ele>503.39</ele>
        <time>2013-08-11T10:44:04Z</time>
      </trkpt>
      <trkpt lat="41.622546988" lon="2.454733186">
        <ele>503.39</ele>
        <time>2013-08-11T10:44:07Z</time>
      </trkpt>
      <trkpt lat="41.622407095" lon="2.454599159">
        <ele>503.39</ele>
        <time>2013-08-11T10:44:14Z</time>
      </trkpt>
      <trkpt lat="41.622242390" lon="2.454468988">
        <ele>503.39</ele>
        <time>2013-08-11T10:44:21Z</time>
      </trkpt>
      <trkpt lat="41.622093863" lon="2.454353737">
        <ele>503.39</ele>
        <time>2013-08-11T10:44:27Z</time>
      </trkpt>
      <trkpt lat="41.621944246" lon="2.454148380">
        <ele>501.46</ele>
        <time>2013-08-11T10:44:33Z</time>
      </trkpt>
      <trkpt lat="41.621774848" lon="2.453885440">
        <ele>499.06</ele>
        <time>2013-08-11T10:44:39Z</time>
      </trkpt>
      <trkpt lat="41.621659932" lon="2.453742277">
        <ele>497.14</ele>
        <time>2013-08-11T10:44:45Z</time>
      </trkpt>
      <trkpt lat="41.621626404" lon="2.453709085">
        <ele>496.66</ele>
        <time>2013-08-11T10:44:47Z</time>
      </trkpt>
      <trkpt lat="41.621566725" lon="2.453627361">
        <ele>494.74</ele>
        <time>2013-08-11T10:44:52Z</time>
      </trkpt>
      <trkpt lat="41.621472596" lon="2.453606742">
        <ele>492.33</ele>
        <time>2013-08-11T10:44:58Z</time>
      </trkpt>
      <trkpt lat="41.621421802" lon="2.453599198">
        <ele>490.41</ele>
        <time>2013-08-11T10:45:01Z</time>
      </trkpt>
      <trkpt lat="41.621367236" lon="2.453548655">
        <ele>488.97</ele>
        <time>2013-08-11T10:45:04Z</time>
      </trkpt>
      <trkpt lat="41.621255086" lon="2.453492748">
        <ele>485.60</ele>
        <time>2013-08-11T10:45:10Z</time>
      </trkpt>
      <trkpt lat="41.621226252" lon="2.453459723">
        <ele>485.12</ele>
        <time>2013-08-11T10:45:12Z</time>
      </trkpt>
      <trkpt lat="41.621168333" lon="2.453432817">
        <ele>484.16</ele>
        <time>2013-08-11T10:45:16Z</time>
      </trkpt>
      <trkpt lat="41.621127597" lon="2.453471206">
        <ele>483.20</ele>
        <time>2013-08-11T10:45:19Z</time>
      </trkpt>
      <trkpt lat="41.620969095" lon="2.453436924">
        <ele>481.76</ele>
        <time>2013-08-11T10:45:24Z</time>
      </trkpt>
      <trkpt lat="41.620959372" lon="2.453284457">
        <ele>480.32</ele>
        <time>2013-08-11T10:45:28Z</time>
      </trkpt>
      <trkpt lat="41.620972699" lon="2.452865530">
        <ele>478.39</ele>
        <time>2013-08-11T10:45:37Z</time>
      </trkpt>
      <trkpt lat="41.620999354" lon="2.452648606">
        <ele>477.43</ele>
        <time>2013-08-11T10:45:42Z</time>
      </trkpt>
      <trkpt lat="41.621033049" lon="2.452382565">
        <ele>475.51</ele>
        <time>2013-08-11T10:45:48Z</time>
      </trkpt>
      <trkpt lat="41.621038581" lon="2.452291956">
        <ele>475.03</ele>
        <time>2013-08-11T10:45:50Z</time>
      </trkpt>
      <trkpt lat="41.620959791" lon="2.452041924">
        <ele>473.59</ele>
        <time>2013-08-11T10:45:56Z</time>
      </trkpt>
      <trkpt lat="41.620949565" lon="2.451629283">
        <ele>471.66</ele>
        <time>2013-08-11T10:46:05Z</time>
      </trkpt>
      <trkpt lat="41.620969347" lon="2.451355027">
        <ele>470.22</ele>
        <time>2013-08-11T10:46:11Z</time>
      </trkpt>
      <trkpt lat="41.620997091" lon="2.451117987">
        <ele>469.26</ele>
        <time>2013-08-11T10:46:17Z</time>
      </trkpt>
      <trkpt lat="41.621014860" lon="2.451027462">
        <ele>468.30</ele>
        <time>2013-08-11T10:46:20Z</time>
      </trkpt>
      <trkpt lat="41.621104212" lon="2.450918330">
        <ele>466.38</ele>
        <time>2013-08-11T10:46:27Z</time>
      </trkpt>
      <trkpt lat="41.621123322" lon="2.450880025">
        <ele>465.42</ele>
        <time>2013-08-11T10:46:30Z</time>
      </trkpt>
      <trkpt lat="41.621080658" lon="2.450793859">
        <ele>464.93</ele>
        <time>2013-08-11T10:46:35Z</time>
      </trkpt>
      <trkpt lat="41.621032882" lon="2.450634351">
        <ele>464.93</ele>
        <time>2013-08-11T10:46:42Z</time>
      </trkpt>
      <trkpt lat="41.621118042" lon="2.450524381">
        <ele>464.93</ele>
        <time>2013-08-11T10:46:48Z</time>
      </trkpt>
      <trkpt lat="41.621224492" lon="2.450314246">
        <ele>464.93</ele>
        <time>2013-08-11T10:46:54Z</time>
      </trkpt>
      <trkpt lat="41.621321973" lon="2.450020796">
        <ele>464.45</ele>
        <time>2013-08-11T10:47:00Z</time>
      </trkpt>
      <trkpt lat="41.621393052" lon="2.449772524">
        <ele>463.97</ele>
        <time>2013-08-11T10:47:06Z</time>
      </trkpt>
      <trkpt lat="41.621469830" lon="2.449570855">
        <ele>463.49</ele>
        <time>2013-08-11T10:47:11Z</time>
      </trkpt>
      <trkpt lat="41.621503106" lon="2.449373461">
        <ele>462.53</ele>
        <time>2013-08-11T10:47:14Z</time>
      </trkpt>
      <trkpt lat="41.621469243" lon="2.449051932">
        <ele>462.05</ele>
        <time>2013-08-11T10:47:19Z</time>
      </trkpt>
      <trkpt lat="41.621460023" lon="2.448863423">
        <ele>461.57</ele>
        <time>2013-08-11T10:47:22Z</time>
      </trkpt>
      <trkpt lat="41.621536131" lon="2.448450279">
        <ele>461.09</ele>
        <time>2013-08-11T10:47:30Z</time>
      </trkpt>
      <trkpt lat="41.621566809" lon="2.448201336">
        <ele>462.53</ele>
        <time>2013-08-11T10:47:37Z</time>
      </trkpt>
      <trkpt lat="41.621589775" lon="2.448009558">
        <ele>463.01</ele>
        <time>2013-08-11T10:47:44Z</time>
      </trkpt>
      <trkpt lat="41.621586171" lon="2.447984329">
        <ele>463.01</ele>
        <time>2013-08-11T10:47:45Z</time>
      </trkpt>
      <trkpt lat="41.621583237" lon="2.447882656">
        <ele>463.97</ele>
        <time>2013-08-11T10:47:49Z</time>
      </trkpt>
      <trkpt lat="41.621532443" lon="2.447664643">
        <ele>464.93</ele>
        <time>2013-08-11T10:47:58Z</time>
      </trkpt>
      <trkpt lat="41.621451809" lon="2.447462639">
        <ele>464.93</ele>
        <time>2013-08-11T10:48:06Z</time>
      </trkpt>
      <trkpt lat="41.621438566" lon="2.447214367">
        <ele>466.86</ele>
        <time>2013-08-11T10:48:15Z</time>
      </trkpt>
      <trkpt lat="41.621377629" lon="2.447087549">
        <ele>467.82</ele>
        <time>2013-08-11T10:48:22Z</time>
      </trkpt>
      <trkpt lat="41.621298756" lon="2.446998533">
        <ele>469.26</ele>
        <time>2013-08-11T10:48:30Z</time>
      </trkpt>
      <trkpt lat="41.621172692" lon="2.446872385">
        <ele>469.74</ele>
        <time>2013-08-11T10:48:39Z</time>
      </trkpt>
      <trkpt lat="41.621056602" lon="2.446782280">
        <ele>470.22</ele>
        <time>2013-08-11T10:48:47Z</time>
      </trkpt>
      <trkpt lat="41.621024751" lon="2.446742131">
        <ele>470.22</ele>
        <time>2013-08-11T10:48:49Z</time>
      </trkpt>
      <trkpt lat="41.620886534" lon="2.446692174">
        <ele>467.82</ele>
        <time>2013-08-11T10:48:54Z</time>
      </trkpt>
      <trkpt lat="41.620843786" lon="2.446700724">
        <ele>467.34</ele>
        <time>2013-08-11T10:48:55Z</time>
      </trkpt>
      <trkpt lat="41.620584869" lon="2.446586311">
        <ele>465.42</ele>
        <time>2013-08-11T10:49:00Z</time>
      </trkpt>
      <trkpt lat="41.620211623" lon="2.446197391">
        <ele>463.01</ele>
        <time>2013-08-11T10:49:09Z</time>
      </trkpt>
      <trkpt lat="41.620074243" lon="2.446105357">
        <ele>462.53</ele>
        <time>2013-08-11T10:49:15Z</time>
      </trkpt>
      <trkpt lat="41.620037028" lon="2.446101837">
        <ele>462.53</ele>
        <time>2013-08-11T10:49:18Z</time>
      </trkpt>
      <trkpt lat="41.619937199" lon="2.446270565">
        <ele>462.05</ele>
        <time>2013-08-11T10:49:26Z</time>
      </trkpt>
      <trkpt lat="41.619808537" lon="2.446206276">
        <ele>460.61</ele>
        <time>2013-08-11T10:49:30Z</time>
      </trkpt>
      <trkpt lat="41.619749948" lon="2.446131593">
        <ele>460.13</ele>
        <time>2013-08-11T10:49:32Z</time>
      </trkpt>
      <trkpt lat="41.619721198" lon="2.446000165">
        <ele>458.69</ele>
        <time>2013-08-11T10:49:35Z</time>
      </trkpt>
      <trkpt lat="41.619724634" lon="2.445954818">
        <ele>458.69</ele>
        <time>2013-08-11T10:49:36Z</time>
      </trkpt>
      <trkpt lat="41.619653137" lon="2.445841663">
        <ele>457.24</ele>
        <time>2013-08-11T10:49:42Z</time>
      </trkpt>
      <trkpt lat="41.619613406" lon="2.445895055">
        <ele>456.28</ele>
        <time>2013-08-11T10:49:44Z</time>
      </trkpt>
      <trkpt lat="41.619478122" lon="2.445959680">
        <ele>454.36</ele>
        <time>2013-08-11T10:49:50Z</time>
      </trkpt>
      <trkpt lat="41.619334540" lon="2.445921626">
        <ele>453.40</ele>
        <time>2013-08-11T10:49:55Z</time>
      </trkpt>
      <trkpt lat="41.619313921" lon="2.445878878">
        <ele>452.92</ele>
        <time>2013-08-11T10:50:01Z</time>
      </trkpt>
      <trkpt lat="41.619290116" lon="2.445885500">
        <ele>452.92</ele>
        <time>2013-08-11T10:50:05Z</time>
      </trkpt>
      <trkpt lat="41.619283746" lon="2.445821881">
        <ele>452.92</ele>
        <time>2013-08-11T10:50:11Z</time>
      </trkpt>
      <trkpt lat="41.619298750" lon="2.445794892">
        <ele>452.92</ele>
        <time>2013-08-11T10:50:17Z</time>
      </trkpt>
      <trkpt lat="41.619275113" lon="2.445800340">
        <ele>452.92</ele>
        <time>2013-08-11T10:50:38Z</time>
      </trkpt>
      <trkpt lat="41.619280058" lon="2.445786845">
        <ele>452.92</ele>
        <time>2013-08-11T10:51:00Z</time>
      </trkpt>
      <trkpt lat="41.619283495" lon="2.445774021">
        <ele>452.92</ele>
        <time>2013-08-11T10:51:16Z</time>
      </trkpt>
      <trkpt lat="41.619275783" lon="2.445778296">
        <ele>452.92</ele>
        <time>2013-08-11T10:51:35Z</time>
      </trkpt>
      <trkpt lat="41.619262205" lon="2.445796400">
        <ele>452.92</ele>
        <time>2013-08-11T10:51:53Z</time>
      </trkpt>
      <trkpt lat="41.619289194" lon="2.445774943">
        <ele>452.92</ele>
        <time>2013-08-11T10:52:15Z</time>
      </trkpt>
      <trkpt lat="41.619292882" lon="2.445760442">
        <ele>452.92</ele>
        <time>2013-08-11T10:52:30Z</time>
      </trkpt>
      <trkpt lat="41.619242423" lon="2.445743511">
        <ele>452.92</ele>
        <time>2013-08-11T10:52:55Z</time>
      </trkpt>
      <trkpt lat="41.619257595" lon="2.445767818">
        <ele>452.92</ele>
        <time>2013-08-11T10:53:17Z</time>
      </trkpt>
      <trkpt lat="41.619280729" lon="2.445787767">
        <ele>452.92</ele>
        <time>2013-08-11T10:53:39Z</time>
      </trkpt>
      <trkpt lat="41.619306880" lon="2.445789611">
        <ele>452.92</ele>
        <time>2013-08-11T10:54:03Z</time>
      </trkpt>
      <trkpt lat="41.619310065" lon="2.445764968">
        <ele>452.92</ele>
        <time>2013-08-11T10:54:29Z</time>
      </trkpt>
      <trkpt lat="41.619287434" lon="2.445763208">
        <ele>452.92</ele>
        <time>2013-08-11T10:54:46Z</time>
      </trkpt>
      <trkpt lat="41.619300594" lon="2.445748204">
        <ele>452.92</ele>
        <time>2013-08-11T10:55:06Z</time>
      </trkpt>
      <trkpt lat="41.619277627" lon="2.445772428">
        <ele>452.92</ele>
        <time>2013-08-11T10:55:28Z</time>
      </trkpt>
      <trkpt lat="41.619276538" lon="2.445755664">
        <ele>453.40</ele>
        <time>2013-08-11T10:55:53Z</time>
      </trkpt>
      <trkpt lat="41.619285171" lon="2.445762202">
        <ele>453.40</ele>
        <time>2013-08-11T10:56:10Z</time>
      </trkpt>
      <trkpt lat="41.619286680" lon="2.445765220">
        <ele>453.40</ele>
        <time>2013-08-11T10:56:35Z</time>
      </trkpt>
      <trkpt lat="41.619265390" lon="2.445751976">
        <ele>453.40</ele>
        <time>2013-08-11T10:56:55Z</time>
      </trkpt>
      <trkpt lat="41.619233455" lon="2.445775530">
        <ele>453.40</ele>
        <time>2013-08-11T10:57:24Z</time>
      </trkpt>
      <trkpt lat="41.619235466" lon="2.445761783">
        <ele>453.40</ele>
        <time>2013-08-11T10:57:47Z</time>
      </trkpt>
      <trkpt lat="41.619246614" lon="2.445763124">
        <ele>453.40</ele>
        <time>2013-08-11T10:58:10Z</time>
      </trkpt>
      <trkpt lat="41.619266144" lon="2.445796233">
        <ele>453.88</ele>
        <time>2013-08-11T10:58:44Z</time>
      </trkpt>
      <trkpt lat="41.619277711" lon="2.445772261">
        <ele>453.88</ele>
        <time>2013-08-11T10:59:17Z</time>
      </trkpt>
      <trkpt lat="41.619255667" lon="2.445774943">
        <ele>453.88</ele>
        <time>2013-08-11T10:59:46Z</time>
      </trkpt>
      <trkpt lat="41.619246195" lon="2.445743427">
        <ele>453.88</ele>
        <time>2013-08-11T11:00:05Z</time>
      </trkpt>
      <trkpt lat="41.619259941" lon="2.445769495">
        <ele>453.88</ele>
        <time>2013-08-11T11:00:27Z</time>
      </trkpt>
      <trkpt lat="41.619250386" lon="2.445764884">
        <ele>453.88</ele>
        <time>2013-08-11T11:00:57Z</time>
      </trkpt>
      <trkpt lat="41.619245441" lon="2.445761280">
        <ele>453.88</ele>
        <time>2013-08-11T11:01:24Z</time>
      </trkpt>
      <trkpt lat="41.619268994" lon="2.445757592">
        <ele>453.88</ele>
        <time>2013-08-11T11:01:45Z</time>
      </trkpt>
      <trkpt lat="41.619237813" lon="2.445758347">
        <ele>453.88</ele>
        <time>2013-08-11T11:02:11Z</time>
      </trkpt>
      <trkpt lat="41.619243094" lon="2.445739320">
        <ele>453.88</ele>
        <time>2013-08-11T11:02:32Z</time>
      </trkpt>
      <trkpt lat="41.619251476" lon="2.445755161">
        <ele>454.36</ele>
        <time>2013-08-11T11:02:58Z</time>
      </trkpt>
      <trkpt lat="41.619261283" lon="2.445757257">
        <ele>454.36</ele>
        <time>2013-08-11T11:03:21Z</time>
      </trkpt>
      <trkpt lat="41.619271341" lon="2.445753737">
        <ele>454.36</ele>
        <time>2013-08-11T11:03:33Z</time>
      </trkpt>
      <trkpt lat="41.619259271" lon="2.445770417">
        <ele>454.36</ele>
        <time>2013-08-11T11:03:44Z</time>
      </trkpt>
      <trkpt lat="41.619260361" lon="2.445769746">
        <ele>454.36</ele>
        <time>2013-08-11T11:03:47Z</time>
      </trkpt>
      <trkpt lat="41.619248291" lon="2.445787348">
        <ele>454.36</ele>
        <time>2013-08-11T11:03:49Z</time>
      </trkpt>
      <trkpt lat="41.619216439" lon="2.445876196">
        <ele>454.36</ele>
        <time>2013-08-11T11:03:55Z</time>
      </trkpt>
      <trkpt lat="41.619095740" lon="2.445843507">
        <ele>454.36</ele>
        <time>2013-08-11T11:04:00Z</time>
      </trkpt>
      <trkpt lat="41.618861885" lon="2.445752060">
        <ele>453.88</ele>
        <time>2013-08-11T11:04:08Z</time>
      </trkpt>
      <trkpt lat="41.618747388" lon="2.445624823">
        <ele>453.40</ele>
        <time>2013-08-11T11:04:13Z</time>
      </trkpt>
      <trkpt lat="41.618796841" lon="2.445370600">
        <ele>453.40</ele>
        <time>2013-08-11T11:04:22Z</time>
      </trkpt>
      <trkpt lat="41.618808492" lon="2.445193574">
        <ele>454.84</ele>
        <time>2013-08-11T11:04:29Z</time>
      </trkpt>
      <trkpt lat="41.618779239" lon="2.445045466">
        <ele>455.80</ele>
        <time>2013-08-11T11:04:36Z</time>
      </trkpt>
      <trkpt lat="41.618747640" lon="2.444844468">
        <ele>457.24</ele>
        <time>2013-08-11T11:04:44Z</time>
      </trkpt>
      <trkpt lat="41.618727691" lon="2.444768109">
        <ele>457.72</ele>
        <time>2013-08-11T11:04:47Z</time>
      </trkpt>
      <trkpt lat="41.618673292" lon="2.444542887">
        <ele>460.13</ele>
        <time>2013-08-11T11:04:57Z</time>
      </trkpt>
      <trkpt lat="41.618555442" lon="2.444412967">
        <ele>461.57</ele>
        <time>2013-08-11T11:05:05Z</time>
      </trkpt>
      <trkpt lat="41.618502888" lon="2.444454542">
        <ele>462.05</ele>
        <time>2013-08-11T11:05:09Z</time>
      </trkpt>
      <trkpt lat="41.618437090" lon="2.444635339">
        <ele>463.01</ele>
        <time>2013-08-11T11:05:18Z</time>
      </trkpt>
      <trkpt lat="41.618421751" lon="2.444818400">
        <ele>464.45</ele>
        <time>2013-08-11T11:05:26Z</time>
      </trkpt>
      <trkpt lat="41.618409178" lon="2.445021745">
        <ele>465.42</ele>
        <time>2013-08-11T11:05:35Z</time>
      </trkpt>
      <trkpt lat="41.618379674" lon="2.445189299">
        <ele>466.86</ele>
        <time>2013-08-11T11:05:43Z</time>
      </trkpt>
      <trkpt lat="41.618347320" lon="2.445371522">
        <ele>467.34</ele>
        <time>2013-08-11T11:05:51Z</time>
      </trkpt>
      <trkpt lat="41.618269787" lon="2.445599007">
        <ele>469.26</ele>
        <time>2013-08-11T11:06:02Z</time>
      </trkpt>
      <trkpt lat="41.618177838" lon="2.445793383">
        <ele>470.70</ele>
        <time>2013-08-11T11:06:12Z</time>
      </trkpt>
      <trkpt lat="41.618079937" lon="2.445936462">
        <ele>472.14</ele>
        <time>2013-08-11T11:06:21Z</time>
      </trkpt>
      <trkpt lat="41.617966530" lon="2.446054815">
        <ele>473.59</ele>
        <time>2013-08-11T11:06:31Z</time>
      </trkpt>
      <trkpt lat="41.617879693" lon="2.446187249">
        <ele>474.07</ele>
        <time>2013-08-11T11:06:38Z</time>
      </trkpt>
      <trkpt lat="41.617831497" lon="2.446332172">
        <ele>475.03</ele>
        <time>2013-08-11T11:06:45Z</time>
      </trkpt>
      <trkpt lat="41.617734100" lon="2.446442142">
        <ele>476.47</ele>
        <time>2013-08-11T11:06:53Z</time>
      </trkpt>
      <trkpt lat="41.617677354" lon="2.446537612">
        <ele>477.43</ele>
        <time>2013-08-11T11:06:59Z</time>
      </trkpt>
      <trkpt lat="41.617625722" lon="2.446686391">
        <ele>478.39</ele>
        <time>2013-08-11T11:07:06Z</time>
      </trkpt>
      <trkpt lat="41.617547351" lon="2.446856208">
        <ele>478.39</ele>
        <time>2013-08-11T11:07:14Z</time>
      </trkpt>
      <trkpt lat="41.617451210" lon="2.447057374">
        <ele>478.87</ele>
        <time>2013-08-11T11:07:23Z</time>
      </trkpt>
      <trkpt lat="41.617423718" lon="2.447321739">
        <ele>478.87</ele>
        <time>2013-08-11T11:07:31Z</time>
      </trkpt>
      <trkpt lat="41.617445678" lon="2.447547883">
        <ele>479.84</ele>
        <time>2013-08-11T11:07:40Z</time>
      </trkpt>
      <trkpt lat="41.617396728" lon="2.447733207">
        <ele>481.28</ele>
        <time>2013-08-11T11:07:48Z</time>
      </trkpt>
      <trkpt lat="41.617350292" lon="2.447879890">
        <ele>483.20</ele>
        <time>2013-08-11T11:07:56Z</time>
      </trkpt>
      <trkpt lat="41.617300336" lon="2.448056581">
        <ele>485.12</ele>
        <time>2013-08-11T11:08:04Z</time>
      </trkpt>
      <trkpt lat="41.617249458" lon="2.448224889">
        <ele>488.01</ele>
        <time>2013-08-11T11:08:13Z</time>
      </trkpt>
      <trkpt lat="41.617226743" lon="2.448376099">
        <ele>488.49</ele>
        <time>2013-08-11T11:08:20Z</time>
      </trkpt>
      <trkpt lat="41.617212242" lon="2.448530829">
        <ele>490.89</ele>
        <time>2013-08-11T11:08:29Z</time>
      </trkpt>
      <trkpt lat="41.617182654" lon="2.448733000">
        <ele>491.85</ele>
        <time>2013-08-11T11:08:39Z</time>
      </trkpt>
      <trkpt lat="41.617131106" lon="2.448891921">
        <ele>492.81</ele>
        <time>2013-08-11T11:08:48Z</time>
      </trkpt>
      <trkpt lat="41.617067152" lon="2.449007927">
        <ele>493.77</ele>
        <time>2013-08-11T11:08:56Z</time>
      </trkpt>
      <trkpt lat="41.617008311" lon="2.449164081">
        <ele>494.74</ele>
        <time>2013-08-11T11:09:04Z</time>
      </trkpt>
      <trkpt lat="41.616958438" lon="2.449341107">
        <ele>495.22</ele>
        <time>2013-08-11T11:09:12Z</time>
      </trkpt>
      <trkpt lat="41.616952236" lon="2.449381843">
        <ele>495.70</ele>
        <time>2013-08-11T11:09:14Z</time>
      </trkpt>
      <trkpt lat="41.616888366" lon="2.449574208">
        <ele>496.18</ele>
        <time>2013-08-11T11:09:23Z</time>
      </trkpt>
      <trkpt lat="41.616821562" lon="2.449734386">
        <ele>498.10</ele>
        <time>2013-08-11T11:09:32Z</time>
      </trkpt>
      <trkpt lat="41.616747298" lon="2.449830108">
        <ele>499.54</ele>
        <time>2013-08-11T11:09:40Z</time>
      </trkpt>
      <trkpt lat="41.616679572" lon="2.449888194">
        <ele>500.50</ele>
        <time>2013-08-11T11:09:45Z</time>
      </trkpt>
      <trkpt lat="41.616611092" lon="2.450081984">
        <ele>502.43</ele>
        <time>2013-08-11T11:09:55Z</time>
      </trkpt>
      <trkpt lat="41.616598268" lon="2.450190278">
        <ele>503.39</ele>
        <time>2013-08-11T11:10:00Z</time>
      </trkpt>
      <trkpt lat="41.616640597" lon="2.450318689">
        <ele>505.79</ele>
        <time>2013-08-11T11:10:08Z</time>
      </trkpt>
      <trkpt lat="41.616622576" lon="2.450447770">
        <ele>506.27</ele>
        <time>2013-08-11T11:10:14Z</time>
      </trkpt>
      <trkpt lat="41.616529285" lon="2.450637872">
        <ele>506.75</ele>
        <time>2013-08-11T11:10:25Z</time>
      </trkpt>
      <trkpt lat="41.616463319" lon="2.450696210">
        <ele>507.23</ele>
        <time>2013-08-11T11:10:31Z</time>
      </trkpt>
      <trkpt lat="41.616405568" lon="2.450788662">
        <ele>508.19</ele>
        <time>2013-08-11T11:10:37Z</time>
      </trkpt>
      <trkpt lat="41.616390900" lon="2.450872062">
        <ele>508.67</ele>
        <time>2013-08-11T11:10:41Z</time>
      </trkpt>
      <trkpt lat="41.616351505" lon="2.451021344">
        <ele>509.16</ele>
        <time>2013-08-11T11:10:48Z</time>
      </trkpt>
      <trkpt lat="41.616301130" lon="2.451245560">
        <ele>511.08</ele>
        <time>2013-08-11T11:10:59Z</time>
      </trkpt>
      <trkpt lat="41.616255448" lon="2.451446055">
        <ele>512.52</ele>
        <time>2013-08-11T11:11:09Z</time>
      </trkpt>
      <trkpt lat="41.616186633" lon="2.451582931">
        <ele>514.92</ele>
        <time>2013-08-11T11:11:17Z</time>
      </trkpt>
      <trkpt lat="41.616151261" lon="2.451677228">
        <ele>516.37</ele>
        <time>2013-08-11T11:11:23Z</time>
      </trkpt>
      <trkpt lat="41.616064592" lon="2.451801783">
        <ele>519.25</ele>
        <time>2013-08-11T11:11:32Z</time>
      </trkpt>
      <trkpt lat="41.615987898" lon="2.451870263">
        <ele>519.25</ele>
        <time>2013-08-11T11:11:39Z</time>
      </trkpt>
      <trkpt lat="41.615878682" lon="2.451930696">
        <ele>520.21</ele>
        <time>2013-08-11T11:11:47Z</time>
      </trkpt>
      <trkpt lat="41.615865187" lon="2.451940084">
        <ele>520.21</ele>
        <time>2013-08-11T11:11:48Z</time>
      </trkpt>
      <trkpt lat="41.615808525" lon="2.451995656">
        <ele>521.17</ele>
        <time>2013-08-11T11:11:53Z</time>
      </trkpt>
      <trkpt lat="41.615708529" lon="2.452103531">
        <ele>523.09</ele>
        <time>2013-08-11T11:12:02Z</time>
      </trkpt>
      <trkpt lat="41.615664692" lon="2.452289945">
        <ele>523.58</ele>
        <time>2013-08-11T11:12:10Z</time>
      </trkpt>
      <trkpt lat="41.615657399" lon="2.452494128">
        <ele>524.06</ele>
        <time>2013-08-11T11:12:18Z</time>
      </trkpt>
      <trkpt lat="41.615701823" lon="2.452678278">
        <ele>524.54</ele>
        <time>2013-08-11T11:12:26Z</time>
      </trkpt>
      <trkpt lat="41.615775333" lon="2.452818256">
        <ele>524.54</ele>
        <time>2013-08-11T11:12:33Z</time>
      </trkpt>
      <trkpt lat="41.615934924" lon="2.452968544">
        <ele>524.54</ele>
        <time>2013-08-11T11:12:40Z</time>
      </trkpt>
      <trkpt lat="41.616174563" lon="2.453146491">
        <ele>524.54</ele>
        <time>2013-08-11T11:12:49Z</time>
      </trkpt>
      <trkpt lat="41.616387128" lon="2.453272388">
        <ele>524.54</ele>
        <time>2013-08-11T11:12:57Z</time>
      </trkpt>
      <trkpt lat="41.616467091" lon="2.453376407">
        <ele>523.58</ele>
        <time>2013-08-11T11:13:00Z</time>
      </trkpt>
      <trkpt lat="41.616583097" lon="2.453557708">
        <ele>521.65</ele>
        <time>2013-08-11T11:13:03Z</time>
      </trkpt>
      <trkpt lat="41.616655516" lon="2.453716545">
        <ele>520.69</ele>
        <time>2013-08-11T11:13:05Z</time>
      </trkpt>
      <trkpt lat="41.616848133" lon="2.453932295">
        <ele>518.77</ele>
        <time>2013-08-11T11:13:09Z</time>
      </trkpt>
      <trkpt lat="41.617024823" lon="2.454006391">
        <ele>517.81</ele>
        <time>2013-08-11T11:13:15Z</time>
      </trkpt>
      <trkpt lat="41.617146612" lon="2.454085348">
        <ele>517.81</ele>
        <time>2013-08-11T11:13:23Z</time>
      </trkpt>
      <trkpt lat="41.617236550" lon="2.454181908">
        <ele>517.81</ele>
        <time>2013-08-11T11:13:30Z</time>
      </trkpt>
      <trkpt lat="41.617341408" lon="2.454392545">
        <ele>517.81</ele>
        <time>2013-08-11T11:13:38Z</time>
      </trkpt>
      <trkpt lat="41.617466549" lon="2.454626316">
        <ele>519.73</ele>
        <time>2013-08-11T11:13:46Z</time>
      </trkpt>
      <trkpt lat="41.617566629" lon="2.454816586">
        <ele>521.17</ele>
        <time>2013-08-11T11:13:53Z</time>
      </trkpt>
      <trkpt lat="41.617688167" lon="2.455103917">
        <ele>521.17</ele>
        <time>2013-08-11T11:14:00Z</time>
      </trkpt>
      <trkpt lat="41.617743487" lon="2.455370294">
        <ele>521.17</ele>
        <time>2013-08-11T11:14:06Z</time>
      </trkpt>
      <trkpt lat="41.617801742" lon="2.455730800">
        <ele>521.17</ele>
        <time>2013-08-11T11:14:14Z</time>
      </trkpt>
      <trkpt lat="41.617870641" lon="2.455980832">
        <ele>521.17</ele>
        <time>2013-08-11T11:14:19Z</time>
      </trkpt>
      <trkpt lat="41.617939792" lon="2.456137238">
        <ele>519.73</ele>
        <time>2013-08-11T11:14:22Z</time>
      </trkpt>
      <trkpt lat="41.618015815" lon="2.456358018">
        <ele>519.25</ele>
        <time>2013-08-11T11:14:27Z</time>
      </trkpt>
      <trkpt lat="41.618023108" lon="2.456422726">
        <ele>518.77</ele>
        <time>2013-08-11T11:14:30Z</time>
      </trkpt>
      <trkpt lat="41.618104664" lon="2.456561195">
        <ele>518.77</ele>
        <time>2013-08-11T11:14:37Z</time>
      </trkpt>
      <trkpt lat="41.618147076" lon="2.456664125">
        <ele>519.25</ele>
        <time>2013-08-11T11:14:41Z</time>
      </trkpt>
      <trkpt lat="41.618208515" lon="2.456950450">
        <ele>519.25</ele>
        <time>2013-08-11T11:14:48Z</time>
      </trkpt>
      <trkpt lat="41.618208767" lon="2.457062349">
        <ele>519.25</ele>
        <time>2013-08-11T11:14:51Z</time>
      </trkpt>
      <trkpt lat="41.618193260" lon="2.457182964">
        <ele>519.25</ele>
        <time>2013-08-11T11:14:55Z</time>
      </trkpt>
      <trkpt lat="41.618163421" lon="2.457411287">
        <ele>519.25</ele>
        <time>2013-08-11T11:15:01Z</time>
      </trkpt>
      <trkpt lat="41.618182783" lon="2.457601641">
        <ele>516.37</ele>
        <time>2013-08-11T11:15:06Z</time>
      </trkpt>
      <trkpt lat="41.618188064" lon="2.457664421">
        <ele>515.88</ele>
        <time>2013-08-11T11:15:08Z</time>
      </trkpt>
      <trkpt lat="41.618230141" lon="2.457806159">
        <ele>513.48</ele>
        <time>2013-08-11T11:15:14Z</time>
      </trkpt>
      <trkpt lat="41.618239864" lon="2.457835663">
        <ele>513.48</ele>
        <time>2013-08-11T11:15:15Z</time>
      </trkpt>
      <trkpt lat="41.618242630" lon="2.458014533">
        <ele>511.08</ele>
        <time>2013-08-11T11:15:21Z</time>
      </trkpt>
      <trkpt lat="41.618136012" lon="2.458227433">
        <ele>509.64</ele>
        <time>2013-08-11T11:15:27Z</time>
      </trkpt>
      <trkpt lat="41.618107011" lon="2.458436730">
        <ele>509.16</ele>
        <time>2013-08-11T11:15:32Z</time>
      </trkpt>
      <trkpt lat="41.618162583" lon="2.458689276">
        <ele>507.23</ele>
        <time>2013-08-11T11:15:39Z</time>
      </trkpt>
      <trkpt lat="41.618255286" lon="2.459041484">
        <ele>503.87</ele>
        <time>2013-08-11T11:15:44Z</time>
      </trkpt>
      <trkpt lat="41.618313038" lon="2.459210798">
        <ele>503.39</ele>
        <time>2013-08-11T11:15:46Z</time>
      </trkpt>
      <trkpt lat="41.618340279" lon="2.459422106">
        <ele>501.95</ele>
        <time>2013-08-11T11:15:50Z</time>
      </trkpt>
      <trkpt lat="41.618262830" lon="2.459548757">
        <ele>500.98</ele>
        <time>2013-08-11T11:15:55Z</time>
      </trkpt>
      <trkpt lat="41.618245228" lon="2.459692842">
        <ele>500.98</ele>
        <time>2013-08-11T11:15:59Z</time>
      </trkpt>
      <trkpt lat="41.618173228" lon="2.459966343">
        <ele>500.50</ele>
        <time>2013-08-11T11:16:06Z</time>
      </trkpt>
      <trkpt lat="41.618140957" lon="2.460063238">
        <ele>500.02</ele>
        <time>2013-08-11T11:16:08Z</time>
      </trkpt>
      <trkpt lat="41.618105250" lon="2.460316790">
        <ele>500.02</ele>
        <time>2013-08-11T11:16:13Z</time>
      </trkpt>
      <trkpt lat="41.618025790" lon="2.460603703">
        <ele>499.06</ele>
        <time>2013-08-11T11:16:18Z</time>
      </trkpt>
      <trkpt lat="41.618021348" lon="2.460829092">
        <ele>499.06</ele>
        <time>2013-08-11T11:16:22Z</time>
      </trkpt>
      <trkpt lat="41.617967033" lon="2.461087674">
        <ele>498.10</ele>
        <time>2013-08-11T11:16:29Z</time>
      </trkpt>
      <trkpt lat="41.617943983" lon="2.461226395">
        <ele>498.10</ele>
        <time>2013-08-11T11:16:33Z</time>
      </trkpt>
      <trkpt lat="41.617972900" lon="2.461455556">
        <ele>496.18</ele>
        <time>2013-08-11T11:16:40Z</time>
      </trkpt>
      <trkpt lat="41.618055043" lon="2.461633252">
        <ele>494.26</ele>
        <time>2013-08-11T11:16:44Z</time>
      </trkpt>
      <trkpt lat="41.618211784" lon="2.462054694">
        <ele>492.81</ele>
        <time>2013-08-11T11:16:50Z</time>
      </trkpt>
      <trkpt lat="41.618265848" lon="2.462142285">
        <ele>491.85</ele>
        <time>2013-08-11T11:16:52Z</time>
      </trkpt>
      <trkpt lat="41.618317061" lon="2.462216297">
        <ele>491.37</ele>
        <time>2013-08-11T11:16:56Z</time>
      </trkpt>
      <trkpt lat="41.618361569" lon="2.462394497">
        <ele>490.41</ele>
        <time>2013-08-11T11:17:02Z</time>
      </trkpt>
      <trkpt lat="41.618404400" lon="2.462696245">
        <ele>489.93</ele>
        <time>2013-08-11T11:17:08Z</time>
      </trkpt>
      <trkpt lat="41.618552760" lon="2.463068653">
        <ele>488.49</ele>
        <time>2013-08-11T11:17:16Z</time>
      </trkpt>
      <trkpt lat="41.618513030" lon="2.463344418">
        <ele>488.49</ele>
        <time>2013-08-11T11:17:22Z</time>
      </trkpt>
      <trkpt lat="41.618497188" lon="2.463507781">
        <ele>489.45</ele>
        <time>2013-08-11T11:17:27Z</time>
      </trkpt>
      <trkpt lat="41.618549827" lon="2.463731494">
        <ele>490.89</ele>
        <time>2013-08-11T11:17:35Z</time>
      </trkpt>
      <trkpt lat="41.618619312" lon="2.463927714">
        <ele>492.33</ele>
        <time>2013-08-11T11:17:43Z</time>
      </trkpt>
      <trkpt lat="41.618625264" lon="2.464202892">
        <ele>492.33</ele>
        <time>2013-08-11T11:17:51Z</time>
      </trkpt>
      <trkpt lat="41.618662479" lon="2.464444040">
        <ele>492.81</ele>
        <time>2013-08-11T11:17:57Z</time>
      </trkpt>
      <trkpt lat="41.618724254" lon="2.464676134">
        <ele>493.29</ele>
        <time>2013-08-11T11:18:04Z</time>
      </trkpt>
      <trkpt lat="41.618798015" lon="2.464912588">
        <ele>493.77</ele>
        <time>2013-08-11T11:18:12Z</time>
      </trkpt>
      <trkpt lat="41.618804972" lon="2.465192376">
        <ele>492.33</ele>
        <time>2013-08-11T11:18:17Z</time>
      </trkpt>
      <trkpt lat="41.618763062" lon="2.465562102">
        <ele>489.45</ele>
        <time>2013-08-11T11:18:22Z</time>
      </trkpt>
      <trkpt lat="41.618593832" lon="2.465791347">
        <ele>486.56</ele>
        <time>2013-08-11T11:18:27Z</time>
      </trkpt>
      <trkpt lat="41.618562986" lon="2.466023190">
        <ele>484.64</ele>
        <time>2013-08-11T11:18:31Z</time>
      </trkpt>
      <trkpt lat="41.618577654" lon="2.466091922">
        <ele>484.16</ele>
        <time>2013-08-11T11:18:32Z</time>
      </trkpt>
      <trkpt lat="41.618652002" lon="2.466378918">
        <ele>482.72</ele>
        <time>2013-08-11T11:18:36Z</time>
      </trkpt>
      <trkpt lat="41.618653175" lon="2.466730120">
        <ele>481.76</ele>
        <time>2013-08-11T11:18:41Z</time>
      </trkpt>
      <trkpt lat="41.618606069" lon="2.466854843">
        <ele>481.76</ele>
        <time>2013-08-11T11:18:43Z</time>
      </trkpt>
      <trkpt lat="41.618473886" lon="2.467185928">
        <ele>478.87</ele>
        <time>2013-08-11T11:18:48Z</time>
      </trkpt>
      <trkpt lat="41.618483190" lon="2.467617428">
        <ele>476.47</ele>
        <time>2013-08-11T11:18:53Z</time>
      </trkpt>
      <trkpt lat="41.618506911" lon="2.467809038">
        <ele>475.51</ele>
        <time>2013-08-11T11:18:55Z</time>
      </trkpt>
      <trkpt lat="41.618498445" lon="2.467992854">
        <ele>474.07</ele>
        <time>2013-08-11T11:18:57Z</time>
      </trkpt>
      <trkpt lat="41.618460727" lon="2.468125036">
        <ele>474.55</ele>
        <time>2013-08-11T11:18:59Z</time>
      </trkpt>
      <trkpt lat="41.618432899" lon="2.468351264">
        <ele>476.47</ele>
        <time>2013-08-11T11:19:05Z</time>
      </trkpt>
      <trkpt lat="41.618515209" lon="2.468544550">
        <ele>476.95</ele>
        <time>2013-08-11T11:19:12Z</time>
      </trkpt>
      <trkpt lat="41.618587461" lon="2.468619988">
        <ele>476.95</ele>
        <time>2013-08-11T11:19:16Z</time>
      </trkpt>
      <trkpt lat="41.618677231" lon="2.468760636">
        <ele>480.32</ele>
        <time>2013-08-11T11:19:26Z</time>
      </trkpt>
      <trkpt lat="41.618691481" lon="2.468790727">
        <ele>481.28</ele>
        <time>2013-08-11T11:19:29Z</time>
      </trkpt>
      <trkpt lat="41.618707406" lon="2.468905894">
        <ele>483.68</ele>
        <time>2013-08-11T11:19:36Z</time>
      </trkpt>
      <trkpt lat="41.618697683" lon="2.469050231">
        <ele>484.64</ele>
        <time>2013-08-11T11:19:44Z</time>
      </trkpt>
      <trkpt lat="41.618684943" lon="2.469111251">
        <ele>485.12</ele>
        <time>2013-08-11T11:19:47Z</time>
      </trkpt>
      <trkpt lat="41.618654852" lon="2.469359942">
        <ele>485.12</ele>
        <time>2013-08-11T11:19:56Z</time>
      </trkpt>
      <trkpt lat="41.618666251" lon="2.469408222">
        <ele>485.12</ele>
        <time>2013-08-11T11:19:58Z</time>
      </trkpt>
      <trkpt lat="41.618716207" lon="2.469454993">
        <ele>485.60</ele>
        <time>2013-08-11T11:20:02Z</time>
      </trkpt>
      <trkpt lat="41.618838332" lon="2.469433954">
        <ele>487.53</ele>
        <time>2013-08-11T11:20:12Z</time>
      </trkpt>
      <trkpt lat="41.618913685" lon="2.469325157">
        <ele>488.97</ele>
        <time>2013-08-11T11:20:21Z</time>
      </trkpt>
      <trkpt lat="41.618943357" lon="2.469248379">
        <ele>489.45</ele>
        <time>2013-08-11T11:20:25Z</time>
      </trkpt>
      <trkpt lat="41.618983087" lon="2.469165063">
        <ele>490.41</ele>
        <time>2013-08-11T11:20:30Z</time>
      </trkpt>
      <trkpt lat="41.619092806" lon="2.468985019">
        <ele>491.85</ele>
        <time>2013-08-11T11:20:41Z</time>
      </trkpt>
      <trkpt lat="41.619139074" lon="2.468920227">
        <ele>492.33</ele>
        <time>2013-08-11T11:20:46Z</time>
      </trkpt>
      <trkpt lat="41.619221049" lon="2.468855016">
        <ele>492.81</ele>
        <time>2013-08-11T11:20:54Z</time>
      </trkpt>
      <trkpt lat="41.619230856" lon="2.468945541">
        <ele>493.77</ele>
        <time>2013-08-11T11:21:00Z</time>
      </trkpt>
      <trkpt lat="41.619158269" lon="2.469136397">
        <ele>493.77</ele>
        <time>2013-08-11T11:21:10Z</time>
      </trkpt>
      <trkpt lat="41.619115354" lon="2.469334042">
        <ele>494.26</ele>
        <time>2013-08-11T11:21:18Z</time>
      </trkpt>
      <trkpt lat="41.619118706" lon="2.469607711">
        <ele>495.22</ele>
        <time>2013-08-11T11:21:27Z</time>
      </trkpt>
      <trkpt lat="41.619128597" lon="2.469921446">
        <ele>497.62</ele>
        <time>2013-08-11T11:21:37Z</time>
      </trkpt>
      <trkpt lat="41.619118120" lon="2.470162844">
        <ele>498.58</ele>
        <time>2013-08-11T11:21:45Z</time>
      </trkpt>
      <trkpt lat="41.619154078" lon="2.470439950">
        <ele>499.06</ele>
        <time>2013-08-11T11:21:53Z</time>
      </trkpt>
      <trkpt lat="41.619248039" lon="2.470545814">
        <ele>497.62</ele>
        <time>2013-08-11T11:21:56Z</time>
      </trkpt>
      <trkpt lat="41.619398746" lon="2.470655784">
        <ele>496.18</ele>
        <time>2013-08-11T11:22:01Z</time>
      </trkpt>
      <trkpt lat="41.619396902" lon="2.470696353">
        <ele>495.70</ele>
        <time>2013-08-11T11:22:02Z</time>
      </trkpt>
      <trkpt lat="41.619342084" lon="2.471123830">
        <ele>495.22</ele>
        <time>2013-08-11T11:22:11Z</time>
      </trkpt>
      <trkpt lat="41.619315178" lon="2.471368078">
        <ele>496.18</ele>
        <time>2013-08-11T11:22:18Z</time>
      </trkpt>
      <trkpt lat="41.619311071" lon="2.471395319">
        <ele>496.18</ele>
        <time>2013-08-11T11:22:19Z</time>
      </trkpt>
      <trkpt lat="41.619208560" lon="2.471614842">
        <ele>496.66</ele>
        <time>2013-08-11T11:22:28Z</time>
      </trkpt>
      <trkpt lat="41.619071768" lon="2.471795555">
        <ele>497.62</ele>
        <time>2013-08-11T11:22:36Z</time>
      </trkpt>
      <trkpt lat="41.619037318" lon="2.471979790">
        <ele>500.02</ele>
        <time>2013-08-11T11:22:43Z</time>
      </trkpt>
      <trkpt lat="41.619125328" lon="2.472191852">
        <ele>500.02</ele>
        <time>2013-08-11T11:22:51Z</time>
      </trkpt>
      <trkpt lat="41.619212332" lon="2.472477926">
        <ele>500.02</ele>
        <time>2013-08-11T11:22:58Z</time>
      </trkpt>
      <trkpt lat="41.619250051" lon="2.472783614">
        <ele>500.02</ele>
        <time>2013-08-11T11:23:05Z</time>
      </trkpt>
      <trkpt lat="41.619270586" lon="2.473041358">
        <ele>500.02</ele>
        <time>2013-08-11T11:23:13Z</time>
      </trkpt>
      <trkpt lat="41.619425819" lon="2.473287534">
        <ele>500.98</ele>
        <time>2013-08-11T11:23:22Z</time>
      </trkpt>
      <trkpt lat="41.619512656" lon="2.473361965">
        <ele>499.54</ele>
        <time>2013-08-11T11:23:24Z</time>
      </trkpt>
      <trkpt lat="41.619626063" lon="2.473437486">
        <ele>498.10</ele>
        <time>2013-08-11T11:23:26Z</time>
      </trkpt>
      <trkpt lat="41.619748522" lon="2.473604538">
        <ele>498.10</ele>
        <time>2013-08-11T11:23:29Z</time>
      </trkpt>
      <trkpt lat="41.619794288" lon="2.473724650">
        <ele>498.10</ele>
        <time>2013-08-11T11:23:31Z</time>
      </trkpt>
      <trkpt lat="41.619951951" lon="2.473891450">
        <ele>498.10</ele>
        <time>2013-08-11T11:23:37Z</time>
      </trkpt>
      <trkpt lat="41.620007523" lon="2.473898910">
        <ele>499.54</ele>
        <time>2013-08-11T11:23:39Z</time>
      </trkpt>
      <trkpt lat="41.620173820" lon="2.473929839">
        <ele>501.46</ele>
        <time>2013-08-11T11:23:46Z</time>
      </trkpt>
      <trkpt lat="41.620251269" lon="2.473954901">
        <ele>501.95</ele>
        <time>2013-08-11T11:23:49Z</time>
      </trkpt>
      <trkpt lat="41.620264177" lon="2.474135028">
        <ele>501.95</ele>
        <time>2013-08-11T11:23:54Z</time>
      </trkpt>
      <trkpt lat="41.620213467" lon="2.474197222">
        <ele>501.95</ele>
        <time>2013-08-11T11:23:56Z</time>
      </trkpt>
      <trkpt lat="41.620035603" lon="2.474477932">
        <ele>500.50</ele>
        <time>2013-08-11T11:24:04Z</time>
      </trkpt>
      <trkpt lat="41.620021270" lon="2.474747326">
        <ele>500.50</ele>
        <time>2013-08-11T11:24:10Z</time>
      </trkpt>
      <trkpt lat="41.619983635" lon="2.474887053">
        <ele>501.95</ele>
        <time>2013-08-11T11:24:14Z</time>
      </trkpt>
      <trkpt lat="41.619924291" lon="2.475078244">
        <ele>503.87</ele>
        <time>2013-08-11T11:24:20Z</time>
      </trkpt>
      <trkpt lat="41.619931499" lon="2.475447215">
        <ele>504.83</ele>
        <time>2013-08-11T11:24:29Z</time>
      </trkpt>
      <trkpt lat="41.619887075" lon="2.475615440">
        <ele>505.31</ele>
        <time>2013-08-11T11:24:34Z</time>
      </trkpt>
      <trkpt lat="41.619683144" lon="2.475784419">
        <ele>503.39</ele>
        <time>2013-08-11T11:24:39Z</time>
      </trkpt>
      <trkpt lat="41.619581555" lon="2.475781402">
        <ele>502.43</ele>
        <time>2013-08-11T11:24:41Z</time>
      </trkpt>
      <trkpt lat="41.619512069" lon="2.475758687">
        <ele>501.46</ele>
        <time>2013-08-11T11:24:43Z</time>
      </trkpt>
      <trkpt lat="41.619498490" lon="2.475886678">
        <ele>500.50</ele>
        <time>2013-08-11T11:24:47Z</time>
      </trkpt>
      <trkpt lat="41.619597732" lon="2.475963038">
        <ele>499.54</ele>
        <time>2013-08-11T11:24:50Z</time>
      </trkpt>
      <trkpt lat="41.619735531" lon="2.476009641">
        <ele>498.58</ele>
        <time>2013-08-11T11:24:53Z</time>
      </trkpt>
      <trkpt lat="41.619949185" lon="2.476199240">
        <ele>496.18</ele>
        <time>2013-08-11T11:24:58Z</time>
      </trkpt>
      <trkpt lat="41.619976510" lon="2.476264870">
        <ele>496.18</ele>
        <time>2013-08-11T11:24:59Z</time>
      </trkpt>
      <trkpt lat="41.619983551" lon="2.476580700">
        <ele>494.74</ele>
        <time>2013-08-11T11:25:04Z</time>
      </trkpt>
      <trkpt lat="41.619959244" lon="2.476947157">
        <ele>493.77</ele>
        <time>2013-08-11T11:25:10Z</time>
      </trkpt>
      <trkpt lat="41.620053288" lon="2.477067521">
        <ele>493.77</ele>
        <time>2013-08-11T11:25:14Z</time>
      </trkpt>
      <trkpt lat="41.620255376" lon="2.477259634">
        <ele>493.77</ele>
        <time>2013-08-11T11:25:23Z</time>
      </trkpt>
      <trkpt lat="41.620284797" lon="2.477296431">
        <ele>493.77</ele>
        <time>2013-08-11T11:25:24Z</time>
      </trkpt>
      <trkpt lat="41.620325617" lon="2.477534058">
        <ele>492.81</ele>
        <time>2013-08-11T11:25:28Z</time>
      </trkpt>
      <trkpt lat="41.620303740" lon="2.477591138">
        <ele>492.81</ele>
        <time>2013-08-11T11:25:29Z</time>
      </trkpt>
      <trkpt lat="41.620243558" lon="2.477760201">
        <ele>492.81</ele>
        <time>2013-08-11T11:25:32Z</time>
      </trkpt>
      <trkpt lat="41.620170132" lon="2.478170663">
        <ele>491.85</ele>
        <time>2013-08-11T11:25:38Z</time>
      </trkpt>
      <trkpt lat="41.620093019" lon="2.478478279">
        <ele>491.37</ele>
        <time>2013-08-11T11:25:44Z</time>
      </trkpt>
      <trkpt lat="41.620080613" lon="2.478538042">
        <ele>492.33</ele>
        <time>2013-08-11T11:25:46Z</time>
      </trkpt>
      <trkpt lat="41.620186309" lon="2.478795031">
        <ele>492.33</ele>
        <time>2013-08-11T11:25:53Z</time>
      </trkpt>
      <trkpt lat="41.620254035" lon="2.478927130">
        <ele>492.33</ele>
        <time>2013-08-11T11:25:56Z</time>
      </trkpt>
      <trkpt lat="41.620308769" lon="2.479231393">
        <ele>491.37</ele>
        <time>2013-08-11T11:26:02Z</time>
      </trkpt>
      <trkpt lat="41.620243222" lon="2.479381597">
        <ele>491.37</ele>
        <time>2013-08-11T11:26:07Z</time>
      </trkpt>
      <trkpt lat="41.620190416" lon="2.479438007">
        <ele>492.81</ele>
        <time>2013-08-11T11:26:10Z</time>
      </trkpt>
      <trkpt lat="41.620217155" lon="2.479620984">
        <ele>494.74</ele>
        <time>2013-08-11T11:26:16Z</time>
      </trkpt>
      <trkpt lat="41.620266356" lon="2.479658619">
        <ele>495.22</ele>
        <time>2013-08-11T11:26:18Z</time>
      </trkpt>
      <trkpt lat="41.620456123" lon="2.479807397">
        <ele>498.10</ele>
        <time>2013-08-11T11:26:27Z</time>
      </trkpt>
      <trkpt lat="41.620591910" lon="2.480058938">
        <ele>498.58</ele>
        <time>2013-08-11T11:26:36Z</time>
      </trkpt>
      <trkpt lat="41.620659635" lon="2.480252477">
        <ele>498.10</ele>
        <time>2013-08-11T11:26:41Z</time>
      </trkpt>
      <trkpt lat="41.620843367" lon="2.480429586">
        <ele>498.10</ele>
        <time>2013-08-11T11:26:49Z</time>
      </trkpt>
      <trkpt lat="41.621013938" lon="2.480428748">
        <ele>498.10</ele>
        <time>2013-08-11T11:26:55Z</time>
      </trkpt>
      <trkpt lat="41.621168836" lon="2.480540563">
        <ele>497.14</ele>
        <time>2013-08-11T11:27:00Z</time>
      </trkpt>
      <trkpt lat="41.621373438" lon="2.480583226">
        <ele>494.74</ele>
        <time>2013-08-11T11:27:04Z</time>
      </trkpt>
      <trkpt lat="41.621603102" lon="2.480632931">
        <ele>493.77</ele>
        <time>2013-08-11T11:27:08Z</time>
      </trkpt>
      <trkpt lat="41.621754060" lon="2.480654221">
        <ele>492.33</ele>
        <time>2013-08-11T11:27:11Z</time>
      </trkpt>
      <trkpt lat="41.621851207" lon="2.480703842">
        <ele>490.41</ele>
        <time>2013-08-11T11:27:14Z</time>
      </trkpt>
      <trkpt lat="41.621845842" lon="2.480768383">
        <ele>490.41</ele>
        <time>2013-08-11T11:27:16Z</time>
      </trkpt>
      <trkpt lat="41.621804687" lon="2.480859578">
        <ele>490.41</ele>
        <time>2013-08-11T11:27:20Z</time>
      </trkpt>
      <trkpt lat="41.621845172" lon="2.481066695">
        <ele>490.41</ele>
        <time>2013-08-11T11:27:27Z</time>
      </trkpt>
      <trkpt lat="41.621829917" lon="2.481152777">
        <ele>490.41</ele>
        <time>2013-08-11T11:27:30Z</time>
      </trkpt>
      <trkpt lat="41.621770238" lon="2.481246570">
        <ele>491.85</ele>
        <time>2013-08-11T11:27:34Z</time>
      </trkpt>
      <trkpt lat="41.621652723" lon="2.481379591">
        <ele>493.77</ele>
        <time>2013-08-11T11:27:41Z</time>
      </trkpt>
      <trkpt lat="41.621645682" lon="2.481486209">
        <ele>494.26</ele>
        <time>2013-08-11T11:27:44Z</time>
      </trkpt>
      <trkpt lat="41.621689520" lon="2.481594168">
        <ele>495.22</ele>
        <time>2013-08-11T11:27:48Z</time>
      </trkpt>
      <trkpt lat="41.621844753" lon="2.481833555">
        <ele>496.18</ele>
        <time>2013-08-11T11:27:57Z</time>
      </trkpt>
      <trkpt lat="41.621998393" lon="2.481999349">
        <ele>497.14</ele>
        <time>2013-08-11T11:28:05Z</time>
      </trkpt>
      <trkpt lat="41.622049523" lon="2.482202862">
        <ele>497.14</ele>
        <time>2013-08-11T11:28:10Z</time>
      </trkpt>
      <trkpt lat="41.622044829" lon="2.482252650">
        <ele>497.14</ele>
        <time>2013-08-11T11:28:11Z</time>
      </trkpt>
      <trkpt lat="41.622054133" lon="2.482589184">
        <ele>496.18</ele>
        <time>2013-08-11T11:28:17Z</time>
      </trkpt>
      <trkpt lat="41.622169216" lon="2.482813064">
        <ele>495.70</ele>
        <time>2013-08-11T11:28:22Z</time>
      </trkpt>
      <trkpt lat="41.622290502" lon="2.483180611">
        <ele>497.14</ele>
        <time>2013-08-11T11:28:32Z</time>
      </trkpt>
      <trkpt lat="41.622311708" lon="2.483204667">
        <ele>497.14</ele>
        <time>2013-08-11T11:28:33Z</time>
      </trkpt>
      <trkpt lat="41.622505163" lon="2.483339531">
        <ele>499.54</ele>
        <time>2013-08-11T11:28:41Z</time>
      </trkpt>
      <trkpt lat="41.622697025" lon="2.483391835">
        <ele>500.50</ele>
        <time>2013-08-11T11:28:48Z</time>
      </trkpt>
      <trkpt lat="41.622774306" lon="2.483385045">
        <ele>500.50</ele>
        <time>2013-08-11T11:28:50Z</time>
      </trkpt>
      <trkpt lat="41.622856197" lon="2.483413125">
        <ele>500.50</ele>
        <time>2013-08-11T11:28:52Z</time>
      </trkpt>
      <trkpt lat="41.623083514" lon="2.483385129">
        <ele>499.06</ele>
        <time>2013-08-11T11:28:57Z</time>
      </trkpt>
      <trkpt lat="41.623249224" lon="2.483474480">
        <ele>499.06</ele>
        <time>2013-08-11T11:29:01Z</time>
      </trkpt>
      <trkpt lat="41.623242267" lon="2.483650165">
        <ele>497.62</ele>
        <time>2013-08-11T11:29:04Z</time>
      </trkpt>
      <trkpt lat="41.623135063" lon="2.483948141">
        <ele>495.70</ele>
        <time>2013-08-11T11:29:08Z</time>
      </trkpt>
      <trkpt lat="41.623122071" lon="2.484195743">
        <ele>494.74</ele>
        <time>2013-08-11T11:29:12Z</time>
      </trkpt>
      <trkpt lat="41.623297169" lon="2.484289620">
        <ele>494.26</ele>
        <time>2013-08-11T11:29:17Z</time>
      </trkpt>
      <trkpt lat="41.623648622" lon="2.484314012">
        <ele>494.26</ele>
        <time>2013-08-11T11:29:27Z</time>
      </trkpt>
      <trkpt lat="41.623720958" lon="2.484330189">
        <ele>495.70</ele>
        <time>2013-08-11T11:29:29Z</time>
      </trkpt>
      <trkpt lat="41.623988005" lon="2.484420797">
        <ele>496.18</ele>
        <time>2013-08-11T11:29:37Z</time>
      </trkpt>
      <trkpt lat="41.624045170" lon="2.484608887">
        <ele>497.14</ele>
        <time>2013-08-11T11:29:43Z</time>
      </trkpt>
      <trkpt lat="41.623987921" lon="2.484876940">
        <ele>498.10</ele>
        <time>2013-08-11T11:29:51Z</time>
      </trkpt>
      <trkpt lat="41.623861187" lon="2.485008452">
        <ele>499.54</ele>
        <time>2013-08-11T11:29:57Z</time>
      </trkpt>
      <trkpt lat="41.623843166" lon="2.485173324">
        <ele>500.02</ele>
        <time>2013-08-11T11:30:02Z</time>
      </trkpt>
      <trkpt lat="41.623959172" lon="2.485433582">
        <ele>501.46</ele>
        <time>2013-08-11T11:30:11Z</time>
      </trkpt>
      <trkpt lat="41.624053300" lon="2.485632066">
        <ele>503.87</ele>
        <time>2013-08-11T11:30:19Z</time>
      </trkpt>
      <trkpt lat="41.624190344" lon="2.485827951">
        <ele>506.27</ele>
        <time>2013-08-11T11:30:29Z</time>
      </trkpt>
      <trkpt lat="41.624199984" lon="2.485854270">
        <ele>506.75</ele>
        <time>2013-08-11T11:30:30Z</time>
      </trkpt>
      <trkpt lat="41.624192440" lon="2.485981507">
        <ele>507.71</ele>
        <time>2013-08-11T11:30:35Z</time>
      </trkpt>
      <trkpt lat="41.624163522" lon="2.486050910">
        <ele>508.19</ele>
        <time>2013-08-11T11:30:38Z</time>
      </trkpt>
      <trkpt lat="41.624107615" lon="2.486095669">
        <ele>509.16</ele>
        <time>2013-08-11T11:30:42Z</time>
      </trkpt>
      <trkpt lat="41.623936205" lon="2.486159539">
        <ele>510.60</ele>
        <time>2013-08-11T11:30:51Z</time>
      </trkpt>
      <trkpt lat="41.623778206" lon="2.486244867">
        <ele>512.52</ele>
        <time>2013-08-11T11:31:00Z</time>
      </trkpt>
      <trkpt lat="41.623628338" lon="2.486354167">
        <ele>513.96</ele>
        <time>2013-08-11T11:31:09Z</time>
      </trkpt>
      <trkpt lat="41.623534963" lon="2.486474782">
        <ele>515.40</ele>
        <time>2013-08-11T11:31:16Z</time>
      </trkpt>
      <trkpt lat="41.623404457" lon="2.486579640">
        <ele>516.37</ele>
        <time>2013-08-11T11:31:23Z</time>
      </trkpt>
      <trkpt lat="41.623240256" lon="2.486675697">
        <ele>517.81</ele>
        <time>2013-08-11T11:31:32Z</time>
      </trkpt>
      <trkpt lat="41.623115617" lon="2.486749122">
        <ele>519.25</ele>
        <time>2013-08-11T11:31:39Z</time>
      </trkpt>
      <trkpt lat="41.622983686" lon="2.486824140">
        <ele>520.69</ele>
        <time>2013-08-11T11:31:46Z</time>
      </trkpt>
      <trkpt lat="41.622920486" lon="2.486914413">
        <ele>522.13</ele>
        <time>2013-08-11T11:31:53Z</time>
      </trkpt>
      <trkpt lat="41.622882181" lon="2.486918436">
        <ele>521.65</ele>
        <time>2013-08-11T11:32:00Z</time>
      </trkpt>
      <trkpt lat="41.622852257" lon="2.486943331">
        <ele>521.65</ele>
        <time>2013-08-11T11:32:13Z</time>
      </trkpt>
      <trkpt lat="41.622783358" lon="2.487126811">
        <ele>519.73</ele>
        <time>2013-08-11T11:32:17Z</time>
      </trkpt>
      <trkpt lat="41.622511449" lon="2.487602651">
        <ele>516.37</ele>
        <time>2013-08-11T11:32:24Z</time>
      </trkpt>
      <trkpt lat="41.622275415" lon="2.487803230">
        <ele>514.92</ele>
        <time>2013-08-11T11:32:29Z</time>
      </trkpt>
      <trkpt lat="41.622257310" lon="2.487921583">
        <ele>514.92</ele>
        <time>2013-08-11T11:32:33Z</time>
      </trkpt>
      <trkpt lat="41.622289580" lon="2.487957206">
        <ele>514.92</ele>
        <time>2013-08-11T11:32:35Z</time>
      </trkpt>
      <trkpt lat="41.622390163" lon="2.488043204">
        <ele>515.88</ele>
        <time>2013-08-11T11:32:42Z</time>
      </trkpt>
      <trkpt lat="41.622489740" lon="2.488155522">
        <ele>518.29</ele>
        <time>2013-08-11T11:32:51Z</time>
      </trkpt>
      <trkpt lat="41.622577415" lon="2.488275718">
        <ele>520.21</ele>
        <time>2013-08-11T11:32:58Z</time>
      </trkpt>
      <trkpt lat="41.622683697" lon="2.488438998">
        <ele>522.61</ele>
        <time>2013-08-11T11:33:09Z</time>
      </trkpt>
      <trkpt lat="41.622697108" lon="2.488445368">
        <ele>522.61</ele>
        <time>2013-08-11T11:33:10Z</time>
      </trkpt>
      <trkpt lat="41.622820574" lon="2.488445535">
        <ele>525.02</ele>
        <time>2013-08-11T11:33:18Z</time>
      </trkpt>
      <trkpt lat="41.622905482" lon="2.488497922">
        <ele>526.46</ele>
        <time>2013-08-11T11:33:24Z</time>
      </trkpt>
      <trkpt lat="41.623069181" lon="2.488582077">
        <ele>529.34</ele>
        <time>2013-08-11T11:33:35Z</time>
      </trkpt>
      <trkpt lat="41.623125927" lon="2.488589704">
        <ele>530.30</ele>
        <time>2013-08-11T11:33:39Z</time>
      </trkpt>
      <trkpt lat="41.623210751" lon="2.488531701">
        <ele>528.86</ele>
        <time>2013-08-11T11:33:44Z</time>
      </trkpt>
      <trkpt lat="41.623362296" lon="2.488410164">
        <ele>526.94</ele>
        <time>2013-08-11T11:33:51Z</time>
      </trkpt>
      <trkpt lat="41.623517278" lon="2.488266749">
        <ele>523.09</ele>
        <time>2013-08-11T11:33:58Z</time>
      </trkpt>
      <trkpt lat="41.623664967" lon="2.488254344">
        <ele>522.13</ele>
        <time>2013-08-11T11:34:03Z</time>
      </trkpt>
      <trkpt lat="41.623745517" lon="2.488230540">
        <ele>520.69</ele>
        <time>2013-08-11T11:34:07Z</time>
      </trkpt>
      <trkpt lat="41.623868060" lon="2.488260631">
        <ele>519.73</ele>
        <time>2013-08-11T11:34:12Z</time>
      </trkpt>
      <trkpt lat="41.624064448" lon="2.488231210">
        <ele>518.29</ele>
        <time>2013-08-11T11:34:19Z</time>
      </trkpt>
      <trkpt lat="41.624127815" lon="2.488227019">
        <ele>517.81</ele>
        <time>2013-08-11T11:34:22Z</time>
      </trkpt>
      <trkpt lat="41.624269051" lon="2.488268929">
        <ele>516.37</ele>
        <time>2013-08-11T11:34:27Z</time>
      </trkpt>
      <trkpt lat="41.624532661" lon="2.488253087">
        <ele>516.37</ele>
        <time>2013-08-11T11:34:33Z</time>
      </trkpt>
      <trkpt lat="41.624616564" lon="2.488213357">
        <ele>516.37</ele>
        <time>2013-08-11T11:34:36Z</time>
      </trkpt>
      <trkpt lat="41.624825441" lon="2.488095926">
        <ele>516.37</ele>
        <time>2013-08-11T11:34:43Z</time>
      </trkpt>
      <trkpt lat="41.624942704" lon="2.488115205">
        <ele>516.37</ele>
        <time>2013-08-11T11:34:47Z</time>
      </trkpt>
      <trkpt lat="41.625004730" lon="2.488307402">
        <ele>515.88</ele>
        <time>2013-08-11T11:34:52Z</time>
      </trkpt>
      <trkpt lat="41.625010765" lon="2.488575287">
        <ele>514.92</ele>
        <time>2013-08-11T11:34:58Z</time>
      </trkpt>
      <trkpt lat="41.624947566" lon="2.488828756">
        <ele>514.44</ele>
        <time>2013-08-11T11:35:04Z</time>
      </trkpt>
      <trkpt lat="41.624929964" lon="2.489158835">
        <ele>514.92</ele>
        <time>2013-08-11T11:35:11Z</time>
      </trkpt>
      <trkpt lat="41.624866680" lon="2.489394199">
        <ele>514.44</ele>
        <time>2013-08-11T11:35:17Z</time>
      </trkpt>
      <trkpt lat="41.624834745" lon="2.489577344">
        <ele>513.96</ele>
        <time>2013-08-11T11:35:22Z</time>
      </trkpt>
      <trkpt lat="41.624799457" lon="2.489756968">
        <ele>513.96</ele>
        <time>2013-08-11T11:35:29Z</time>
      </trkpt>
      <trkpt lat="41.624796691" lon="2.489816815">
        <ele>514.44</ele>
        <time>2013-08-11T11:35:34Z</time>
      </trkpt>
      <trkpt lat="41.624810521" lon="2.489913542">
        <ele>514.44</ele>
        <time>2013-08-11T11:35:50Z</time>
      </trkpt>
      <trkpt lat="41.624805660" lon="2.489946734">
        <ele>514.92</ele>
        <time>2013-08-11T11:36:06Z</time>
      </trkpt>
      <trkpt lat="41.624791243" lon="2.489956122">
        <ele>514.92</ele>
        <time>2013-08-11T11:36:13Z</time>
      </trkpt>
      <trkpt lat="41.624786801" lon="2.489990069">
        <ele>515.40</ele>
        <time>2013-08-11T11:36:22Z</time>
      </trkpt>
      <trkpt lat="41.624693510" lon="2.490127280">
        <ele>515.40</ele>
        <time>2013-08-11T11:36:33Z</time>
      </trkpt>
      <trkpt lat="41.624609691" lon="2.490268096">
        <ele>515.88</ele>
        <time>2013-08-11T11:36:41Z</time>
      </trkpt>
      <trkpt lat="41.624500559" lon="2.490525253">
        <ele>515.88</ele>
        <time>2013-08-11T11:36:49Z</time>
      </trkpt>
      <trkpt lat="41.624394611" lon="2.490754079">
        <ele>515.88</ele>
        <time>2013-08-11T11:36:57Z</time>
      </trkpt>
      <trkpt lat="41.624359407" lon="2.490883663">
        <ele>515.88</ele>
        <time>2013-08-11T11:37:00Z</time>
      </trkpt>
      <trkpt lat="41.624300818" lon="2.491214832">
        <ele>514.44</ele>
        <time>2013-08-11T11:37:05Z</time>
      </trkpt>
      <trkpt lat="41.624287491" lon="2.491768457">
        <ele>513.96</ele>
        <time>2013-08-11T11:37:12Z</time>
      </trkpt>
      <trkpt lat="41.624240720" lon="2.492147235">
        <ele>513.96</ele>
        <time>2013-08-11T11:37:18Z</time>
      </trkpt>
      <trkpt lat="41.624155811" lon="2.492480919">
        <ele>512.52</ele>
        <time>2013-08-11T11:37:23Z</time>
      </trkpt>
      <trkpt lat="41.624045002" lon="2.492730281">
        <ele>512.52</ele>
        <time>2013-08-11T11:37:28Z</time>
      </trkpt>
      <trkpt lat="41.624047182" lon="2.492990120">
        <ele>512.52</ele>
        <time>2013-08-11T11:37:34Z</time>
      </trkpt>
      <trkpt lat="41.624055312" lon="2.493026329">
        <ele>512.52</ele>
        <time>2013-08-11T11:37:35Z</time>
      </trkpt>
      <trkpt lat="41.624056402" lon="2.493191118">
        <ele>512.52</ele>
        <time>2013-08-11T11:37:40Z</time>
      </trkpt>
      <trkpt lat="41.624089762" lon="2.493541230">
        <ele>512.52</ele>
        <time>2013-08-11T11:37:48Z</time>
      </trkpt>
      <trkpt lat="41.624137036" lon="2.493882625">
        <ele>512.52</ele>
        <time>2013-08-11T11:37:56Z</time>
      </trkpt>
      <trkpt lat="41.624186489" lon="2.494144308">
        <ele>512.52</ele>
        <time>2013-08-11T11:38:03Z</time>
      </trkpt>
      <trkpt lat="41.624236110" lon="2.494467178">
        <ele>512.52</ele>
        <time>2013-08-11T11:38:11Z</time>
      </trkpt>
      <trkpt lat="41.624169390" lon="2.494727437">
        <ele>512.52</ele>
        <time>2013-08-11T11:38:18Z</time>
      </trkpt>
      <trkpt lat="41.624175760" lon="2.495040752">
        <ele>513.96</ele>
        <time>2013-08-11T11:38:26Z</time>
      </trkpt>
      <trkpt lat="41.624201073" lon="2.495229429">
        <ele>513.96</ele>
        <time>2013-08-11T11:38:32Z</time>
      </trkpt>
      <trkpt lat="41.624203588" lon="2.495422464">
        <ele>515.40</ele>
        <time>2013-08-11T11:38:38Z</time>
      </trkpt>
      <trkpt lat="41.624198307" lon="2.495705269">
        <ele>515.88</ele>
        <time>2013-08-11T11:38:46Z</time>
      </trkpt>
      <trkpt lat="41.624139718" lon="2.495992266">
        <ele>516.37</ele>
        <time>2013-08-11T11:38:54Z</time>
      </trkpt>
      <trkpt lat="41.624010972" lon="2.496249255">
        <ele>517.33</ele>
        <time>2013-08-11T11:39:03Z</time>
      </trkpt>
      <trkpt lat="41.623867474" lon="2.496385042">
        <ele>519.25</ele>
        <time>2013-08-11T11:39:12Z</time>
      </trkpt>
      <trkpt lat="41.623697321" lon="2.496415468">
        <ele>520.21</ele>
        <time>2013-08-11T11:39:20Z</time>
      </trkpt>
      <trkpt lat="41.623481235" lon="2.496357298">
        <ele>519.73</ele>
        <time>2013-08-11T11:39:28Z</time>
      </trkpt>
      <trkpt lat="41.623317202" lon="2.496092010">
        <ele>519.73</ele>
        <time>2013-08-11T11:39:36Z</time>
      </trkpt>
      <trkpt lat="41.623300857" lon="2.496044653">
        <ele>519.73</ele>
        <time>2013-08-11T11:39:37Z</time>
      </trkpt>
      <trkpt lat="41.623201615" lon="2.495863771">
        <ele>518.29</ele>
        <time>2013-08-11T11:39:41Z</time>
      </trkpt>
      <trkpt lat="41.623074881" lon="2.495665791">
        <ele>517.81</ele>
        <time>2013-08-11T11:39:45Z</time>
      </trkpt>
      <trkpt lat="41.623095752" lon="2.495536123">
        <ele>517.81</ele>
        <time>2013-08-11T11:39:47Z</time>
      </trkpt>
      <trkpt lat="41.623179152" lon="2.495223226">
        <ele>516.37</ele>
        <time>2013-08-11T11:39:53Z</time>
      </trkpt>
      <trkpt lat="41.623164399" lon="2.495105125">
        <ele>516.37</ele>
        <time>2013-08-11T11:39:55Z</time>
      </trkpt>
      <trkpt lat="41.623097177" lon="2.494739507">
        <ele>516.37</ele>
        <time>2013-08-11T11:40:02Z</time>
      </trkpt>
      <trkpt lat="41.622979579" lon="2.494396435">
        <ele>516.37</ele>
        <time>2013-08-11T11:40:10Z</time>
      </trkpt>
      <trkpt lat="41.622737425" lon="2.494106170">
        <ele>515.40</ele>
        <time>2013-08-11T11:40:19Z</time>
      </trkpt>
      <trkpt lat="41.622605327" lon="2.494033331">
        <ele>515.40</ele>
        <time>2013-08-11T11:40:24Z</time>
      </trkpt>
      <trkpt lat="41.622410950" lon="2.494036516">
        <ele>515.40</ele>
        <time>2013-08-11T11:40:31Z</time>
      </trkpt>
      <trkpt lat="41.622203247" lon="2.493946578">
        <ele>515.40</ele>
        <time>2013-08-11T11:40:37Z</time>
      </trkpt>
      <trkpt lat="41.622085649" lon="2.493742731">
        <ele>516.37</ele>
        <time>2013-08-11T11:40:43Z</time>
      </trkpt>
      <trkpt lat="41.621941815" lon="2.493630916">
        <ele>516.37</ele>
        <time>2013-08-11T11:40:49Z</time>
      </trkpt>
      <trkpt lat="41.621791108" lon="2.493710376">
        <ele>517.33</ele>
        <time>2013-08-11T11:40:55Z</time>
      </trkpt>
      <trkpt lat="41.621625817" lon="2.493887570">
        <ele>517.33</ele>
        <time>2013-08-11T11:41:04Z</time>
      </trkpt>
      <trkpt lat="41.621459101" lon="2.494062835">
        <ele>518.29</ele>
        <time>2013-08-11T11:41:12Z</time>
      </trkpt>
      <trkpt lat="41.621439488" lon="2.494374307">
        <ele>518.29</ele>
        <time>2013-08-11T11:41:19Z</time>
      </trkpt>
      <trkpt lat="41.621443679" lon="2.494564325">
        <ele>518.29</ele>
        <time>2013-08-11T11:41:24Z</time>
      </trkpt>
      <trkpt lat="41.621443259" lon="2.494611599">
        <ele>518.29</ele>
        <time>2013-08-11T11:41:25Z</time>
      </trkpt>
      <trkpt lat="41.621369583" lon="2.494791977">
        <ele>518.29</ele>
        <time>2013-08-11T11:41:29Z</time>
      </trkpt>
      <trkpt lat="41.621223402" lon="2.495060282">
        <ele>516.85</ele>
        <time>2013-08-11T11:41:36Z</time>
      </trkpt>
      <trkpt lat="41.621212003" lon="2.495119542">
        <ele>516.85</ele>
        <time>2013-08-11T11:41:37Z</time>
      </trkpt>
      <trkpt lat="41.621067583" lon="2.495273601">
        <ele>516.37</ele>
        <time>2013-08-11T11:41:41Z</time>
      </trkpt>
      <trkpt lat="41.620895083" lon="2.495194895">
        <ele>514.92</ele>
        <time>2013-08-11T11:41:45Z</time>
      </trkpt>
      <trkpt lat="41.620855437" lon="2.495165475">
        <ele>514.92</ele>
        <time>2013-08-11T11:41:46Z</time>
      </trkpt>
      <trkpt lat="41.620550838" lon="2.494908989">
        <ele>511.56</ele>
        <time>2013-08-11T11:41:53Z</time>
      </trkpt>
      <trkpt lat="41.620513539" lon="2.494872527">
        <ele>511.56</ele>
        <time>2013-08-11T11:41:54Z</time>
      </trkpt>
      <trkpt lat="41.620479341" lon="2.494840089">
        <ele>511.08</ele>
        <time>2013-08-11T11:41:55Z</time>
      </trkpt>
      <trkpt lat="41.620345314" lon="2.494835395">
        <ele>510.12</ele>
        <time>2013-08-11T11:41:58Z</time>
      </trkpt>
      <trkpt lat="41.620236349" lon="2.494993059">
        <ele>508.19</ele>
        <time>2013-08-11T11:42:01Z</time>
      </trkpt>
      <trkpt lat="41.620195781" lon="2.495044189">
        <ele>507.71</ele>
        <time>2013-08-11T11:42:02Z</time>
      </trkpt>
      <trkpt lat="41.619881459" lon="2.495337555">
        <ele>504.83</ele>
        <time>2013-08-11T11:42:09Z</time>
      </trkpt>
      <trkpt lat="41.619710133" lon="2.495354403">
        <ele>503.87</ele>
        <time>2013-08-11T11:42:13Z</time>
      </trkpt>
      <trkpt lat="41.619333618" lon="2.495119626">
        <ele>501.95</ele>
        <time>2013-08-11T11:42:21Z</time>
      </trkpt>
      <trkpt lat="41.619151815" lon="2.495067407">
        <ele>501.46</ele>
        <time>2013-08-11T11:42:25Z</time>
      </trkpt>
      <trkpt lat="41.618975962" lon="2.495137647">
        <ele>501.46</ele>
        <time>2013-08-11T11:42:29Z</time>
      </trkpt>
      <trkpt lat="41.618894826" lon="2.495205959">
        <ele>500.98</ele>
        <time>2013-08-11T11:42:31Z</time>
      </trkpt>
      <trkpt lat="41.618559801" lon="2.495583899">
        <ele>499.06</ele>
        <time>2013-08-11T11:42:39Z</time>
      </trkpt>
      <trkpt lat="41.618502972" lon="2.495638214">
        <ele>498.58</ele>
        <time>2013-08-11T11:42:40Z</time>
      </trkpt>
      <trkpt lat="41.618136096" lon="2.495732594">
        <ele>495.22</ele>
        <time>2013-08-11T11:42:45Z</time>
      </trkpt>
      <trkpt lat="41.617876005" lon="2.495673167">
        <ele>493.29</ele>
        <time>2013-08-11T11:42:48Z</time>
      </trkpt>
      <trkpt lat="41.617712810" lon="2.495644249">
        <ele>492.33</ele>
        <time>2013-08-11T11:42:50Z</time>
      </trkpt>
      <trkpt lat="41.617387508" lon="2.495648775">
        <ele>489.93</ele>
        <time>2013-08-11T11:42:54Z</time>
      </trkpt>
      <trkpt lat="41.617303521" lon="2.495657576">
        <ele>489.45</ele>
        <time>2013-08-11T11:42:55Z</time>
      </trkpt>
      <trkpt lat="41.616879900" lon="2.495563112">
        <ele>488.01</ele>
        <time>2013-08-11T11:43:01Z</time>
      </trkpt>
      <trkpt lat="41.616629952" lon="2.495470744">
        <ele>487.05</ele>
        <time>2013-08-11T11:43:05Z</time>
      </trkpt>
      <trkpt lat="41.616366173" lon="2.495565040">
        <ele>486.08</ele>
        <time>2013-08-11T11:43:10Z</time>
      </trkpt>
      <trkpt lat="41.616332897" lon="2.495728990">
        <ele>484.64</ele>
        <time>2013-08-11T11:43:12Z</time>
      </trkpt>
      <trkpt lat="41.616320995" lon="2.496059824">
        <ele>481.76</ele>
        <time>2013-08-11T11:43:15Z</time>
      </trkpt>
      <trkpt lat="41.616273721" lon="2.496387892">
        <ele>479.35</ele>
        <time>2013-08-11T11:43:18Z</time>
      </trkpt>
      <trkpt lat="41.616069621" lon="2.496747559">
        <ele>475.51</ele>
        <time>2013-08-11T11:43:23Z</time>
      </trkpt>
      <trkpt lat="41.615893182" lon="2.496829366">
        <ele>473.59</ele>
        <time>2013-08-11T11:43:26Z</time>
      </trkpt>
      <trkpt lat="41.615727472" lon="2.496690394">
        <ele>472.14</ele>
        <time>2013-08-11T11:43:29Z</time>
      </trkpt>
      <trkpt lat="41.615682964" lon="2.496612024">
        <ele>471.18</ele>
        <time>2013-08-11T11:43:30Z</time>
      </trkpt>
      <trkpt lat="41.615585566" lon="2.496430388">
        <ele>469.26</ele>
        <time>2013-08-11T11:43:32Z</time>
      </trkpt>
      <trkpt lat="41.615487163" lon="2.496122688">
        <ele>467.34</ele>
        <time>2013-08-11T11:43:35Z</time>
      </trkpt>
      <trkpt lat="41.615310472" lon="2.495725386">
        <ele>463.01</ele>
        <time>2013-08-11T11:43:39Z</time>
      </trkpt>
      <trkpt lat="41.615159430" lon="2.495505780">
        <ele>459.65</ele>
        <time>2013-08-11T11:43:42Z</time>
      </trkpt>
      <trkpt lat="41.614954828" lon="2.495419447">
        <ele>457.24</ele>
        <time>2013-08-11T11:43:46Z</time>
      </trkpt>
      <trkpt lat="41.614758692" lon="2.495505948">
        <ele>454.84</ele>
        <time>2013-08-11T11:43:49Z</time>
      </trkpt>
      <trkpt lat="41.614609242" lon="2.495597981">
        <ele>453.40</ele>
        <time>2013-08-11T11:43:51Z</time>
      </trkpt>
      <trkpt lat="41.614158045" lon="2.495695463">
        <ele>450.03</ele>
        <time>2013-08-11T11:43:56Z</time>
      </trkpt>
      <trkpt lat="41.613580112" lon="2.495878942">
        <ele>446.19</ele>
        <time>2013-08-11T11:44:02Z</time>
      </trkpt>
      <trkpt lat="41.613486067" lon="2.495907860">
        <ele>446.19</ele>
        <time>2013-08-11T11:44:03Z</time>
      </trkpt>
      <trkpt lat="41.613202340" lon="2.495900819">
        <ele>444.75</ele>
        <time>2013-08-11T11:44:06Z</time>
      </trkpt>
      <trkpt lat="41.612946440" lon="2.495820185">
        <ele>441.86</ele>
        <time>2013-08-11T11:44:09Z</time>
      </trkpt>
      <trkpt lat="41.612803026" lon="2.495801661">
        <ele>439.94</ele>
        <time>2013-08-11T11:44:11Z</time>
      </trkpt>
      <trkpt lat="41.612670341" lon="2.495775929">
        <ele>438.98</ele>
        <time>2013-08-11T11:44:14Z</time>
      </trkpt>
      <trkpt lat="41.612637903" lon="2.495761344">
        <ele>438.50</ele>
        <time>2013-08-11T11:44:15Z</time>
      </trkpt>
      <trkpt lat="41.612531369" lon="2.495681716">
        <ele>438.02</ele>
        <time>2013-08-11T11:44:22Z</time>
      </trkpt>
      <trkpt lat="41.612495745" lon="2.495664198">
        <ele>438.02</ele>
        <time>2013-08-11T11:44:28Z</time>
      </trkpt>
      <trkpt lat="41.612483759" lon="2.495658834">
        <ele>438.02</ele>
        <time>2013-08-11T11:44:31Z</time>
      </trkpt>
      <trkpt lat="41.612281253" lon="2.495642237">
        <ele>435.13</ele>
        <time>2013-08-11T11:44:37Z</time>
      </trkpt>
      <trkpt lat="41.612069190" lon="2.495772995">
        <ele>433.69</ele>
        <time>2013-08-11T11:44:42Z</time>
      </trkpt>
      <trkpt lat="41.612049996" lon="2.495839380">
        <ele>433.21</ele>
        <time>2013-08-11T11:44:44Z</time>
      </trkpt>
      <trkpt lat="41.612045889" lon="2.495979106">
        <ele>433.21</ele>
        <time>2013-08-11T11:44:47Z</time>
      </trkpt>
      <trkpt lat="41.611915299" lon="2.496299211">
        <ele>430.81</ele>
        <time>2013-08-11T11:44:53Z</time>
      </trkpt>
      <trkpt lat="41.611810776" lon="2.496542538">
        <ele>429.37</ele>
        <time>2013-08-11T11:44:57Z</time>
      </trkpt>
      <trkpt lat="41.611729723" lon="2.496604564">
        <ele>428.89</ele>
        <time>2013-08-11T11:44:59Z</time>
      </trkpt>
      <trkpt lat="41.611545657" lon="2.496730292">
        <ele>426.96</ele>
        <time>2013-08-11T11:45:04Z</time>
      </trkpt>
      <trkpt lat="41.611526295" lon="2.496872533">
        <ele>426.48</ele>
        <time>2013-08-11T11:45:08Z</time>
      </trkpt>
      <trkpt lat="41.611649425" lon="2.497151399">
        <ele>425.52</ele>
        <time>2013-08-11T11:45:16Z</time>
      </trkpt>
      <trkpt lat="41.611713798" lon="2.497286180">
        <ele>425.52</ele>
        <time>2013-08-11T11:45:22Z</time>
      </trkpt>
      <trkpt lat="41.611726957" lon="2.497385590">
        <ele>426.96</ele>
        <time>2013-08-11T11:45:26Z</time>
      </trkpt>
      <trkpt lat="41.611844053" lon="2.497482317">
        <ele>426.96</ele>
        <time>2013-08-11T11:45:32Z</time>
      </trkpt>
      <trkpt lat="41.611958801" lon="2.497603603">
        <ele>428.40</ele>
        <time>2013-08-11T11:45:39Z</time>
      </trkpt>
      <trkpt lat="41.612038596" lon="2.497803344">
        <ele>428.40</ele>
        <time>2013-08-11T11:45:45Z</time>
      </trkpt>
      <trkpt lat="41.612083607" lon="2.497914739">
        <ele>426.96</ele>
        <time>2013-08-11T11:45:47Z</time>
      </trkpt>
      <trkpt lat="41.612130546" lon="2.498092184">
        <ele>425.04</ele>
        <time>2013-08-11T11:45:50Z</time>
      </trkpt>
      <trkpt lat="41.612116129" lon="2.498435591">
        <ele>422.16</ele>
        <time>2013-08-11T11:45:55Z</time>
      </trkpt>
      <trkpt lat="41.612116883" lon="2.498703728">
        <ele>420.71</ele>
        <time>2013-08-11T11:45:58Z</time>
      </trkpt>
      <trkpt lat="41.612118727" lon="2.498794839">
        <ele>420.71</ele>
        <time>2013-08-11T11:45:59Z</time>
      </trkpt>
      <trkpt lat="41.612034322" lon="2.499060378">
        <ele>420.71</ele>
        <time>2013-08-11T11:46:04Z</time>
      </trkpt>
      <trkpt lat="41.612092324" lon="2.499183927">
        <ele>420.23</ele>
        <time>2013-08-11T11:46:08Z</time>
      </trkpt>
      <trkpt lat="41.612297849" lon="2.499334466">
        <ele>417.83</ele>
        <time>2013-08-11T11:46:16Z</time>
      </trkpt>
      <trkpt lat="41.612375130" lon="2.499452986">
        <ele>414.47</ele>
        <time>2013-08-11T11:46:21Z</time>
      </trkpt>
      <trkpt lat="41.612459200" lon="2.499583073">
        <ele>411.10</ele>
        <time>2013-08-11T11:46:26Z</time>
      </trkpt>
      <trkpt lat="41.612538745" lon="2.499799997">
        <ele>407.74</ele>
        <time>2013-08-11T11:46:32Z</time>
      </trkpt>
      <trkpt lat="41.612563220" lon="2.499874763">
        <ele>406.77</ele>
        <time>2013-08-11T11:46:34Z</time>
      </trkpt>
      <trkpt lat="41.612638070" lon="2.500075091">
        <ele>403.89</ele>
        <time>2013-08-11T11:46:39Z</time>
      </trkpt>
      <trkpt lat="41.612673777" lon="2.500176596">
        <ele>401.97</ele>
        <time>2013-08-11T11:46:41Z</time>
      </trkpt>
      <trkpt lat="41.612752064" lon="2.500405841">
        <ele>398.12</ele>
        <time>2013-08-11T11:46:46Z</time>
      </trkpt>
      <trkpt lat="41.612835045" lon="2.500602564">
        <ele>394.28</ele>
        <time>2013-08-11T11:46:51Z</time>
      </trkpt>
      <trkpt lat="41.612929090" lon="2.500919651">
        <ele>389.95</ele>
        <time>2013-08-11T11:46:56Z</time>
      </trkpt>
      <trkpt lat="41.612943507" lon="2.500972876">
        <ele>388.99</ele>
        <time>2013-08-11T11:46:57Z</time>
      </trkpt>
      <trkpt lat="41.612965635" lon="2.501197511">
        <ele>386.11</ele>
        <time>2013-08-11T11:47:01Z</time>
      </trkpt>
      <trkpt lat="41.612940741" lon="2.501273954">
        <ele>384.66</ele>
        <time>2013-08-11T11:47:03Z</time>
      </trkpt>
      <trkpt lat="41.612899418" lon="2.501619959">
        <ele>381.78</ele>
        <time>2013-08-11T11:47:09Z</time>
      </trkpt>
      <trkpt lat="41.612890617" lon="2.501667736">
        <ele>381.30</ele>
        <time>2013-08-11T11:47:10Z</time>
      </trkpt>
      <trkpt lat="41.612898496" lon="2.501773432">
        <ele>380.82</ele>
        <time>2013-08-11T11:47:17Z</time>
      </trkpt>
      <trkpt lat="41.612916936" lon="2.501784580">
        <ele>380.82</ele>
        <time>2013-08-11T11:47:23Z</time>
      </trkpt>
      <trkpt lat="41.612974268" lon="2.501659019">
        <ele>378.42</ele>
        <time>2013-08-11T11:47:29Z</time>
      </trkpt>
      <trkpt lat="41.613004276" lon="2.501600346">
        <ele>377.45</ele>
        <time>2013-08-11T11:47:31Z</time>
      </trkpt>
      <trkpt lat="41.613099410" lon="2.501544858">
        <ele>376.01</ele>
        <time>2013-08-11T11:47:35Z</time>
      </trkpt>
      <trkpt lat="41.613234778" lon="2.501506971">
        <ele>374.09</ele>
        <time>2013-08-11T11:47:41Z</time>
      </trkpt>
      <trkpt lat="41.613301833" lon="2.501468415">
        <ele>373.13</ele>
        <time>2013-08-11T11:47:44Z</time>
      </trkpt>
      <trkpt lat="41.613394956" lon="2.501222992">
        <ele>370.24</ele>
        <time>2013-08-11T11:47:51Z</time>
      </trkpt>
      <trkpt lat="41.613438458" lon="2.501070107">
        <ele>368.32</ele>
        <time>2013-08-11T11:47:56Z</time>
      </trkpt>
      <trkpt lat="41.613445499" lon="2.500885621">
        <ele>364.48</ele>
        <time>2013-08-11T11:48:01Z</time>
      </trkpt>
      <trkpt lat="41.613455306" lon="2.500759557">
        <ele>361.59</ele>
        <time>2013-08-11T11:48:04Z</time>
      </trkpt>
      <trkpt lat="41.613419264" lon="2.500456635">
        <ele>358.71</ele>
        <time>2013-08-11T11:48:10Z</time>
      </trkpt>
      <trkpt lat="41.613385904" lon="2.500188247">
        <ele>356.79</ele>
        <time>2013-08-11T11:48:17Z</time>
      </trkpt>
      <trkpt lat="41.613473494" lon="2.500118090">
        <ele>356.31</ele>
        <time>2013-08-11T11:48:21Z</time>
      </trkpt>
      <trkpt lat="41.613649598" lon="2.500099817">
        <ele>356.31</ele>
        <time>2013-08-11T11:48:29Z</time>
      </trkpt>
      <trkpt lat="41.613730148" lon="2.500071067">
        <ele>357.27</ele>
        <time>2013-08-11T11:48:37Z</time>
      </trkpt>
      <trkpt lat="41.613784547" lon="2.500124293">
        <ele>357.27</ele>
        <time>2013-08-11T11:48:48Z</time>
      </trkpt>
      <trkpt lat="41.613816398" lon="2.500159329">
        <ele>355.83</ele>
        <time>2013-08-11T11:48:50Z</time>
      </trkpt>
      <trkpt lat="41.613873563" lon="2.500266450">
        <ele>354.38</ele>
        <time>2013-08-11T11:48:54Z</time>
      </trkpt>
      <trkpt lat="41.613899547" lon="2.500315651">
        <ele>353.42</ele>
        <time>2013-08-11T11:48:59Z</time>
      </trkpt>
      <trkpt lat="41.614020414" lon="2.500502819">
        <ele>350.54</ele>
        <time>2013-08-11T11:49:04Z</time>
      </trkpt>
      <trkpt lat="41.614053187" lon="2.500552692">
        <ele>349.58</ele>
        <time>2013-08-11T11:49:05Z</time>
      </trkpt>
      <trkpt lat="41.614150585" lon="2.500750337">
        <ele>347.17</ele>
        <time>2013-08-11T11:49:08Z</time>
      </trkpt>
      <trkpt lat="41.614259466" lon="2.501128780">
        <ele>342.85</ele>
        <time>2013-08-11T11:49:13Z</time>
      </trkpt>
      <trkpt lat="41.614291317" lon="2.501165828">
        <ele>341.89</ele>
        <time>2013-08-11T11:49:14Z</time>
      </trkpt>
      <trkpt lat="41.614476054" lon="2.501297172">
        <ele>340.44</ele>
        <time>2013-08-11T11:49:18Z</time>
      </trkpt>
      <trkpt lat="41.614740335" lon="2.501408484">
        <ele>338.52</ele>
        <time>2013-08-11T11:49:23Z</time>
      </trkpt>
      <trkpt lat="41.614864136" lon="2.501482664">
        <ele>338.04</ele>
        <time>2013-08-11T11:49:26Z</time>
      </trkpt>
      <trkpt lat="41.614867824" lon="2.501580481">
        <ele>338.04</ele>
        <time>2013-08-11T11:49:28Z</time>
      </trkpt>
      <trkpt lat="41.614878972" lon="2.501876697">
        <ele>338.04</ele>
        <time>2013-08-11T11:49:35Z</time>
      </trkpt>
      <trkpt lat="41.614894730" lon="2.501991194">
        <ele>338.04</ele>
        <time>2013-08-11T11:49:37Z</time>
      </trkpt>
      <trkpt lat="41.615030098" lon="2.502449181">
        <ele>336.12</ele>
        <time>2013-08-11T11:49:43Z</time>
      </trkpt>
      <trkpt lat="41.615085837" lon="2.502718659">
        <ele>335.64</ele>
        <time>2013-08-11T11:49:46Z</time>
      </trkpt>
      <trkpt lat="41.615229503" lon="2.503063658">
        <ele>334.68</ele>
        <time>2013-08-11T11:49:51Z</time>
      </trkpt>
      <trkpt lat="41.615351041" lon="2.503575876">
        <ele>334.20</ele>
        <time>2013-08-11T11:49:59Z</time>
      </trkpt>
      <trkpt lat="41.615361015" lon="2.503659109">
        <ele>334.20</ele>
        <time>2013-08-11T11:50:00Z</time>
      </trkpt>
      <trkpt lat="41.615326063" lon="2.504073259">
        <ele>328.91</ele>
        <time>2013-08-11T11:50:05Z</time>
      </trkpt>
      <trkpt lat="41.615315669" lon="2.504142326">
        <ele>327.95</ele>
        <time>2013-08-11T11:50:06Z</time>
      </trkpt>
      <trkpt lat="41.615229336" lon="2.504290518">
        <ele>323.62</ele>
        <time>2013-08-11T11:50:10Z</time>
      </trkpt>
      <trkpt lat="41.615184576" lon="2.504255314">
        <ele>322.66</ele>
        <time>2013-08-11T11:50:12Z</time>
      </trkpt>
      <trkpt lat="41.615173428" lon="2.504212650">
        <ele>322.18</ele>
        <time>2013-08-11T11:50:13Z</time>
      </trkpt>
      <trkpt lat="41.615054070" lon="2.503883325">
        <ele>318.33</ele>
        <time>2013-08-11T11:50:18Z</time>
      </trkpt>
      <trkpt lat="41.614975532" lon="2.503760614">
        <ele>316.41</ele>
        <time>2013-08-11T11:50:20Z</time>
      </trkpt>
      <trkpt lat="41.614887354" lon="2.503656175">
        <ele>314.49</ele>
        <time>2013-08-11T11:50:22Z</time>
      </trkpt>
      <trkpt lat="41.614795572" lon="2.503389044">
        <ele>310.16</ele>
        <time>2013-08-11T11:50:26Z</time>
      </trkpt>
      <trkpt lat="41.614636232" lon="2.503091319">
        <ele>305.36</ele>
        <time>2013-08-11T11:50:31Z</time>
      </trkpt>
      <trkpt lat="41.614609410" lon="2.503042620">
        <ele>304.88</ele>
        <time>2013-08-11T11:50:32Z</time>
      </trkpt>
      <trkpt lat="41.614465744" lon="2.502951676">
        <ele>300.55</ele>
        <time>2013-08-11T11:50:37Z</time>
      </trkpt>
      <trkpt lat="41.614453674" lon="2.502985707">
        <ele>300.55</ele>
        <time>2013-08-11T11:50:38Z</time>
      </trkpt>
      <trkpt lat="41.614539589" lon="2.503135324">
        <ele>299.59</ele>
        <time>2013-08-11T11:50:42Z</time>
      </trkpt>
      <trkpt lat="41.614561717" lon="2.503400779">
        <ele>296.70</ele>
        <time>2013-08-11T11:50:46Z</time>
      </trkpt>
      <trkpt lat="41.614522322" lon="2.503511084">
        <ele>295.26</ele>
        <time>2013-08-11T11:50:48Z</time>
      </trkpt>
      <trkpt lat="41.614466415" lon="2.503658103">
        <ele>293.34</ele>
        <time>2013-08-11T11:50:51Z</time>
      </trkpt>
      <trkpt lat="41.614475132" lon="2.503917439">
        <ele>290.94</ele>
        <time>2013-08-11T11:50:55Z</time>
      </trkpt>
      <trkpt lat="41.614462727" lon="2.504009053">
        <ele>289.97</ele>
        <time>2013-08-11T11:50:57Z</time>
      </trkpt>
      <trkpt lat="41.614382344" lon="2.504290266">
        <ele>286.13</ele>
        <time>2013-08-11T11:51:04Z</time>
      </trkpt>
      <trkpt lat="41.614398018" lon="2.504467627">
        <ele>283.73</ele>
        <time>2013-08-11T11:51:08Z</time>
      </trkpt>
      <trkpt lat="41.614464822" lon="2.504605258">
        <ele>281.80</ele>
        <time>2013-08-11T11:51:11Z</time>
      </trkpt>
      <trkpt lat="41.614488711" lon="2.504664267">
        <ele>281.80</ele>
        <time>2013-08-11T11:51:12Z</time>
      </trkpt>
      <trkpt lat="41.614541684" lon="2.504939528">
        <ele>280.36</ele>
        <time>2013-08-11T11:51:16Z</time>
      </trkpt>
      <trkpt lat="41.614529614" lon="2.505224094">
        <ele>276.52</ele>
        <time>2013-08-11T11:51:21Z</time>
      </trkpt>
      <trkpt lat="41.614542690" lon="2.505370023">
        <ele>274.59</ele>
        <time>2013-08-11T11:51:24Z</time>
      </trkpt>
      <trkpt lat="41.614580576" lon="2.505533386">
        <ele>273.15</ele>
        <time>2013-08-11T11:51:26Z</time>
      </trkpt>
      <trkpt lat="41.614666826" lon="2.505785011">
        <ele>269.79</ele>
        <time>2013-08-11T11:51:30Z</time>
      </trkpt>
      <trkpt lat="41.614722733" lon="2.505881067">
        <ele>268.83</ele>
        <time>2013-08-11T11:51:32Z</time>
      </trkpt>
      <trkpt lat="41.614777048" lon="2.506123305">
        <ele>268.83</ele>
        <time>2013-08-11T11:51:36Z</time>
      </trkpt>
      <trkpt lat="41.614785346" lon="2.506181391">
        <ele>268.83</ele>
        <time>2013-08-11T11:51:37Z</time>
      </trkpt>
      <trkpt lat="41.614820047" lon="2.506635523">
        <ele>264.50</ele>
        <time>2013-08-11T11:51:44Z</time>
      </trkpt>
      <trkpt lat="41.614878804" lon="2.506875748">
        <ele>262.10</ele>
        <time>2013-08-11T11:51:48Z</time>
      </trkpt>
      <trkpt lat="41.614905543" lon="2.506944899">
        <ele>261.14</ele>
        <time>2013-08-11T11:51:49Z</time>
      </trkpt>
      <trkpt lat="41.615024566" lon="2.507236757">
        <ele>257.77</ele>
        <time>2013-08-11T11:51:53Z</time>
      </trkpt>
      <trkpt lat="41.615072343" lon="2.507374723">
        <ele>256.81</ele>
        <time>2013-08-11T11:51:57Z</time>
      </trkpt>
      <trkpt lat="41.615084245" lon="2.507400790">
        <ele>256.81</ele>
        <time>2013-08-11T11:52:01Z</time>
      </trkpt>
      <trkpt lat="41.615094974" lon="2.507449657">
        <ele>256.81</ele>
        <time>2013-08-11T11:52:03Z</time>
      </trkpt>
      <trkpt lat="41.615130178" lon="2.507651493">
        <ele>256.33</ele>
        <time>2013-08-11T11:52:08Z</time>
      </trkpt>
      <trkpt lat="41.615245177" lon="2.507780910">
        <ele>254.89</ele>
        <time>2013-08-11T11:52:11Z</time>
      </trkpt>
      <trkpt lat="41.615348778" lon="2.508058602">
        <ele>251.04</ele>
        <time>2013-08-11T11:52:15Z</time>
      </trkpt>
      <trkpt lat="41.615323632" lon="2.508315172">
        <ele>250.08</ele>
        <time>2013-08-11T11:52:18Z</time>
      </trkpt>
      <trkpt lat="41.615359590" lon="2.508635361">
        <ele>249.60</ele>
        <time>2013-08-11T11:52:22Z</time>
      </trkpt>
      <trkpt lat="41.615382054" lon="2.508996118">
        <ele>248.64</ele>
        <time>2013-08-11T11:52:27Z</time>
      </trkpt>
      <trkpt lat="41.615348945" lon="2.509222848">
        <ele>248.64</ele>
        <time>2013-08-11T11:52:30Z</time>
      </trkpt>
      <trkpt lat="41.615412480" lon="2.509528956">
        <ele>248.64</ele>
        <time>2013-08-11T11:52:34Z</time>
      </trkpt>
      <trkpt lat="41.615493030" lon="2.509662479">
        <ele>247.68</ele>
        <time>2013-08-11T11:52:36Z</time>
      </trkpt>
      <trkpt lat="41.615559080" lon="2.509806899">
        <ele>246.72</ele>
        <time>2013-08-11T11:52:38Z</time>
      </trkpt>
      <trkpt lat="41.615632673" lon="2.510138236">
        <ele>245.27</ele>
        <time>2013-08-11T11:52:44Z</time>
      </trkpt>
      <trkpt lat="41.615678354" lon="2.510247704">
        <ele>244.79</ele>
        <time>2013-08-11T11:52:46Z</time>
      </trkpt>
      <trkpt lat="41.615748427" lon="2.510419198">
        <ele>244.31</ele>
        <time>2013-08-11T11:52:49Z</time>
      </trkpt>
      <trkpt lat="41.615894356" lon="2.510837035">
        <ele>243.35</ele>
        <time>2013-08-11T11:52:56Z</time>
      </trkpt>
      <trkpt lat="41.615991586" lon="2.511081703">
        <ele>242.87</ele>
        <time>2013-08-11T11:53:00Z</time>
      </trkpt>
      <trkpt lat="41.616063167" lon="2.511268117">
        <ele>242.39</ele>
        <time>2013-08-11T11:53:03Z</time>
      </trkpt>
      <trkpt lat="41.616185878" lon="2.511520663">
        <ele>241.43</ele>
        <time>2013-08-11T11:53:09Z</time>
      </trkpt>
      <trkpt lat="41.616302052" lon="2.511728535">
        <ele>240.95</ele>
        <time>2013-08-11T11:53:15Z</time>
      </trkpt>
      <trkpt lat="41.616467678" lon="2.512037575">
        <ele>239.99</ele>
        <time>2013-08-11T11:53:22Z</time>
      </trkpt>
      <trkpt lat="41.616607237" lon="2.512354411">
        <ele>239.02</ele>
        <time>2013-08-11T11:53:28Z</time>
      </trkpt>
      <trkpt lat="41.616666245" lon="2.512526995">
        <ele>239.02</ele>
        <time>2013-08-11T11:53:31Z</time>
      </trkpt>
      <trkpt lat="41.616746460" lon="2.513123451">
        <ele>237.58</ele>
        <time>2013-08-11T11:53:40Z</time>
      </trkpt>
      <trkpt lat="41.616760542" lon="2.513695264">
        <ele>236.14</ele>
        <time>2013-08-11T11:53:48Z</time>
      </trkpt>
      <trkpt lat="41.616755261" lon="2.514229611">
        <ele>234.22</ele>
        <time>2013-08-11T11:53:55Z</time>
      </trkpt>
      <trkpt lat="41.616772109" lon="2.514428178">
        <ele>233.26</ele>
        <time>2013-08-11T11:53:58Z</time>
      </trkpt>
      <trkpt lat="41.616774456" lon="2.515074926">
        <ele>231.81</ele>
        <time>2013-08-11T11:54:07Z</time>
      </trkpt>
      <trkpt lat="41.616779233" lon="2.515150027">
        <ele>231.81</ele>
        <time>2013-08-11T11:54:08Z</time>
      </trkpt>
      <trkpt lat="41.616771773" lon="2.515336190">
        <ele>230.85</ele>
        <time>2013-08-11T11:54:11Z</time>
      </trkpt>
      <trkpt lat="41.616770684" lon="2.515625365">
        <ele>229.89</ele>
        <time>2013-08-11T11:54:15Z</time>
      </trkpt>
      <trkpt lat="41.616766158" lon="2.515986039">
        <ele>229.41</ele>
        <time>2013-08-11T11:54:20Z</time>
      </trkpt>
      <trkpt lat="41.616717542" lon="2.516602192">
        <ele>227.01</ele>
        <time>2013-08-11T11:54:28Z</time>
      </trkpt>
      <trkpt lat="41.616660546" lon="2.517153721">
        <ele>225.57</ele>
        <time>2013-08-11T11:54:35Z</time>
      </trkpt>
      <trkpt lat="41.616630371" lon="2.517379698">
        <ele>223.64</ele>
        <time>2013-08-11T11:54:38Z</time>
      </trkpt>
      <trkpt lat="41.616598519" lon="2.517701730">
        <ele>223.16</ele>
        <time>2013-08-11T11:54:42Z</time>
      </trkpt>
      <trkpt lat="41.616594999" lon="2.518307490">
        <ele>221.24</ele>
        <time>2013-08-11T11:54:49Z</time>
      </trkpt>
      <trkpt lat="41.616504977" lon="2.518682161">
        <ele>220.28</ele>
        <time>2013-08-11T11:54:55Z</time>
      </trkpt>
      <trkpt lat="41.616459296" lon="2.518951891">
        <ele>220.28</ele>
        <time>2013-08-11T11:55:02Z</time>
      </trkpt>
      <trkpt lat="41.616462062" lon="2.519001177">
        <ele>219.80</ele>
        <time>2013-08-11T11:55:07Z</time>
      </trkpt>
      <trkpt lat="41.616432725" lon="2.519170072">
        <ele>219.80</ele>
        <time>2013-08-11T11:55:14Z</time>
      </trkpt>
      <trkpt lat="41.616383607" lon="2.519336537">
        <ele>219.32</ele>
        <time>2013-08-11T11:55:18Z</time>
      </trkpt>
      <trkpt lat="41.616298364" lon="2.519636525">
        <ele>218.84</ele>
        <time>2013-08-11T11:55:23Z</time>
      </trkpt>
      <trkpt lat="41.616126618" lon="2.520191742">
        <ele>216.91</ele>
        <time>2013-08-11T11:55:31Z</time>
      </trkpt>
      <trkpt lat="41.616003488" lon="2.520549230">
        <ele>215.95</ele>
        <time>2013-08-11T11:55:37Z</time>
      </trkpt>
      <trkpt lat="41.615847920" lon="2.520948628">
        <ele>214.99</ele>
        <time>2013-08-11T11:55:45Z</time>
      </trkpt>
      <trkpt lat="41.615823613" lon="2.521028089">
        <ele>214.99</ele>
        <time>2013-08-11T11:55:47Z</time>
      </trkpt>
      <trkpt lat="41.615755300" lon="2.521628065">
        <ele>214.03</ele>
        <time>2013-08-11T11:55:55Z</time>
      </trkpt>
      <trkpt lat="41.615690256" lon="2.522088818">
        <ele>213.07</ele>
        <time>2013-08-11T11:56:02Z</time>
      </trkpt>
      <trkpt lat="41.615611886" lon="2.522630122">
        <ele>211.63</ele>
        <time>2013-08-11T11:56:09Z</time>
      </trkpt>
      <trkpt lat="41.615591350" lon="2.522793401">
        <ele>210.67</ele>
        <time>2013-08-11T11:56:11Z</time>
      </trkpt>
      <trkpt lat="41.615526055" lon="2.523088612">
        <ele>209.70</ele>
        <time>2013-08-11T11:56:15Z</time>
      </trkpt>
      <trkpt lat="41.615474674" lon="2.523607787">
        <ele>208.26</ele>
        <time>2013-08-11T11:56:23Z</time>
      </trkpt>
      <trkpt lat="41.615433100" lon="2.524042053">
        <ele>205.86</ele>
        <time>2013-08-11T11:56:30Z</time>
      </trkpt>
      <trkpt lat="41.615383479" lon="2.524693495">
        <ele>203.94</ele>
        <time>2013-08-11T11:56:39Z</time>
      </trkpt>
      <trkpt lat="41.615356070" lon="2.525267404">
        <ele>202.01</ele>
        <time>2013-08-11T11:56:46Z</time>
      </trkpt>
      <trkpt lat="41.615367553" lon="2.525866207">
        <ele>201.05</ele>
        <time>2013-08-11T11:56:53Z</time>
      </trkpt>
      <trkpt lat="41.615442320" lon="2.526607251">
        <ele>199.13</ele>
        <time>2013-08-11T11:57:01Z</time>
      </trkpt>
      <trkpt lat="41.615453719" lon="2.526878741">
        <ele>198.17</ele>
        <time>2013-08-11T11:57:04Z</time>
      </trkpt>
      <trkpt lat="41.615415581" lon="2.527175460">
        <ele>196.73</ele>
        <time>2013-08-11T11:57:07Z</time>
      </trkpt>
      <trkpt lat="41.615297816" lon="2.527817765">
        <ele>193.84</ele>
        <time>2013-08-11T11:57:13Z</time>
      </trkpt>
      <trkpt lat="41.615203603" lon="2.528410198">
        <ele>192.88</ele>
        <time>2013-08-11T11:57:19Z</time>
      </trkpt>
      <trkpt lat="41.615170495" lon="2.528587559">
        <ele>191.92</ele>
        <time>2013-08-11T11:57:21Z</time>
      </trkpt>
      <trkpt lat="41.615108301" lon="2.528797778">
        <ele>191.44</ele>
        <time>2013-08-11T11:57:24Z</time>
      </trkpt>
      <trkpt lat="41.615089945" lon="2.529426420">
        <ele>189.52</ele>
        <time>2013-08-11T11:57:32Z</time>
      </trkpt>
      <trkpt lat="41.615089106" lon="2.530115580">
        <ele>187.59</ele>
        <time>2013-08-11T11:57:40Z</time>
      </trkpt>
      <trkpt lat="41.615087933" lon="2.530810775">
        <ele>186.15</ele>
        <time>2013-08-11T11:57:47Z</time>
      </trkpt>
      <trkpt lat="41.615069241" lon="2.531113111">
        <ele>184.23</ele>
        <time>2013-08-11T11:57:50Z</time>
      </trkpt>
      <trkpt lat="41.615104026" lon="2.531448219">
        <ele>184.23</ele>
        <time>2013-08-11T11:57:54Z</time>
      </trkpt>
      <trkpt lat="41.615194634" lon="2.531921629">
        <ele>182.31</ele>
        <time>2013-08-11T11:58:00Z</time>
      </trkpt>
      <trkpt lat="41.615180218" lon="2.532080466">
        <ele>181.83</ele>
        <time>2013-08-11T11:58:02Z</time>
      </trkpt>
      <trkpt lat="41.615064715" lon="2.532652699">
        <ele>179.90</ele>
        <time>2013-08-11T11:58:10Z</time>
      </trkpt>
      <trkpt lat="41.614910656" lon="2.533201210">
        <ele>177.98</ele>
        <time>2013-08-11T11:58:18Z</time>
      </trkpt>
      <trkpt lat="41.614821221" lon="2.533506815">
        <ele>176.54</ele>
        <time>2013-08-11T11:58:22Z</time>
      </trkpt>
      <trkpt lat="41.614648805" lon="2.534012746">
        <ele>175.58</ele>
        <time>2013-08-11T11:58:29Z</time>
      </trkpt>
      <trkpt lat="41.614403970" lon="2.534766363">
        <ele>173.17</ele>
        <time>2013-08-11T11:58:39Z</time>
      </trkpt>
      <trkpt lat="41.614158128" lon="2.535536911">
        <ele>170.29</ele>
        <time>2013-08-11T11:58:49Z</time>
      </trkpt>
      <trkpt lat="41.614107083" lon="2.535692144">
        <ele>169.33</ele>
        <time>2013-08-11T11:58:51Z</time>
      </trkpt>
      <trkpt lat="41.613894015" lon="2.536276531">
        <ele>167.41</ele>
        <time>2013-08-11T11:58:59Z</time>
      </trkpt>
      <trkpt lat="41.613789073" lon="2.536525054">
        <ele>166.45</ele>
        <time>2013-08-11T11:59:05Z</time>
      </trkpt>
      <trkpt lat="41.613717408" lon="2.536650950">
        <ele>165.48</ele>
        <time>2013-08-11T11:59:11Z</time>
      </trkpt>
      <trkpt lat="41.613704500" lon="2.536668636">
        <ele>165.00</ele>
        <time>2013-08-11T11:59:18Z</time>
      </trkpt>
      <trkpt lat="41.613635936" lon="2.536767794">
        <ele>165.00</ele>
        <time>2013-08-11T11:59:23Z</time>
      </trkpt>
      <trkpt lat="41.613582627" lon="2.536884219">
        <ele>165.00</ele>
        <time>2013-08-11T11:59:26Z</time>
      </trkpt>
      <trkpt lat="41.613506771" lon="2.537006427">
        <ele>165.00</ele>
        <time>2013-08-11T11:59:29Z</time>
      </trkpt>
      <trkpt lat="41.613262773" lon="2.537291076">
        <ele>163.08</ele>
        <time>2013-08-11T11:59:36Z</time>
      </trkpt>
      <trkpt lat="41.613184989" lon="2.537368525">
        <ele>163.08</ele>
        <time>2013-08-11T11:59:38Z</time>
      </trkpt>
      <trkpt lat="41.612869914" lon="2.537710171">
        <ele>162.12</ele>
        <time>2013-08-11T11:59:46Z</time>
      </trkpt>
      <trkpt lat="41.612664306" lon="2.537921144">
        <ele>160.68</ele>
        <time>2013-08-11T11:59:51Z</time>
      </trkpt>
      <trkpt lat="41.612296172" lon="2.538401427">
        <ele>159.24</ele>
        <time>2013-08-11T12:00:00Z</time>
      </trkpt>
      <trkpt lat="41.612107747" lon="2.538778445">
        <ele>157.79</ele>
        <time>2013-08-11T12:00:06Z</time>
      </trkpt>
      <trkpt lat="41.611914628" lon="2.539030153">
        <ele>156.35</ele>
        <time>2013-08-11T12:00:12Z</time>
      </trkpt>
      <trkpt lat="41.611872719" lon="2.539079188">
        <ele>156.35</ele>
        <time>2013-08-11T12:00:19Z</time>
      </trkpt>
      <trkpt lat="41.611848243" lon="2.539029818">
        <ele>156.35</ele>
        <time>2013-08-11T12:00:23Z</time>
      </trkpt>
      <trkpt lat="41.611797114" lon="2.538848099">
        <ele>157.79</ele>
        <time>2013-08-11T12:00:31Z</time>
      </trkpt>
      <trkpt lat="41.611781021" lon="2.538818678">
        <ele>157.79</ele>
        <time>2013-08-11T12:00:32Z</time>
      </trkpt>
      <trkpt lat="41.611669877" lon="2.538768722">
        <ele>159.24</ele>
        <time>2013-08-11T12:00:36Z</time>
      </trkpt>
      <trkpt lat="41.611573401" lon="2.538794371">
        <ele>159.24</ele>
        <time>2013-08-11T12:00:40Z</time>
      </trkpt>
      <trkpt lat="41.611516152" lon="2.538799400">
        <ele>158.27</ele>
        <time>2013-08-11T12:00:42Z</time>
      </trkpt>
      <trkpt lat="41.611276681" lon="2.538826054">
        <ele>156.83</ele>
        <time>2013-08-11T12:00:47Z</time>
      </trkpt>
      <trkpt lat="41.611075600" lon="2.538843488">
        <ele>155.87</ele>
        <time>2013-08-11T12:00:51Z</time>
      </trkpt>
      <trkpt lat="41.610650553" lon="2.539006433">
        <ele>153.47</ele>
        <time>2013-08-11T12:00:59Z</time>
      </trkpt>
      <trkpt lat="41.610268841" lon="2.539201899">
        <ele>152.51</ele>
        <time>2013-08-11T12:01:06Z</time>
      </trkpt>
      <trkpt lat="41.609834491" lon="2.539454445">
        <ele>150.58</ele>
        <time>2013-08-11T12:01:14Z</time>
      </trkpt>
      <trkpt lat="41.609622932" lon="2.539584952">
        <ele>149.14</ele>
        <time>2013-08-11T12:01:18Z</time>
      </trkpt>
      <trkpt lat="41.609446158" lon="2.539692575">
        <ele>149.14</ele>
        <time>2013-08-11T12:01:22Z</time>
      </trkpt>
      <trkpt lat="41.609149103" lon="2.539921569">
        <ele>147.70</ele>
        <time>2013-08-11T12:01:29Z</time>
      </trkpt>
      <trkpt lat="41.609080455" lon="2.540042017">
        <ele>146.74</ele>
        <time>2013-08-11T12:01:34Z</time>
      </trkpt>
      <trkpt lat="41.609069894" lon="2.540168332">
        <ele>146.26</ele>
        <time>2013-08-11T12:01:41Z</time>
      </trkpt>
      <trkpt lat="41.608940980" lon="2.540350052">
        <ele>145.78</ele>
        <time>2013-08-11T12:01:48Z</time>
      </trkpt>
      <trkpt lat="41.608886330" lon="2.540398164">
        <ele>145.30</ele>
        <time>2013-08-11T12:01:53Z</time>
      </trkpt>
      <trkpt lat="41.608859424" lon="2.540481229">
        <ele>145.30</ele>
        <time>2013-08-11T12:02:00Z</time>
      </trkpt>
      <trkpt lat="41.608836123" lon="2.540511822">
        <ele>145.30</ele>
        <time>2013-08-11T12:02:16Z</time>
      </trkpt>
      <trkpt lat="41.608815336" lon="2.540439738">
        <ele>145.30</ele>
        <time>2013-08-11T12:02:21Z</time>
      </trkpt>
      <trkpt lat="41.608760853" lon="2.540378802">
        <ele>144.82</ele>
        <time>2013-08-11T12:02:24Z</time>
      </trkpt>
      <trkpt lat="41.608595562" lon="2.540376203">
        <ele>144.34</ele>
        <time>2013-08-11T12:02:29Z</time>
      </trkpt>
      <trkpt lat="41.608203373" lon="2.540414089">
        <ele>143.85</ele>
        <time>2013-08-11T12:02:39Z</time>
      </trkpt>
      <trkpt lat="41.607902043" lon="2.540448874">
        <ele>142.89</ele>
        <time>2013-08-11T12:02:47Z</time>
      </trkpt>
      <trkpt lat="41.607692999" lon="2.540445773">
        <ele>142.41</ele>
        <time>2013-08-11T12:02:54Z</time>
      </trkpt>
      <trkpt lat="41.607614125" lon="2.540509392">
        <ele>141.93</ele>
        <time>2013-08-11T12:02:59Z</time>
      </trkpt>
      <trkpt lat="41.607499042" lon="2.540752467">
        <ele>141.93</ele>
        <time>2013-08-11T12:03:08Z</time>
      </trkpt>
      <trkpt lat="41.607403572" lon="2.540827653">
        <ele>141.93</ele>
        <time>2013-08-11T12:03:13Z</time>
      </trkpt>
      <trkpt lat="41.607133758" lon="2.540781468">
        <ele>140.97</ele>
        <time>2013-08-11T12:03:21Z</time>
      </trkpt>
      <trkpt lat="41.606927647" lon="2.540729165">
        <ele>140.49</ele>
        <time>2013-08-11T12:03:26Z</time>
      </trkpt>
      <trkpt lat="41.606576194" lon="2.540574016">
        <ele>139.05</ele>
        <time>2013-08-11T12:03:34Z</time>
      </trkpt>
      <trkpt lat="41.606198003" lon="2.540397577">
        <ele>138.09</ele>
        <time>2013-08-11T12:03:42Z</time>
      </trkpt>
      <trkpt lat="41.606031454" lon="2.540373772">
        <ele>137.13</ele>
        <time>2013-08-11T12:03:47Z</time>
      </trkpt>
      <trkpt lat="41.605995496" lon="2.540380562">
        <ele>137.13</ele>
        <time>2013-08-11T12:03:49Z</time>
      </trkpt>
      <trkpt lat="41.605895081" lon="2.540398499">
        <ele>137.13</ele>
        <time>2013-08-11T12:03:56Z</time>
      </trkpt>
      <trkpt lat="41.605917293" lon="2.540461279">
        <ele>137.13</ele>
        <time>2013-08-11T12:04:02Z</time>
      </trkpt>
      <trkpt lat="41.605934308" lon="2.540477959">
        <ele>137.13</ele>
        <time>2013-08-11T12:04:04Z</time>
      </trkpt>
      <trkpt lat="41.605937577" lon="2.540557168">
        <ele>137.13</ele>
        <time>2013-08-11T12:04:08Z</time>
      </trkpt>
      <trkpt lat="41.606000525" lon="2.540632103">
        <ele>138.09</ele>
        <time>2013-08-11T12:04:13Z</time>
      </trkpt>
      <trkpt lat="41.606064395" lon="2.540654734">
        <ele>138.09</ele>
        <time>2013-08-11T12:04:16Z</time>
      </trkpt>
      <trkpt lat="41.606275200" lon="2.540720448">
        <ele>139.05</ele>
        <time>2013-08-11T12:04:26Z</time>
      </trkpt>
      <trkpt lat="41.606399168" lon="2.540759424">
        <ele>139.53</ele>
        <time>2013-08-11T12:04:32Z</time>
      </trkpt>
      <trkpt lat="41.606491202" lon="2.540896971">
        <ele>140.01</ele>
        <time>2013-08-11T12:04:38Z</time>
      </trkpt>
      <trkpt lat="41.606523137" lon="2.540938629">
        <ele>140.01</ele>
        <time>2013-08-11T12:04:40Z</time>
      </trkpt>
      <trkpt lat="41.606556916" lon="2.541074919">
        <ele>140.97</ele>
        <time>2013-08-11T12:04:46Z</time>
      </trkpt>
      <trkpt lat="41.606632101" lon="2.541305840">
        <ele>142.41</ele>
        <time>2013-08-11T12:04:55Z</time>
      </trkpt>
      <trkpt lat="41.606672251" lon="2.541520333">
        <ele>142.89</ele>
        <time>2013-08-11T12:05:02Z</time>
      </trkpt>
      <trkpt lat="41.606761350" lon="2.541740693">
        <ele>143.85</ele>
        <time>2013-08-11T12:05:10Z</time>
      </trkpt>
      <trkpt lat="41.606865873" lon="2.542015284">
        <ele>145.30</ele>
        <time>2013-08-11T12:05:20Z</time>
      </trkpt>
      <trkpt lat="41.606949775" lon="2.542165656">
        <ele>146.74</ele>
        <time>2013-08-11T12:05:27Z</time>
      </trkpt>
      <trkpt lat="41.606994032" lon="2.542310495">
        <ele>147.70</ele>
        <time>2013-08-11T12:05:33Z</time>
      </trkpt>
      <trkpt lat="41.607011131" lon="2.542351902">
        <ele>147.70</ele>
        <time>2013-08-11T12:05:40Z</time>
      </trkpt>
      <trkpt lat="41.607012388" lon="2.542398673">
        <ele>147.70</ele>
        <time>2013-08-11T12:05:49Z</time>
      </trkpt>
      <trkpt lat="41.607037115" lon="2.542418119">
        <ele>148.18</ele>
        <time>2013-08-11T12:05:56Z</time>
      </trkpt>
      <trkpt lat="41.607040551" lon="2.542421891">
        <ele>148.66</ele>
        <time>2013-08-11T12:06:18Z</time>
      </trkpt>
      <trkpt lat="41.607041557" lon="2.542411329">
        <ele>148.66</ele>
        <time>2013-08-11T12:06:34Z</time>
      </trkpt>
      <trkpt lat="41.607043737" lon="2.542413341">
        <ele>148.66</ele>
        <time>2013-08-11T12:06:47Z</time>
      </trkpt>
      <trkpt lat="41.607032421" lon="2.542418454">
        <ele>148.66</ele>
        <time>2013-08-11T12:07:06Z</time>
      </trkpt>
      <trkpt lat="41.607022447" lon="2.542432871">
        <ele>148.66</ele>
        <time>2013-08-11T12:07:16Z</time>
      </trkpt>
    </trkseg>
  </trk>
</gpx>
